<?xml version="1.0" encoding="UTF-8" standalone="no" ?>
<gpx xmlns="http://www.topografix.com/GPX/1/1" xmlns:xsi="http://www.w3.org/2001/XMLSchema-instance" xsi:schemaLocation="http://www.topografix.com/GPX/1/1 http://www.topografix.com/GPX/1/1/gpx.xsd" version="1.1" creator="VisuGPX - https://www.visugpx.com">
  <metadata>
    <name>monton d\'anon 19/12</name>
    <desc><![CDATA[Belle balade à bon rythme avec nico sur les sentiers des baoux!]]></desc>
  </metadata>
  <trk>
    <name><![CDATA[(null)]]></name>
    <desc><![CDATA[(null)]]></desc>
    <trkseg>
      <trkpt lat="43.76034" lon="7.17549">
        <ele>264.5</ele>
        <time>2010-12-19T10:40:03Z</time>
      </trkpt>
      <trkpt lat="43.76034" lon="7.17549">
        <ele>264.5</ele>
        <time>2010-12-19T10:40:04Z</time>
      </trkpt>
      <trkpt lat="43.76033" lon="7.17549">
        <ele>264.7</ele>
        <time>2010-12-19T10:40:24Z</time>
      </trkpt>
      <trkpt lat="43.76016" lon="7.17469">
        <ele>87</ele>
        <time>2010-12-19T10:40:28Z</time>
      </trkpt>
      <trkpt lat="43.76016" lon="7.17469">
        <ele>87</ele>
        <time>2010-12-19T10:40:30Z</time>
      </trkpt>
      <trkpt lat="43.76039" lon="7.17442">
        <ele>154</ele>
        <time>2010-12-19T10:40:32Z</time>
      </trkpt>
      <trkpt lat="43.76039" lon="7.17442">
        <ele>154</ele>
        <time>2010-12-19T10:40:34Z</time>
      </trkpt>
      <trkpt lat="43.76057" lon="7.17429">
        <ele>229</ele>
        <time>2010-12-19T10:40:40Z</time>
      </trkpt>
      <trkpt lat="43.76066" lon="7.1743">
        <ele>237</ele>
        <time>2010-12-19T10:40:42Z</time>
      </trkpt>
      <trkpt lat="43.76076" lon="7.1743">
        <ele>244</ele>
        <time>2010-12-19T10:40:43Z</time>
      </trkpt>
      <trkpt lat="43.76088" lon="7.17431">
        <ele>253</ele>
        <time>2010-12-19T10:40:45Z</time>
      </trkpt>
      <trkpt lat="43.76098" lon="7.17431">
        <ele>260</ele>
        <time>2010-12-19T10:40:47Z</time>
      </trkpt>
      <trkpt lat="43.76109" lon="7.17431">
        <ele>267</ele>
        <time>2010-12-19T10:40:49Z</time>
      </trkpt>
      <trkpt lat="43.76119" lon="7.17432">
        <ele>277</ele>
        <time>2010-12-19T10:40:54Z</time>
      </trkpt>
      <trkpt lat="43.76128" lon="7.17432">
        <ele>285</ele>
        <time>2010-12-19T10:41:03Z</time>
      </trkpt>
      <trkpt lat="43.76139" lon="7.17432">
        <ele>289</ele>
        <time>2010-12-19T10:41:07Z</time>
      </trkpt>
      <trkpt lat="43.76148" lon="7.17431">
        <ele>291</ele>
        <time>2010-12-19T10:41:10Z</time>
      </trkpt>
      <trkpt lat="43.76159" lon="7.1743">
        <ele>293</ele>
        <time>2010-12-19T10:41:14Z</time>
      </trkpt>
      <trkpt lat="43.76169" lon="7.17428">
        <ele>295</ele>
        <time>2010-12-19T10:41:16Z</time>
      </trkpt>
      <trkpt lat="43.76178" lon="7.17426">
        <ele>296</ele>
        <time>2010-12-19T10:41:19Z</time>
      </trkpt>
      <trkpt lat="43.76187" lon="7.17424">
        <ele>297</ele>
        <time>2010-12-19T10:41:21Z</time>
      </trkpt>
      <trkpt lat="43.76198" lon="7.17422">
        <ele>299</ele>
        <time>2010-12-19T10:41:25Z</time>
      </trkpt>
      <trkpt lat="43.76208" lon="7.1742">
        <ele>300</ele>
        <time>2010-12-19T10:41:28Z</time>
      </trkpt>
      <trkpt lat="43.76218" lon="7.1742">
        <ele>301</ele>
        <time>2010-12-19T10:41:31Z</time>
      </trkpt>
      <trkpt lat="43.76227" lon="7.17421">
        <ele>303</ele>
        <time>2010-12-19T10:41:34Z</time>
      </trkpt>
      <trkpt lat="43.76236" lon="7.17425">
        <ele>304</ele>
        <time>2010-12-19T10:41:37Z</time>
      </trkpt>
      <trkpt lat="43.76246" lon="7.1743">
        <ele>305</ele>
        <time>2010-12-19T10:41:41Z</time>
      </trkpt>
      <trkpt lat="43.76256" lon="7.17435">
        <ele>306</ele>
        <time>2010-12-19T10:41:45Z</time>
      </trkpt>
      <trkpt lat="43.76264" lon="7.17441">
        <ele>307</ele>
        <time>2010-12-19T10:41:48Z</time>
      </trkpt>
      <trkpt lat="43.76273" lon="7.17446">
        <ele>308</ele>
        <time>2010-12-19T10:41:51Z</time>
      </trkpt>
      <trkpt lat="43.76283" lon="7.17451">
        <ele>309</ele>
        <time>2010-12-19T10:41:55Z</time>
      </trkpt>
      <trkpt lat="43.76293" lon="7.1746">
        <ele>309</ele>
        <time>2010-12-19T10:41:58Z</time>
      </trkpt>
      <trkpt lat="43.76298" lon="7.1747">
        <ele>309</ele>
        <time>2010-12-19T10:42:02Z</time>
      </trkpt>
      <trkpt lat="43.76301" lon="7.17485">
        <ele>308</ele>
        <time>2010-12-19T10:42:05Z</time>
      </trkpt>
      <trkpt lat="43.76302" lon="7.17498">
        <ele>307</ele>
        <time>2010-12-19T10:42:08Z</time>
      </trkpt>
      <trkpt lat="43.76309" lon="7.17511">
        <ele>308</ele>
        <time>2010-12-19T10:42:12Z</time>
      </trkpt>
      <trkpt lat="43.76318" lon="7.17517">
        <ele>311</ele>
        <time>2010-12-19T10:42:15Z</time>
      </trkpt>
      <trkpt lat="43.76328" lon="7.17521">
        <ele>314</ele>
        <time>2010-12-19T10:42:17Z</time>
      </trkpt>
      <trkpt lat="43.76338" lon="7.17525">
        <ele>316</ele>
        <time>2010-12-19T10:42:20Z</time>
      </trkpt>
      <trkpt lat="43.76344" lon="7.17527">
        <ele>318</ele>
        <time>2010-12-19T10:42:22Z</time>
      </trkpt>
      <trkpt lat="43.76353" lon="7.17535">
        <ele>321</ele>
        <time>2010-12-19T10:42:25Z</time>
      </trkpt>
      <trkpt lat="43.76363" lon="7.17543">
        <ele>323</ele>
        <time>2010-12-19T10:42:28Z</time>
      </trkpt>
      <trkpt lat="43.76372" lon="7.17552">
        <ele>325</ele>
        <time>2010-12-19T10:42:31Z</time>
      </trkpt>
      <trkpt lat="43.76381" lon="7.17558">
        <ele>326</ele>
        <time>2010-12-19T10:42:33Z</time>
      </trkpt>
      <trkpt lat="43.76392" lon="7.17563">
        <ele>328</ele>
        <time>2010-12-19T10:42:36Z</time>
      </trkpt>
      <trkpt lat="43.76397" lon="7.17565">
        <ele>328</ele>
        <time>2010-12-19T10:42:38Z</time>
      </trkpt>
      <trkpt lat="43.76407" lon="7.1757">
        <ele>330</ele>
        <time>2010-12-19T10:42:41Z</time>
      </trkpt>
      <trkpt lat="43.76417" lon="7.17574">
        <ele>331</ele>
        <time>2010-12-19T10:42:43Z</time>
      </trkpt>
      <trkpt lat="43.76426" lon="7.17579">
        <ele>331</ele>
        <time>2010-12-19T10:42:46Z</time>
      </trkpt>
      <trkpt lat="43.76435" lon="7.17588">
        <ele>332</ele>
        <time>2010-12-19T10:42:49Z</time>
      </trkpt>
      <trkpt lat="43.76443" lon="7.17599">
        <ele>333</ele>
        <time>2010-12-19T10:42:52Z</time>
      </trkpt>
      <trkpt lat="43.7645" lon="7.1761">
        <ele>333</ele>
        <time>2010-12-19T10:42:55Z</time>
      </trkpt>
      <trkpt lat="43.76458" lon="7.17619">
        <ele>333</ele>
        <time>2010-12-19T10:42:58Z</time>
      </trkpt>
      <trkpt lat="43.76468" lon="7.17626">
        <ele>334</ele>
        <time>2010-12-19T10:43:01Z</time>
      </trkpt>
      <trkpt lat="43.76478" lon="7.17632">
        <ele>334</ele>
        <time>2010-12-19T10:43:03Z</time>
      </trkpt>
      <trkpt lat="43.7648" lon="7.17633">
        <ele>334</ele>
        <time>2010-12-19T10:43:04Z</time>
      </trkpt>
      <trkpt lat="43.76491" lon="7.17635">
        <ele>334</ele>
        <time>2010-12-19T10:43:07Z</time>
      </trkpt>
      <trkpt lat="43.76502" lon="7.17635">
        <ele>335</ele>
        <time>2010-12-19T10:43:10Z</time>
      </trkpt>
      <trkpt lat="43.76513" lon="7.17633">
        <ele>335</ele>
        <time>2010-12-19T10:43:13Z</time>
      </trkpt>
      <trkpt lat="43.76523" lon="7.17629">
        <ele>336</ele>
        <time>2010-12-19T10:43:16Z</time>
      </trkpt>
      <trkpt lat="43.76526" lon="7.17628">
        <ele>336</ele>
        <time>2010-12-19T10:43:16Z</time>
      </trkpt>
      <trkpt lat="43.76535" lon="7.17621">
        <ele>337</ele>
        <time>2010-12-19T10:43:19Z</time>
      </trkpt>
      <trkpt lat="43.7654" lon="7.17616">
        <ele>337</ele>
        <time>2010-12-19T10:43:21Z</time>
      </trkpt>
      <trkpt lat="43.76548" lon="7.17608">
        <ele>337</ele>
        <time>2010-12-19T10:43:23Z</time>
      </trkpt>
      <trkpt lat="43.76558" lon="7.17599">
        <ele>337</ele>
        <time>2010-12-19T10:43:26Z</time>
      </trkpt>
      <trkpt lat="43.76568" lon="7.17591">
        <ele>338</ele>
        <time>2010-12-19T10:43:29Z</time>
      </trkpt>
      <trkpt lat="43.76578" lon="7.17585">
        <ele>338</ele>
        <time>2010-12-19T10:43:31Z</time>
      </trkpt>
      <trkpt lat="43.76586" lon="7.17579">
        <ele>338</ele>
        <time>2010-12-19T10:43:34Z</time>
      </trkpt>
      <trkpt lat="43.76594" lon="7.17573">
        <ele>339</ele>
        <time>2010-12-19T10:43:36Z</time>
      </trkpt>
      <trkpt lat="43.76603" lon="7.17561">
        <ele>339</ele>
        <time>2010-12-19T10:43:39Z</time>
      </trkpt>
      <trkpt lat="43.76608" lon="7.17549">
        <ele>339</ele>
        <time>2010-12-19T10:43:41Z</time>
      </trkpt>
      <trkpt lat="43.76615" lon="7.17537">
        <ele>340</ele>
        <time>2010-12-19T10:43:44Z</time>
      </trkpt>
      <trkpt lat="43.76622" lon="7.1753">
        <ele>340</ele>
        <time>2010-12-19T10:43:46Z</time>
      </trkpt>
      <trkpt lat="43.7663" lon="7.17525">
        <ele>339</ele>
        <time>2010-12-19T10:43:48Z</time>
      </trkpt>
      <trkpt lat="43.76639" lon="7.17521">
        <ele>338</ele>
        <time>2010-12-19T10:43:51Z</time>
      </trkpt>
      <trkpt lat="43.76649" lon="7.17515">
        <ele>338</ele>
        <time>2010-12-19T10:43:54Z</time>
      </trkpt>
      <trkpt lat="43.76657" lon="7.17505">
        <ele>337</ele>
        <time>2010-12-19T10:43:57Z</time>
      </trkpt>
      <trkpt lat="43.76665" lon="7.17494">
        <ele>338</ele>
        <time>2010-12-19T10:44:00Z</time>
      </trkpt>
      <trkpt lat="43.76672" lon="7.17485">
        <ele>338</ele>
        <time>2010-12-19T10:44:02Z</time>
      </trkpt>
      <trkpt lat="43.76679" lon="7.17477">
        <ele>338</ele>
        <time>2010-12-19T10:44:05Z</time>
      </trkpt>
      <trkpt lat="43.7669" lon="7.17469">
        <ele>338</ele>
        <time>2010-12-19T10:44:08Z</time>
      </trkpt>
      <trkpt lat="43.76701" lon="7.17463">
        <ele>339</ele>
        <time>2010-12-19T10:44:12Z</time>
      </trkpt>
      <trkpt lat="43.7671" lon="7.17459">
        <ele>339</ele>
        <time>2010-12-19T10:44:14Z</time>
      </trkpt>
      <trkpt lat="43.7672" lon="7.17454">
        <ele>337</ele>
        <time>2010-12-19T10:44:17Z</time>
      </trkpt>
      <trkpt lat="43.76723" lon="7.17453">
        <ele>337</ele>
        <time>2010-12-19T10:44:18Z</time>
      </trkpt>
      <trkpt lat="43.76733" lon="7.17447">
        <ele>337</ele>
        <time>2010-12-19T10:44:20Z</time>
      </trkpt>
      <trkpt lat="43.76743" lon="7.17439">
        <ele>338</ele>
        <time>2010-12-19T10:44:23Z</time>
      </trkpt>
      <trkpt lat="43.7675" lon="7.17427">
        <ele>338</ele>
        <time>2010-12-19T10:44:25Z</time>
      </trkpt>
      <trkpt lat="43.76755" lon="7.17413">
        <ele>339</ele>
        <time>2010-12-19T10:44:28Z</time>
      </trkpt>
      <trkpt lat="43.7676" lon="7.17399">
        <ele>339</ele>
        <time>2010-12-19T10:44:30Z</time>
      </trkpt>
      <trkpt lat="43.76766" lon="7.17386">
        <ele>339</ele>
        <time>2010-12-19T10:44:33Z</time>
      </trkpt>
      <trkpt lat="43.76773" lon="7.17376">
        <ele>340</ele>
        <time>2010-12-19T10:44:36Z</time>
      </trkpt>
      <trkpt lat="43.76781" lon="7.17367">
        <ele>340</ele>
        <time>2010-12-19T10:44:39Z</time>
      </trkpt>
      <trkpt lat="43.7679" lon="7.17358">
        <ele>338</ele>
        <time>2010-12-19T10:44:42Z</time>
      </trkpt>
      <trkpt lat="43.76798" lon="7.17351">
        <ele>338</ele>
        <time>2010-12-19T10:44:44Z</time>
      </trkpt>
      <trkpt lat="43.76806" lon="7.17344">
        <ele>339</ele>
        <time>2010-12-19T10:44:47Z</time>
      </trkpt>
      <trkpt lat="43.76813" lon="7.17336">
        <ele>340</ele>
        <time>2010-12-19T10:44:50Z</time>
      </trkpt>
      <trkpt lat="43.76822" lon="7.17326">
        <ele>341</ele>
        <time>2010-12-19T10:44:52Z</time>
      </trkpt>
      <trkpt lat="43.7683" lon="7.17316">
        <ele>341</ele>
        <time>2010-12-19T10:44:55Z</time>
      </trkpt>
      <trkpt lat="43.76839" lon="7.17308">
        <ele>341</ele>
        <time>2010-12-19T10:44:57Z</time>
      </trkpt>
      <trkpt lat="43.76848" lon="7.173">
        <ele>341</ele>
        <time>2010-12-19T10:45:00Z</time>
      </trkpt>
      <trkpt lat="43.76857" lon="7.17293">
        <ele>341</ele>
        <time>2010-12-19T10:45:02Z</time>
      </trkpt>
      <trkpt lat="43.76867" lon="7.17293">
        <ele>340</ele>
        <time>2010-12-19T10:45:05Z</time>
      </trkpt>
      <trkpt lat="43.76876" lon="7.17297">
        <ele>341</ele>
        <time>2010-12-19T10:45:07Z</time>
      </trkpt>
      <trkpt lat="43.76888" lon="7.17306">
        <ele>341</ele>
        <time>2010-12-19T10:45:11Z</time>
      </trkpt>
      <trkpt lat="43.76899" lon="7.17313">
        <ele>342</ele>
        <time>2010-12-19T10:45:13Z</time>
      </trkpt>
      <trkpt lat="43.76909" lon="7.1732">
        <ele>344</ele>
        <time>2010-12-19T10:45:15Z</time>
      </trkpt>
      <trkpt lat="43.76916" lon="7.17324">
        <ele>344</ele>
        <time>2010-12-19T10:45:17Z</time>
      </trkpt>
      <trkpt lat="43.7692" lon="7.17326">
        <ele>345</ele>
        <time>2010-12-19T10:45:18Z</time>
      </trkpt>
      <trkpt lat="43.76928" lon="7.1733">
        <ele>345</ele>
        <time>2010-12-19T10:45:20Z</time>
      </trkpt>
      <trkpt lat="43.76937" lon="7.17334">
        <ele>346</ele>
        <time>2010-12-19T10:45:22Z</time>
      </trkpt>
      <trkpt lat="43.76945" lon="7.17339">
        <ele>347</ele>
        <time>2010-12-19T10:45:24Z</time>
      </trkpt>
      <trkpt lat="43.76954" lon="7.17343">
        <ele>349</ele>
        <time>2010-12-19T10:45:27Z</time>
      </trkpt>
      <trkpt lat="43.76965" lon="7.17348">
        <ele>350</ele>
        <time>2010-12-19T10:45:29Z</time>
      </trkpt>
      <trkpt lat="43.76968" lon="7.17349">
        <ele>350</ele>
        <time>2010-12-19T10:45:30Z</time>
      </trkpt>
      <trkpt lat="43.76977" lon="7.17354">
        <ele>350</ele>
        <time>2010-12-19T10:45:32Z</time>
      </trkpt>
      <trkpt lat="43.76987" lon="7.17362">
        <ele>350</ele>
        <time>2010-12-19T10:45:34Z</time>
      </trkpt>
      <trkpt lat="43.76996" lon="7.1737">
        <ele>350</ele>
        <time>2010-12-19T10:45:37Z</time>
      </trkpt>
      <trkpt lat="43.77006" lon="7.1738">
        <ele>351</ele>
        <time>2010-12-19T10:45:39Z</time>
      </trkpt>
      <trkpt lat="43.77014" lon="7.17389">
        <ele>350</ele>
        <time>2010-12-19T10:45:42Z</time>
      </trkpt>
      <trkpt lat="43.77024" lon="7.17401">
        <ele>351</ele>
        <time>2010-12-19T10:45:45Z</time>
      </trkpt>
      <trkpt lat="43.77032" lon="7.1741">
        <ele>351</ele>
        <time>2010-12-19T10:45:47Z</time>
      </trkpt>
      <trkpt lat="43.7704" lon="7.17418">
        <ele>351</ele>
        <time>2010-12-19T10:45:49Z</time>
      </trkpt>
      <trkpt lat="43.7705" lon="7.17421">
        <ele>351</ele>
        <time>2010-12-19T10:45:51Z</time>
      </trkpt>
      <trkpt lat="43.77059" lon="7.17419">
        <ele>352</ele>
        <time>2010-12-19T10:45:53Z</time>
      </trkpt>
      <trkpt lat="43.77068" lon="7.17413">
        <ele>353</ele>
        <time>2010-12-19T10:45:56Z</time>
      </trkpt>
      <trkpt lat="43.77076" lon="7.17406">
        <ele>354</ele>
        <time>2010-12-19T10:45:58Z</time>
      </trkpt>
      <trkpt lat="43.77087" lon="7.17402">
        <ele>353</ele>
        <time>2010-12-19T10:46:01Z</time>
      </trkpt>
      <trkpt lat="43.77094" lon="7.17409">
        <ele>354</ele>
        <time>2010-12-19T10:46:03Z</time>
      </trkpt>
      <trkpt lat="43.771" lon="7.17423">
        <ele>354</ele>
        <time>2010-12-19T10:46:06Z</time>
      </trkpt>
      <trkpt lat="43.77105" lon="7.17439">
        <ele>354</ele>
        <time>2010-12-19T10:46:08Z</time>
      </trkpt>
      <trkpt lat="43.77108" lon="7.17455">
        <ele>354</ele>
        <time>2010-12-19T10:46:11Z</time>
      </trkpt>
      <trkpt lat="43.77112" lon="7.17471">
        <ele>353</ele>
        <time>2010-12-19T10:46:13Z</time>
      </trkpt>
      <trkpt lat="43.77118" lon="7.17485">
        <ele>353</ele>
        <time>2010-12-19T10:46:15Z</time>
      </trkpt>
      <trkpt lat="43.77125" lon="7.17496">
        <ele>353</ele>
        <time>2010-12-19T10:46:17Z</time>
      </trkpt>
      <trkpt lat="43.77132" lon="7.17506">
        <ele>353</ele>
        <time>2010-12-19T10:46:19Z</time>
      </trkpt>
      <trkpt lat="43.77139" lon="7.17516">
        <ele>354</ele>
        <time>2010-12-19T10:46:21Z</time>
      </trkpt>
      <trkpt lat="43.77146" lon="7.17529">
        <ele>353</ele>
        <time>2010-12-19T10:46:24Z</time>
      </trkpt>
      <trkpt lat="43.7715" lon="7.17545">
        <ele>354</ele>
        <time>2010-12-19T10:46:27Z</time>
      </trkpt>
      <trkpt lat="43.77153" lon="7.17556">
        <ele>355</ele>
        <time>2010-12-19T10:46:29Z</time>
      </trkpt>
      <trkpt lat="43.77156" lon="7.17569">
        <ele>356</ele>
        <time>2010-12-19T10:46:32Z</time>
      </trkpt>
      <trkpt lat="43.77159" lon="7.17581">
        <ele>356</ele>
        <time>2010-12-19T10:46:34Z</time>
      </trkpt>
      <trkpt lat="43.77162" lon="7.17595">
        <ele>356</ele>
        <time>2010-12-19T10:46:37Z</time>
      </trkpt>
      <trkpt lat="43.77161" lon="7.17608">
        <ele>355</ele>
        <time>2010-12-19T10:46:40Z</time>
      </trkpt>
      <trkpt lat="43.7716" lon="7.17623">
        <ele>355</ele>
        <time>2010-12-19T10:46:43Z</time>
      </trkpt>
      <trkpt lat="43.77159" lon="7.17637">
        <ele>355</ele>
        <time>2010-12-19T10:46:46Z</time>
      </trkpt>
      <trkpt lat="43.77161" lon="7.17653">
        <ele>356</ele>
        <time>2010-12-19T10:46:49Z</time>
      </trkpt>
      <trkpt lat="43.77166" lon="7.17664">
        <ele>357</ele>
        <time>2010-12-19T10:46:51Z</time>
      </trkpt>
      <trkpt lat="43.77173" lon="7.17672">
        <ele>356</ele>
        <time>2010-12-19T10:46:53Z</time>
      </trkpt>
      <trkpt lat="43.77181" lon="7.17678">
        <ele>356</ele>
        <time>2010-12-19T10:46:55Z</time>
      </trkpt>
      <trkpt lat="43.7719" lon="7.17685">
        <ele>357</ele>
        <time>2010-12-19T10:46:58Z</time>
      </trkpt>
      <trkpt lat="43.77199" lon="7.17691">
        <ele>357</ele>
        <time>2010-12-19T10:47:00Z</time>
      </trkpt>
      <trkpt lat="43.77208" lon="7.17698">
        <ele>357</ele>
        <time>2010-12-19T10:47:02Z</time>
      </trkpt>
      <trkpt lat="43.77217" lon="7.17704">
        <ele>358</ele>
        <time>2010-12-19T10:47:04Z</time>
      </trkpt>
      <trkpt lat="43.77226" lon="7.1771">
        <ele>358</ele>
        <time>2010-12-19T10:47:07Z</time>
      </trkpt>
      <trkpt lat="43.77234" lon="7.17716">
        <ele>357</ele>
        <time>2010-12-19T10:47:09Z</time>
      </trkpt>
      <trkpt lat="43.77243" lon="7.17722">
        <ele>358</ele>
        <time>2010-12-19T10:47:11Z</time>
      </trkpt>
      <trkpt lat="43.77251" lon="7.17727">
        <ele>357</ele>
        <time>2010-12-19T10:47:13Z</time>
      </trkpt>
      <trkpt lat="43.77261" lon="7.17734">
        <ele>358</ele>
        <time>2010-12-19T10:47:16Z</time>
      </trkpt>
      <trkpt lat="43.77272" lon="7.17739">
        <ele>358</ele>
        <time>2010-12-19T10:47:19Z</time>
      </trkpt>
      <trkpt lat="43.77282" lon="7.17741">
        <ele>359</ele>
        <time>2010-12-19T10:47:21Z</time>
      </trkpt>
      <trkpt lat="43.77293" lon="7.17745">
        <ele>360</ele>
        <time>2010-12-19T10:47:23Z</time>
      </trkpt>
      <trkpt lat="43.77302" lon="7.1775">
        <ele>359</ele>
        <time>2010-12-19T10:47:26Z</time>
      </trkpt>
      <trkpt lat="43.77311" lon="7.17755">
        <ele>360</ele>
        <time>2010-12-19T10:47:28Z</time>
      </trkpt>
      <trkpt lat="43.7732" lon="7.17761">
        <ele>360</ele>
        <time>2010-12-19T10:47:30Z</time>
      </trkpt>
      <trkpt lat="43.77329" lon="7.17767">
        <ele>360</ele>
        <time>2010-12-19T10:47:32Z</time>
      </trkpt>
      <trkpt lat="43.77331" lon="7.17769">
        <ele>360</ele>
        <time>2010-12-19T10:47:33Z</time>
      </trkpt>
      <trkpt lat="43.7734" lon="7.17774">
        <ele>361</ele>
        <time>2010-12-19T10:47:35Z</time>
      </trkpt>
      <trkpt lat="43.77349" lon="7.17775">
        <ele>362</ele>
        <time>2010-12-19T10:47:37Z</time>
      </trkpt>
      <trkpt lat="43.77358" lon="7.17775">
        <ele>363</ele>
        <time>2010-12-19T10:47:39Z</time>
      </trkpt>
      <trkpt lat="43.77367" lon="7.17775">
        <ele>364</ele>
        <time>2010-12-19T10:47:41Z</time>
      </trkpt>
      <trkpt lat="43.77377" lon="7.17774">
        <ele>365</ele>
        <time>2010-12-19T10:47:44Z</time>
      </trkpt>
      <trkpt lat="43.77387" lon="7.17778">
        <ele>366</ele>
        <time>2010-12-19T10:47:46Z</time>
      </trkpt>
      <trkpt lat="43.77394" lon="7.17788">
        <ele>366</ele>
        <time>2010-12-19T10:47:48Z</time>
      </trkpt>
      <trkpt lat="43.77401" lon="7.17801">
        <ele>367</ele>
        <time>2010-12-19T10:47:51Z</time>
      </trkpt>
      <trkpt lat="43.77405" lon="7.17813">
        <ele>368</ele>
        <time>2010-12-19T10:47:53Z</time>
      </trkpt>
      <trkpt lat="43.77409" lon="7.17825">
        <ele>368</ele>
        <time>2010-12-19T10:47:55Z</time>
      </trkpt>
      <trkpt lat="43.77412" lon="7.17837">
        <ele>369</ele>
        <time>2010-12-19T10:47:57Z</time>
      </trkpt>
      <trkpt lat="43.77415" lon="7.1785">
        <ele>370</ele>
        <time>2010-12-19T10:48:00Z</time>
      </trkpt>
      <trkpt lat="43.77418" lon="7.17864">
        <ele>371</ele>
        <time>2010-12-19T10:48:02Z</time>
      </trkpt>
      <trkpt lat="43.77423" lon="7.17878">
        <ele>371</ele>
        <time>2010-12-19T10:48:04Z</time>
      </trkpt>
      <trkpt lat="43.77429" lon="7.17892">
        <ele>370</ele>
        <time>2010-12-19T10:48:06Z</time>
      </trkpt>
      <trkpt lat="43.77437" lon="7.17903">
        <ele>369</ele>
        <time>2010-12-19T10:48:08Z</time>
      </trkpt>
      <trkpt lat="43.77439" lon="7.17907">
        <ele>370</ele>
        <time>2010-12-19T10:48:09Z</time>
      </trkpt>
      <trkpt lat="43.77449" lon="7.17919">
        <ele>370</ele>
        <time>2010-12-19T10:48:12Z</time>
      </trkpt>
      <trkpt lat="43.77455" lon="7.17926">
        <ele>371</ele>
        <time>2010-12-19T10:48:13Z</time>
      </trkpt>
      <trkpt lat="43.77463" lon="7.17935">
        <ele>371</ele>
        <time>2010-12-19T10:48:15Z</time>
      </trkpt>
      <trkpt lat="43.77471" lon="7.17945">
        <ele>371</ele>
        <time>2010-12-19T10:48:18Z</time>
      </trkpt>
      <trkpt lat="43.77479" lon="7.17956">
        <ele>372</ele>
        <time>2010-12-19T10:48:20Z</time>
      </trkpt>
      <trkpt lat="43.77488" lon="7.17966">
        <ele>371</ele>
        <time>2010-12-19T10:48:22Z</time>
      </trkpt>
      <trkpt lat="43.77495" lon="7.17976">
        <ele>371</ele>
        <time>2010-12-19T10:48:24Z</time>
      </trkpt>
      <trkpt lat="43.77505" lon="7.17983">
        <ele>371</ele>
        <time>2010-12-19T10:48:26Z</time>
      </trkpt>
      <trkpt lat="43.77516" lon="7.17988">
        <ele>371</ele>
        <time>2010-12-19T10:48:28Z</time>
      </trkpt>
      <trkpt lat="43.77527" lon="7.17992">
        <ele>371</ele>
        <time>2010-12-19T10:48:31Z</time>
      </trkpt>
      <trkpt lat="43.77537" lon="7.17995">
        <ele>371</ele>
        <time>2010-12-19T10:48:33Z</time>
      </trkpt>
      <trkpt lat="43.77547" lon="7.17996">
        <ele>371</ele>
        <time>2010-12-19T10:48:35Z</time>
      </trkpt>
      <trkpt lat="43.77558" lon="7.17997">
        <ele>370</ele>
        <time>2010-12-19T10:48:38Z</time>
      </trkpt>
      <trkpt lat="43.77568" lon="7.17992">
        <ele>370</ele>
        <time>2010-12-19T10:48:40Z</time>
      </trkpt>
      <trkpt lat="43.77577" lon="7.17984">
        <ele>370</ele>
        <time>2010-12-19T10:48:42Z</time>
      </trkpt>
      <trkpt lat="43.77586" lon="7.17978">
        <ele>370</ele>
        <time>2010-12-19T10:48:45Z</time>
      </trkpt>
      <trkpt lat="43.77595" lon="7.17972">
        <ele>369</ele>
        <time>2010-12-19T10:48:47Z</time>
      </trkpt>
      <trkpt lat="43.77604" lon="7.17966">
        <ele>368</ele>
        <time>2010-12-19T10:48:49Z</time>
      </trkpt>
      <trkpt lat="43.77613" lon="7.17959">
        <ele>368</ele>
        <time>2010-12-19T10:48:51Z</time>
      </trkpt>
      <trkpt lat="43.77622" lon="7.17952">
        <ele>369</ele>
        <time>2010-12-19T10:48:53Z</time>
      </trkpt>
      <trkpt lat="43.7763" lon="7.17944">
        <ele>369</ele>
        <time>2010-12-19T10:48:55Z</time>
      </trkpt>
      <trkpt lat="43.77639" lon="7.17936">
        <ele>369</ele>
        <time>2010-12-19T10:48:58Z</time>
      </trkpt>
      <trkpt lat="43.77649" lon="7.17927">
        <ele>369</ele>
        <time>2010-12-19T10:49:00Z</time>
      </trkpt>
      <trkpt lat="43.77658" lon="7.17917">
        <ele>369</ele>
        <time>2010-12-19T10:49:02Z</time>
      </trkpt>
      <trkpt lat="43.77668" lon="7.17907">
        <ele>368</ele>
        <time>2010-12-19T10:49:04Z</time>
      </trkpt>
      <trkpt lat="43.77677" lon="7.17896">
        <ele>367</ele>
        <time>2010-12-19T10:49:06Z</time>
      </trkpt>
      <trkpt lat="43.77683" lon="7.17889">
        <ele>367</ele>
        <time>2010-12-19T10:49:08Z</time>
      </trkpt>
      <trkpt lat="43.77693" lon="7.17878">
        <ele>367</ele>
        <time>2010-12-19T10:49:10Z</time>
      </trkpt>
      <trkpt lat="43.77702" lon="7.17867">
        <ele>366</ele>
        <time>2010-12-19T10:49:12Z</time>
      </trkpt>
      <trkpt lat="43.7771" lon="7.17856">
        <ele>365</ele>
        <time>2010-12-19T10:49:14Z</time>
      </trkpt>
      <trkpt lat="43.77719" lon="7.17847">
        <ele>364</ele>
        <time>2010-12-19T10:49:17Z</time>
      </trkpt>
      <trkpt lat="43.77728" lon="7.17846">
        <ele>365</ele>
        <time>2010-12-19T10:49:19Z</time>
      </trkpt>
      <trkpt lat="43.77738" lon="7.1785">
        <ele>364</ele>
        <time>2010-12-19T10:49:21Z</time>
      </trkpt>
      <trkpt lat="43.77746" lon="7.17861">
        <ele>365</ele>
        <time>2010-12-19T10:49:24Z</time>
      </trkpt>
      <trkpt lat="43.77753" lon="7.17875">
        <ele>366</ele>
        <time>2010-12-19T10:49:27Z</time>
      </trkpt>
      <trkpt lat="43.77758" lon="7.17888">
        <ele>367</ele>
        <time>2010-12-19T10:49:29Z</time>
      </trkpt>
      <trkpt lat="43.77763" lon="7.17901">
        <ele>367</ele>
        <time>2010-12-19T10:49:31Z</time>
      </trkpt>
      <trkpt lat="43.77767" lon="7.17913">
        <ele>368</ele>
        <time>2010-12-19T10:49:33Z</time>
      </trkpt>
      <trkpt lat="43.7777" lon="7.17928">
        <ele>368</ele>
        <time>2010-12-19T10:49:36Z</time>
      </trkpt>
      <trkpt lat="43.77773" lon="7.17941">
        <ele>368</ele>
        <time>2010-12-19T10:49:38Z</time>
      </trkpt>
      <trkpt lat="43.77775" lon="7.17955">
        <ele>367</ele>
        <time>2010-12-19T10:49:40Z</time>
      </trkpt>
      <trkpt lat="43.77779" lon="7.17969">
        <ele>367</ele>
        <time>2010-12-19T10:49:42Z</time>
      </trkpt>
      <trkpt lat="43.77785" lon="7.17982">
        <ele>368</ele>
        <time>2010-12-19T10:49:44Z</time>
      </trkpt>
      <trkpt lat="43.77793" lon="7.17993">
        <ele>368</ele>
        <time>2010-12-19T10:49:46Z</time>
      </trkpt>
      <trkpt lat="43.778" lon="7.18003">
        <ele>368</ele>
        <time>2010-12-19T10:49:48Z</time>
      </trkpt>
      <trkpt lat="43.77811" lon="7.18006">
        <ele>368</ele>
        <time>2010-12-19T10:49:51Z</time>
      </trkpt>
      <trkpt lat="43.77821" lon="7.18008">
        <ele>368</ele>
        <time>2010-12-19T10:49:53Z</time>
      </trkpt>
      <trkpt lat="43.77831" lon="7.18007">
        <ele>367</ele>
        <time>2010-12-19T10:49:55Z</time>
      </trkpt>
      <trkpt lat="43.77841" lon="7.18004">
        <ele>367</ele>
        <time>2010-12-19T10:49:57Z</time>
      </trkpt>
      <trkpt lat="43.77852" lon="7.18">
        <ele>368</ele>
        <time>2010-12-19T10:50:00Z</time>
      </trkpt>
      <trkpt lat="43.77862" lon="7.17991">
        <ele>369</ele>
        <time>2010-12-19T10:50:03Z</time>
      </trkpt>
      <trkpt lat="43.77871" lon="7.17983">
        <ele>369</ele>
        <time>2010-12-19T10:50:06Z</time>
      </trkpt>
      <trkpt lat="43.77881" lon="7.17974">
        <ele>369</ele>
        <time>2010-12-19T10:50:09Z</time>
      </trkpt>
      <trkpt lat="43.77891" lon="7.17966">
        <ele>369</ele>
        <time>2010-12-19T10:50:11Z</time>
      </trkpt>
      <trkpt lat="43.779" lon="7.1796">
        <ele>369</ele>
        <time>2010-12-19T10:50:14Z</time>
      </trkpt>
      <trkpt lat="43.77909" lon="7.17955">
        <ele>370</ele>
        <time>2010-12-19T10:50:16Z</time>
      </trkpt>
      <trkpt lat="43.77918" lon="7.17955">
        <ele>371</ele>
        <time>2010-12-19T10:50:18Z</time>
      </trkpt>
      <trkpt lat="43.77928" lon="7.17957">
        <ele>372</ele>
        <time>2010-12-19T10:50:20Z</time>
      </trkpt>
      <trkpt lat="43.77937" lon="7.17962">
        <ele>373</ele>
        <time>2010-12-19T10:50:22Z</time>
      </trkpt>
      <trkpt lat="43.77945" lon="7.1797">
        <ele>373</ele>
        <time>2010-12-19T10:50:24Z</time>
      </trkpt>
      <trkpt lat="43.77953" lon="7.17979">
        <ele>373</ele>
        <time>2010-12-19T10:50:26Z</time>
      </trkpt>
      <trkpt lat="43.77961" lon="7.17989">
        <ele>374</ele>
        <time>2010-12-19T10:50:29Z</time>
      </trkpt>
      <trkpt lat="43.7797" lon="7.17998">
        <ele>374</ele>
        <time>2010-12-19T10:50:31Z</time>
      </trkpt>
      <trkpt lat="43.77981" lon="7.18002">
        <ele>373</ele>
        <time>2010-12-19T10:50:33Z</time>
      </trkpt>
      <trkpt lat="43.77993" lon="7.18002">
        <ele>373</ele>
        <time>2010-12-19T10:50:35Z</time>
      </trkpt>
      <trkpt lat="43.78004" lon="7.18001">
        <ele>372</ele>
        <time>2010-12-19T10:50:37Z</time>
      </trkpt>
      <trkpt lat="43.78014" lon="7.18001">
        <ele>372</ele>
        <time>2010-12-19T10:50:39Z</time>
      </trkpt>
      <trkpt lat="43.78025" lon="7.18001">
        <ele>373</ele>
        <time>2010-12-19T10:50:42Z</time>
      </trkpt>
      <trkpt lat="43.78035" lon="7.18002">
        <ele>372</ele>
        <time>2010-12-19T10:50:44Z</time>
      </trkpt>
      <trkpt lat="43.78045" lon="7.18008">
        <ele>373</ele>
        <time>2010-12-19T10:50:46Z</time>
      </trkpt>
      <trkpt lat="43.78047" lon="7.18011">
        <ele>373</ele>
        <time>2010-12-19T10:50:47Z</time>
      </trkpt>
      <trkpt lat="43.78055" lon="7.1802">
        <ele>373</ele>
        <time>2010-12-19T10:50:49Z</time>
      </trkpt>
      <trkpt lat="43.78062" lon="7.18031">
        <ele>373</ele>
        <time>2010-12-19T10:50:51Z</time>
      </trkpt>
      <trkpt lat="43.78068" lon="7.18042">
        <ele>373</ele>
        <time>2010-12-19T10:50:53Z</time>
      </trkpt>
      <trkpt lat="43.78075" lon="7.18052">
        <ele>374</ele>
        <time>2010-12-19T10:50:55Z</time>
      </trkpt>
      <trkpt lat="43.78083" lon="7.18061">
        <ele>374</ele>
        <time>2010-12-19T10:50:57Z</time>
      </trkpt>
      <trkpt lat="43.78086" lon="7.18063">
        <ele>375</ele>
        <time>2010-12-19T10:50:58Z</time>
      </trkpt>
      <trkpt lat="43.78096" lon="7.18067">
        <ele>375</ele>
        <time>2010-12-19T10:51:00Z</time>
      </trkpt>
      <trkpt lat="43.78107" lon="7.18066">
        <ele>375</ele>
        <time>2010-12-19T10:51:02Z</time>
      </trkpt>
      <trkpt lat="43.78118" lon="7.18063">
        <ele>374</ele>
        <time>2010-12-19T10:51:05Z</time>
      </trkpt>
      <trkpt lat="43.78128" lon="7.18059">
        <ele>374</ele>
        <time>2010-12-19T10:51:07Z</time>
      </trkpt>
      <trkpt lat="43.78138" lon="7.18054">
        <ele>374</ele>
        <time>2010-12-19T10:51:09Z</time>
      </trkpt>
      <trkpt lat="43.78145" lon="7.18043">
        <ele>373</ele>
        <time>2010-12-19T10:51:11Z</time>
      </trkpt>
      <trkpt lat="43.78152" lon="7.18032">
        <ele>373</ele>
        <time>2010-12-19T10:51:13Z</time>
      </trkpt>
      <trkpt lat="43.78158" lon="7.1802">
        <ele>373</ele>
        <time>2010-12-19T10:51:15Z</time>
      </trkpt>
      <trkpt lat="43.78164" lon="7.18008">
        <ele>374</ele>
        <time>2010-12-19T10:51:17Z</time>
      </trkpt>
      <trkpt lat="43.7817" lon="7.17995">
        <ele>374</ele>
        <time>2010-12-19T10:51:20Z</time>
      </trkpt>
      <trkpt lat="43.78177" lon="7.17983">
        <ele>374</ele>
        <time>2010-12-19T10:51:22Z</time>
      </trkpt>
      <trkpt lat="43.78183" lon="7.17971">
        <ele>373</ele>
        <time>2010-12-19T10:51:24Z</time>
      </trkpt>
      <trkpt lat="43.7819" lon="7.1796">
        <ele>372</ele>
        <time>2010-12-19T10:51:26Z</time>
      </trkpt>
      <trkpt lat="43.78198" lon="7.1795">
        <ele>372</ele>
        <time>2010-12-19T10:51:28Z</time>
      </trkpt>
      <trkpt lat="43.78205" lon="7.17939">
        <ele>372</ele>
        <time>2010-12-19T10:51:31Z</time>
      </trkpt>
      <trkpt lat="43.78212" lon="7.17928">
        <ele>371</ele>
        <time>2010-12-19T10:51:33Z</time>
      </trkpt>
      <trkpt lat="43.78219" lon="7.17917">
        <ele>371</ele>
        <time>2010-12-19T10:51:35Z</time>
      </trkpt>
      <trkpt lat="43.78225" lon="7.17905">
        <ele>370</ele>
        <time>2010-12-19T10:51:37Z</time>
      </trkpt>
      <trkpt lat="43.7823" lon="7.17891">
        <ele>370</ele>
        <time>2010-12-19T10:51:39Z</time>
      </trkpt>
      <trkpt lat="43.78232" lon="7.17877">
        <ele>371</ele>
        <time>2010-12-19T10:51:42Z</time>
      </trkpt>
      <trkpt lat="43.78233" lon="7.17862">
        <ele>372</ele>
        <time>2010-12-19T10:51:44Z</time>
      </trkpt>
      <trkpt lat="43.78233" lon="7.17847">
        <ele>372</ele>
        <time>2010-12-19T10:51:46Z</time>
      </trkpt>
      <trkpt lat="43.78232" lon="7.17832">
        <ele>373</ele>
        <time>2010-12-19T10:51:48Z</time>
      </trkpt>
      <trkpt lat="43.78231" lon="7.17818">
        <ele>373</ele>
        <time>2010-12-19T10:51:50Z</time>
      </trkpt>
      <trkpt lat="43.7823" lon="7.17804">
        <ele>372</ele>
        <time>2010-12-19T10:51:53Z</time>
      </trkpt>
      <trkpt lat="43.78229" lon="7.17789">
        <ele>373</ele>
        <time>2010-12-19T10:51:55Z</time>
      </trkpt>
      <trkpt lat="43.78227" lon="7.17775">
        <ele>373</ele>
        <time>2010-12-19T10:51:57Z</time>
      </trkpt>
      <trkpt lat="43.78226" lon="7.17761">
        <ele>373</ele>
        <time>2010-12-19T10:51:59Z</time>
      </trkpt>
      <trkpt lat="43.78226" lon="7.17747">
        <ele>373</ele>
        <time>2010-12-19T10:52:01Z</time>
      </trkpt>
      <trkpt lat="43.78224" lon="7.17733">
        <ele>375</ele>
        <time>2010-12-19T10:52:03Z</time>
      </trkpt>
      <trkpt lat="43.78222" lon="7.17719">
        <ele>376</ele>
        <time>2010-12-19T10:52:05Z</time>
      </trkpt>
      <trkpt lat="43.78221" lon="7.17705">
        <ele>376</ele>
        <time>2010-12-19T10:52:08Z</time>
      </trkpt>
      <trkpt lat="43.7823" lon="7.17694">
        <ele>378</ele>
        <time>2010-12-19T10:52:11Z</time>
      </trkpt>
      <trkpt lat="43.78242" lon="7.17693">
        <ele>378</ele>
        <time>2010-12-19T10:52:13Z</time>
      </trkpt>
      <trkpt lat="43.78252" lon="7.17698">
        <ele>379</ele>
        <time>2010-12-19T10:52:16Z</time>
      </trkpt>
      <trkpt lat="43.78261" lon="7.17703">
        <ele>379</ele>
        <time>2010-12-19T10:52:18Z</time>
      </trkpt>
      <trkpt lat="43.7827" lon="7.17708">
        <ele>380</ele>
        <time>2010-12-19T10:52:20Z</time>
      </trkpt>
      <trkpt lat="43.78279" lon="7.17714">
        <ele>380</ele>
        <time>2010-12-19T10:52:22Z</time>
      </trkpt>
      <trkpt lat="43.78287" lon="7.17721">
        <ele>379</ele>
        <time>2010-12-19T10:52:25Z</time>
      </trkpt>
      <trkpt lat="43.78299" lon="7.17726">
        <ele>380</ele>
        <time>2010-12-19T10:52:28Z</time>
      </trkpt>
      <trkpt lat="43.78305" lon="7.17726">
        <ele>380</ele>
        <time>2010-12-19T10:52:29Z</time>
      </trkpt>
      <trkpt lat="43.78314" lon="7.17722">
        <ele>381</ele>
        <time>2010-12-19T10:52:31Z</time>
      </trkpt>
      <trkpt lat="43.78323" lon="7.17714">
        <ele>381</ele>
        <time>2010-12-19T10:52:34Z</time>
      </trkpt>
      <trkpt lat="43.78331" lon="7.17707">
        <ele>381</ele>
        <time>2010-12-19T10:52:37Z</time>
      </trkpt>
      <trkpt lat="43.7834" lon="7.177">
        <ele>382</ele>
        <time>2010-12-19T10:52:40Z</time>
      </trkpt>
      <trkpt lat="43.78349" lon="7.17695">
        <ele>382</ele>
        <time>2010-12-19T10:52:42Z</time>
      </trkpt>
      <trkpt lat="43.7836" lon="7.1769">
        <ele>383</ele>
        <time>2010-12-19T10:52:44Z</time>
      </trkpt>
      <trkpt lat="43.78372" lon="7.17685">
        <ele>383</ele>
        <time>2010-12-19T10:52:46Z</time>
      </trkpt>
      <trkpt lat="43.78379" lon="7.17682">
        <ele>383</ele>
        <time>2010-12-19T10:52:48Z</time>
      </trkpt>
      <trkpt lat="43.78391" lon="7.17681">
        <ele>383</ele>
        <time>2010-12-19T10:52:50Z</time>
      </trkpt>
      <trkpt lat="43.78401" lon="7.17686">
        <ele>383</ele>
        <time>2010-12-19T10:52:52Z</time>
      </trkpt>
      <trkpt lat="43.78408" lon="7.17695">
        <ele>384</ele>
        <time>2010-12-19T10:52:55Z</time>
      </trkpt>
      <trkpt lat="43.78412" lon="7.17709">
        <ele>386</ele>
        <time>2010-12-19T10:52:58Z</time>
      </trkpt>
      <trkpt lat="43.78415" lon="7.17725">
        <ele>386</ele>
        <time>2010-12-19T10:53:01Z</time>
      </trkpt>
      <trkpt lat="43.78418" lon="7.17737">
        <ele>387</ele>
        <time>2010-12-19T10:53:03Z</time>
      </trkpt>
      <trkpt lat="43.78421" lon="7.1775">
        <ele>387</ele>
        <time>2010-12-19T10:53:05Z</time>
      </trkpt>
      <trkpt lat="43.78422" lon="7.17763">
        <ele>387</ele>
        <time>2010-12-19T10:53:07Z</time>
      </trkpt>
      <trkpt lat="43.78419" lon="7.17777">
        <ele>387</ele>
        <time>2010-12-19T10:53:09Z</time>
      </trkpt>
      <trkpt lat="43.78416" lon="7.17792">
        <ele>387</ele>
        <time>2010-12-19T10:53:11Z</time>
      </trkpt>
      <trkpt lat="43.78412" lon="7.17807">
        <ele>388</ele>
        <time>2010-12-19T10:53:14Z</time>
      </trkpt>
      <trkpt lat="43.7841" lon="7.17822">
        <ele>388</ele>
        <time>2010-12-19T10:53:16Z</time>
      </trkpt>
      <trkpt lat="43.78407" lon="7.17837">
        <ele>388</ele>
        <time>2010-12-19T10:53:18Z</time>
      </trkpt>
      <trkpt lat="43.78405" lon="7.17851">
        <ele>390</ele>
        <time>2010-12-19T10:53:20Z</time>
      </trkpt>
      <trkpt lat="43.78403" lon="7.17867">
        <ele>392</ele>
        <time>2010-12-19T10:53:22Z</time>
      </trkpt>
      <trkpt lat="43.784" lon="7.17882">
        <ele>393</ele>
        <time>2010-12-19T10:53:24Z</time>
      </trkpt>
      <trkpt lat="43.78398" lon="7.17897">
        <ele>393</ele>
        <time>2010-12-19T10:53:26Z</time>
      </trkpt>
      <trkpt lat="43.78396" lon="7.17911">
        <ele>394</ele>
        <time>2010-12-19T10:53:29Z</time>
      </trkpt>
      <trkpt lat="43.78395" lon="7.17926">
        <ele>395</ele>
        <time>2010-12-19T10:53:31Z</time>
      </trkpt>
      <trkpt lat="43.78396" lon="7.17941">
        <ele>396</ele>
        <time>2010-12-19T10:53:33Z</time>
      </trkpt>
      <trkpt lat="43.78399" lon="7.17953">
        <ele>396</ele>
        <time>2010-12-19T10:53:35Z</time>
      </trkpt>
      <trkpt lat="43.78409" lon="7.1796">
        <ele>396</ele>
        <time>2010-12-19T10:53:38Z</time>
      </trkpt>
      <trkpt lat="43.7842" lon="7.17965">
        <ele>396</ele>
        <time>2010-12-19T10:53:41Z</time>
      </trkpt>
      <trkpt lat="43.78429" lon="7.17969">
        <ele>396</ele>
        <time>2010-12-19T10:53:43Z</time>
      </trkpt>
      <trkpt lat="43.78438" lon="7.17974">
        <ele>396</ele>
        <time>2010-12-19T10:53:45Z</time>
      </trkpt>
      <trkpt lat="43.78447" lon="7.17977">
        <ele>397</ele>
        <time>2010-12-19T10:53:47Z</time>
      </trkpt>
      <trkpt lat="43.78458" lon="7.17978">
        <ele>397</ele>
        <time>2010-12-19T10:53:50Z</time>
      </trkpt>
      <trkpt lat="43.78468" lon="7.17977">
        <ele>396</ele>
        <time>2010-12-19T10:53:52Z</time>
      </trkpt>
      <trkpt lat="43.78478" lon="7.17974">
        <ele>396</ele>
        <time>2010-12-19T10:53:54Z</time>
      </trkpt>
      <trkpt lat="43.78488" lon="7.1797">
        <ele>395</ele>
        <time>2010-12-19T10:53:56Z</time>
      </trkpt>
      <trkpt lat="43.78498" lon="7.17967">
        <ele>395</ele>
        <time>2010-12-19T10:53:58Z</time>
      </trkpt>
      <trkpt lat="43.78501" lon="7.17965">
        <ele>394</ele>
        <time>2010-12-19T10:53:59Z</time>
      </trkpt>
      <trkpt lat="43.7851" lon="7.1796">
        <ele>394</ele>
        <time>2010-12-19T10:54:01Z</time>
      </trkpt>
      <trkpt lat="43.78518" lon="7.17952">
        <ele>394</ele>
        <time>2010-12-19T10:54:03Z</time>
      </trkpt>
      <trkpt lat="43.78527" lon="7.17945">
        <ele>395</ele>
        <time>2010-12-19T10:54:05Z</time>
      </trkpt>
      <trkpt lat="43.78534" lon="7.17937">
        <ele>395</ele>
        <time>2010-12-19T10:54:07Z</time>
      </trkpt>
      <trkpt lat="43.78541" lon="7.17928">
        <ele>395</ele>
        <time>2010-12-19T10:54:10Z</time>
      </trkpt>
      <trkpt lat="43.78546" lon="7.17923">
        <ele>395</ele>
        <time>2010-12-19T10:54:11Z</time>
      </trkpt>
      <trkpt lat="43.78553" lon="7.17914">
        <ele>396</ele>
        <time>2010-12-19T10:54:13Z</time>
      </trkpt>
      <trkpt lat="43.7856" lon="7.17906">
        <ele>397</ele>
        <time>2010-12-19T10:54:15Z</time>
      </trkpt>
      <trkpt lat="43.78567" lon="7.17897">
        <ele>396</ele>
        <time>2010-12-19T10:54:18Z</time>
      </trkpt>
      <trkpt lat="43.78575" lon="7.1789">
        <ele>396</ele>
        <time>2010-12-19T10:54:20Z</time>
      </trkpt>
      <trkpt lat="43.78585" lon="7.17887">
        <ele>395</ele>
        <time>2010-12-19T10:54:22Z</time>
      </trkpt>
      <trkpt lat="43.78589" lon="7.17886">
        <ele>396</ele>
        <time>2010-12-19T10:54:23Z</time>
      </trkpt>
      <trkpt lat="43.786" lon="7.17888">
        <ele>395</ele>
        <time>2010-12-19T10:54:25Z</time>
      </trkpt>
      <trkpt lat="43.78612" lon="7.17891">
        <ele>395</ele>
        <time>2010-12-19T10:54:27Z</time>
      </trkpt>
      <trkpt lat="43.78624" lon="7.17895">
        <ele>395</ele>
        <time>2010-12-19T10:54:29Z</time>
      </trkpt>
      <trkpt lat="43.78634" lon="7.17901">
        <ele>395</ele>
        <time>2010-12-19T10:54:32Z</time>
      </trkpt>
      <trkpt lat="43.78644" lon="7.1791">
        <ele>395</ele>
        <time>2010-12-19T10:54:34Z</time>
      </trkpt>
      <trkpt lat="43.7865" lon="7.17921">
        <ele>396</ele>
        <time>2010-12-19T10:54:36Z</time>
      </trkpt>
      <trkpt lat="43.78653" lon="7.17935">
        <ele>396</ele>
        <time>2010-12-19T10:54:38Z</time>
      </trkpt>
      <trkpt lat="43.78655" lon="7.17949">
        <ele>396</ele>
        <time>2010-12-19T10:54:40Z</time>
      </trkpt>
      <trkpt lat="43.78657" lon="7.17963">
        <ele>396</ele>
        <time>2010-12-19T10:54:43Z</time>
      </trkpt>
      <trkpt lat="43.7866" lon="7.17978">
        <ele>396</ele>
        <time>2010-12-19T10:54:45Z</time>
      </trkpt>
      <trkpt lat="43.78662" lon="7.17992">
        <ele>395</ele>
        <time>2010-12-19T10:54:47Z</time>
      </trkpt>
      <trkpt lat="43.78665" lon="7.18006">
        <ele>395</ele>
        <time>2010-12-19T10:54:49Z</time>
      </trkpt>
      <trkpt lat="43.78669" lon="7.1802">
        <ele>395</ele>
        <time>2010-12-19T10:54:51Z</time>
      </trkpt>
      <trkpt lat="43.78673" lon="7.18033">
        <ele>396</ele>
        <time>2010-12-19T10:54:54Z</time>
      </trkpt>
      <trkpt lat="43.78677" lon="7.18046">
        <ele>397</ele>
        <time>2010-12-19T10:54:56Z</time>
      </trkpt>
      <trkpt lat="43.7868" lon="7.18059">
        <ele>397</ele>
        <time>2010-12-19T10:54:58Z</time>
      </trkpt>
      <trkpt lat="43.78682" lon="7.18073">
        <ele>397</ele>
        <time>2010-12-19T10:55:00Z</time>
      </trkpt>
      <trkpt lat="43.78679" lon="7.18086">
        <ele>397</ele>
        <time>2010-12-19T10:55:02Z</time>
      </trkpt>
      <trkpt lat="43.78674" lon="7.18099">
        <ele>397</ele>
        <time>2010-12-19T10:55:05Z</time>
      </trkpt>
      <trkpt lat="43.78669" lon="7.18111">
        <ele>397</ele>
        <time>2010-12-19T10:55:07Z</time>
      </trkpt>
      <trkpt lat="43.78664" lon="7.18125">
        <ele>397</ele>
        <time>2010-12-19T10:55:09Z</time>
      </trkpt>
      <trkpt lat="43.78657" lon="7.18138">
        <ele>398</ele>
        <time>2010-12-19T10:55:11Z</time>
      </trkpt>
      <trkpt lat="43.7865" lon="7.18149">
        <ele>398</ele>
        <time>2010-12-19T10:55:13Z</time>
      </trkpt>
      <trkpt lat="43.78642" lon="7.1816">
        <ele>398</ele>
        <time>2010-12-19T10:55:16Z</time>
      </trkpt>
      <trkpt lat="43.78635" lon="7.18169">
        <ele>397</ele>
        <time>2010-12-19T10:55:18Z</time>
      </trkpt>
      <trkpt lat="43.78629" lon="7.18181">
        <ele>398</ele>
        <time>2010-12-19T10:55:20Z</time>
      </trkpt>
      <trkpt lat="43.78625" lon="7.18194">
        <ele>399</ele>
        <time>2010-12-19T10:55:22Z</time>
      </trkpt>
      <trkpt lat="43.78622" lon="7.18208">
        <ele>399</ele>
        <time>2010-12-19T10:55:25Z</time>
      </trkpt>
      <trkpt lat="43.7862" lon="7.18222">
        <ele>400</ele>
        <time>2010-12-19T10:55:27Z</time>
      </trkpt>
      <trkpt lat="43.78626" lon="7.18235">
        <ele>400</ele>
        <time>2010-12-19T10:55:29Z</time>
      </trkpt>
      <trkpt lat="43.78628" lon="7.18239">
        <ele>400</ele>
        <time>2010-12-19T10:55:30Z</time>
      </trkpt>
      <trkpt lat="43.78638" lon="7.18248">
        <ele>400</ele>
        <time>2010-12-19T10:55:32Z</time>
      </trkpt>
      <trkpt lat="43.78648" lon="7.18258">
        <ele>399</ele>
        <time>2010-12-19T10:55:34Z</time>
      </trkpt>
      <trkpt lat="43.78658" lon="7.18265">
        <ele>399</ele>
        <time>2010-12-19T10:55:36Z</time>
      </trkpt>
      <trkpt lat="43.78668" lon="7.18271">
        <ele>398</ele>
        <time>2010-12-19T10:55:38Z</time>
      </trkpt>
      <trkpt lat="43.78678" lon="7.18275">
        <ele>398</ele>
        <time>2010-12-19T10:55:41Z</time>
      </trkpt>
      <trkpt lat="43.78688" lon="7.18277">
        <ele>398</ele>
        <time>2010-12-19T10:55:43Z</time>
      </trkpt>
      <trkpt lat="43.78697" lon="7.18278">
        <ele>398</ele>
        <time>2010-12-19T10:55:45Z</time>
      </trkpt>
      <trkpt lat="43.78707" lon="7.18277">
        <ele>397</ele>
        <time>2010-12-19T10:55:47Z</time>
      </trkpt>
      <trkpt lat="43.78717" lon="7.18276">
        <ele>396</ele>
        <time>2010-12-19T10:55:49Z</time>
      </trkpt>
      <trkpt lat="43.78727" lon="7.18276">
        <ele>395</ele>
        <time>2010-12-19T10:55:52Z</time>
      </trkpt>
      <trkpt lat="43.78737" lon="7.18278">
        <ele>396</ele>
        <time>2010-12-19T10:55:54Z</time>
      </trkpt>
      <trkpt lat="43.78747" lon="7.18279">
        <ele>396</ele>
        <time>2010-12-19T10:55:56Z</time>
      </trkpt>
      <trkpt lat="43.78757" lon="7.18282">
        <ele>396</ele>
        <time>2010-12-19T10:55:58Z</time>
      </trkpt>
      <trkpt lat="43.78766" lon="7.18289">
        <ele>396</ele>
        <time>2010-12-19T10:56:01Z</time>
      </trkpt>
      <trkpt lat="43.78774" lon="7.18298">
        <ele>396</ele>
        <time>2010-12-19T10:56:03Z</time>
      </trkpt>
      <trkpt lat="43.78781" lon="7.1831">
        <ele>397</ele>
        <time>2010-12-19T10:56:05Z</time>
      </trkpt>
      <trkpt lat="43.78789" lon="7.18322">
        <ele>397</ele>
        <time>2010-12-19T10:56:07Z</time>
      </trkpt>
      <trkpt lat="43.78796" lon="7.18333">
        <ele>398</ele>
        <time>2010-12-19T10:56:09Z</time>
      </trkpt>
      <trkpt lat="43.78803" lon="7.18344">
        <ele>399</ele>
        <time>2010-12-19T10:56:11Z</time>
      </trkpt>
      <trkpt lat="43.78811" lon="7.18355">
        <ele>400</ele>
        <time>2010-12-19T10:56:14Z</time>
      </trkpt>
      <trkpt lat="43.78821" lon="7.18364">
        <ele>401</ele>
        <time>2010-12-19T10:56:16Z</time>
      </trkpt>
      <trkpt lat="43.78832" lon="7.18372">
        <ele>402</ele>
        <time>2010-12-19T10:56:18Z</time>
      </trkpt>
      <trkpt lat="43.78842" lon="7.18379">
        <ele>403</ele>
        <time>2010-12-19T10:56:20Z</time>
      </trkpt>
      <trkpt lat="43.78852" lon="7.18388">
        <ele>403</ele>
        <time>2010-12-19T10:56:22Z</time>
      </trkpt>
      <trkpt lat="43.78861" lon="7.184">
        <ele>404</ele>
        <time>2010-12-19T10:56:25Z</time>
      </trkpt>
      <trkpt lat="43.78867" lon="7.18413">
        <ele>405</ele>
        <time>2010-12-19T10:56:27Z</time>
      </trkpt>
      <trkpt lat="43.7887" lon="7.18428">
        <ele>405</ele>
        <time>2010-12-19T10:56:29Z</time>
      </trkpt>
      <trkpt lat="43.78874" lon="7.18443">
        <ele>406</ele>
        <time>2010-12-19T10:56:31Z</time>
      </trkpt>
      <trkpt lat="43.78879" lon="7.18457">
        <ele>406</ele>
        <time>2010-12-19T10:56:33Z</time>
      </trkpt>
      <trkpt lat="43.78886" lon="7.18468">
        <ele>406</ele>
        <time>2010-12-19T10:56:36Z</time>
      </trkpt>
      <trkpt lat="43.78895" lon="7.18476">
        <ele>405</ele>
        <time>2010-12-19T10:56:38Z</time>
      </trkpt>
      <trkpt lat="43.78904" lon="7.18483">
        <ele>404</ele>
        <time>2010-12-19T10:56:40Z</time>
      </trkpt>
      <trkpt lat="43.78911" lon="7.18492">
        <ele>404</ele>
        <time>2010-12-19T10:56:42Z</time>
      </trkpt>
      <trkpt lat="43.7892" lon="7.185">
        <ele>405</ele>
        <time>2010-12-19T10:56:45Z</time>
      </trkpt>
      <trkpt lat="43.78922" lon="7.18502">
        <ele>405</ele>
        <time>2010-12-19T10:56:46Z</time>
      </trkpt>
      <trkpt lat="43.78928" lon="7.18505">
        <ele>405</ele>
        <time>2010-12-19T10:56:48Z</time>
      </trkpt>
      <trkpt lat="43.78938" lon="7.1851">
        <ele>404</ele>
        <time>2010-12-19T10:56:53Z</time>
      </trkpt>
      <trkpt lat="43.78946" lon="7.18514">
        <ele>404</ele>
        <time>2010-12-19T10:56:57Z</time>
      </trkpt>
      <trkpt lat="43.78957" lon="7.18518">
        <ele>405</ele>
        <time>2010-12-19T10:57:02Z</time>
      </trkpt>
      <trkpt lat="43.78967" lon="7.18519">
        <ele>406</ele>
        <time>2010-12-19T10:57:05Z</time>
      </trkpt>
      <trkpt lat="43.78977" lon="7.18519">
        <ele>406</ele>
        <time>2010-12-19T10:57:09Z</time>
      </trkpt>
      <trkpt lat="43.78986" lon="7.18517">
        <ele>406</ele>
        <time>2010-12-19T10:57:12Z</time>
      </trkpt>
      <trkpt lat="43.78997" lon="7.18515">
        <ele>407</ele>
        <time>2010-12-19T10:57:16Z</time>
      </trkpt>
      <trkpt lat="43.79008" lon="7.1851">
        <ele>407</ele>
        <time>2010-12-19T10:57:19Z</time>
      </trkpt>
      <trkpt lat="43.79016" lon="7.18504">
        <ele>408</ele>
        <time>2010-12-19T10:57:22Z</time>
      </trkpt>
      <trkpt lat="43.79024" lon="7.18497">
        <ele>409</ele>
        <time>2010-12-19T10:57:25Z</time>
      </trkpt>
      <trkpt lat="43.79031" lon="7.18489">
        <ele>409</ele>
        <time>2010-12-19T10:57:28Z</time>
      </trkpt>
      <trkpt lat="43.79041" lon="7.18482">
        <ele>408</ele>
        <time>2010-12-19T10:57:32Z</time>
      </trkpt>
      <trkpt lat="43.79051" lon="7.18478">
        <ele>409</ele>
        <time>2010-12-19T10:57:36Z</time>
      </trkpt>
      <trkpt lat="43.79061" lon="7.18474">
        <ele>408</ele>
        <time>2010-12-19T10:57:39Z</time>
      </trkpt>
      <trkpt lat="43.79071" lon="7.1847">
        <ele>407</ele>
        <time>2010-12-19T10:57:43Z</time>
      </trkpt>
      <trkpt lat="43.7908" lon="7.18469">
        <ele>408</ele>
        <time>2010-12-19T10:57:47Z</time>
      </trkpt>
      <trkpt lat="43.7909" lon="7.18471">
        <ele>409</ele>
        <time>2010-12-19T10:57:51Z</time>
      </trkpt>
      <trkpt lat="43.79101" lon="7.18475">
        <ele>411</ele>
        <time>2010-12-19T10:57:54Z</time>
      </trkpt>
      <trkpt lat="43.79109" lon="7.18479">
        <ele>411</ele>
        <time>2010-12-19T10:57:57Z</time>
      </trkpt>
      <trkpt lat="43.79118" lon="7.18484">
        <ele>412</ele>
        <time>2010-12-19T10:58:00Z</time>
      </trkpt>
      <trkpt lat="43.79128" lon="7.18488">
        <ele>412</ele>
        <time>2010-12-19T10:58:04Z</time>
      </trkpt>
      <trkpt lat="43.79135" lon="7.1849">
        <ele>412</ele>
        <time>2010-12-19T10:58:06Z</time>
      </trkpt>
      <trkpt lat="43.79146" lon="7.18491">
        <ele>412</ele>
        <time>2010-12-19T10:58:10Z</time>
      </trkpt>
      <trkpt lat="43.79157" lon="7.18489">
        <ele>412</ele>
        <time>2010-12-19T10:58:14Z</time>
      </trkpt>
      <trkpt lat="43.79167" lon="7.18487">
        <ele>413</ele>
        <time>2010-12-19T10:58:18Z</time>
      </trkpt>
      <trkpt lat="43.79177" lon="7.18487">
        <ele>414</ele>
        <time>2010-12-19T10:58:21Z</time>
      </trkpt>
      <trkpt lat="43.79186" lon="7.1849">
        <ele>414</ele>
        <time>2010-12-19T10:58:25Z</time>
      </trkpt>
      <trkpt lat="43.79194" lon="7.18498">
        <ele>414</ele>
        <time>2010-12-19T10:58:29Z</time>
      </trkpt>
      <trkpt lat="43.79194" lon="7.185">
        <ele>414</ele>
        <time>2010-12-19T10:58:30Z</time>
      </trkpt>
      <trkpt lat="43.79198" lon="7.18512">
        <ele>415</ele>
        <time>2010-12-19T10:58:33Z</time>
      </trkpt>
      <trkpt lat="43.79202" lon="7.18523">
        <ele>417</ele>
        <time>2010-12-19T10:58:37Z</time>
      </trkpt>
      <trkpt lat="43.79206" lon="7.18534">
        <ele>418</ele>
        <time>2010-12-19T10:58:41Z</time>
      </trkpt>
      <trkpt lat="43.79213" lon="7.18544">
        <ele>419</ele>
        <time>2010-12-19T10:58:44Z</time>
      </trkpt>
      <trkpt lat="43.79222" lon="7.18546">
        <ele>419</ele>
        <time>2010-12-19T10:58:47Z</time>
      </trkpt>
      <trkpt lat="43.79233" lon="7.18543">
        <ele>419</ele>
        <time>2010-12-19T10:58:51Z</time>
      </trkpt>
      <trkpt lat="43.79241" lon="7.18533">
        <ele>418</ele>
        <time>2010-12-19T10:58:55Z</time>
      </trkpt>
      <trkpt lat="43.79247" lon="7.18521">
        <ele>418</ele>
        <time>2010-12-19T10:58:59Z</time>
      </trkpt>
      <trkpt lat="43.79252" lon="7.18509">
        <ele>418</ele>
        <time>2010-12-19T10:59:02Z</time>
      </trkpt>
      <trkpt lat="43.79254" lon="7.18504">
        <ele>418</ele>
        <time>2010-12-19T10:59:03Z</time>
      </trkpt>
      <trkpt lat="43.79259" lon="7.18493">
        <ele>418</ele>
        <time>2010-12-19T10:59:06Z</time>
      </trkpt>
      <trkpt lat="43.79265" lon="7.18483">
        <ele>418</ele>
        <time>2010-12-19T10:59:09Z</time>
      </trkpt>
      <trkpt lat="43.79272" lon="7.18474">
        <ele>419</ele>
        <time>2010-12-19T10:59:13Z</time>
      </trkpt>
      <trkpt lat="43.79277" lon="7.18469">
        <ele>419</ele>
        <time>2010-12-19T10:59:15Z</time>
      </trkpt>
      <trkpt lat="43.79286" lon="7.18461">
        <ele>421</ele>
        <time>2010-12-19T10:59:19Z</time>
      </trkpt>
      <trkpt lat="43.79294" lon="7.18452">
        <ele>421</ele>
        <time>2010-12-19T10:59:23Z</time>
      </trkpt>
      <trkpt lat="43.79303" lon="7.18444">
        <ele>420</ele>
        <time>2010-12-19T10:59:27Z</time>
      </trkpt>
      <trkpt lat="43.79311" lon="7.18436">
        <ele>420</ele>
        <time>2010-12-19T10:59:31Z</time>
      </trkpt>
      <trkpt lat="43.7932" lon="7.18428">
        <ele>420</ele>
        <time>2010-12-19T10:59:34Z</time>
      </trkpt>
      <trkpt lat="43.79329" lon="7.18421">
        <ele>421</ele>
        <time>2010-12-19T10:59:38Z</time>
      </trkpt>
      <trkpt lat="43.79338" lon="7.18414">
        <ele>422</ele>
        <time>2010-12-19T10:59:42Z</time>
      </trkpt>
      <trkpt lat="43.79348" lon="7.1841">
        <ele>422</ele>
        <time>2010-12-19T10:59:46Z</time>
      </trkpt>
      <trkpt lat="43.79359" lon="7.18405">
        <ele>422</ele>
        <time>2010-12-19T10:59:50Z</time>
      </trkpt>
      <trkpt lat="43.79367" lon="7.18401">
        <ele>423</ele>
        <time>2010-12-19T10:59:53Z</time>
      </trkpt>
      <trkpt lat="43.79376" lon="7.18396">
        <ele>423</ele>
        <time>2010-12-19T10:59:56Z</time>
      </trkpt>
      <trkpt lat="43.79385" lon="7.1839">
        <ele>423</ele>
        <time>2010-12-19T10:59:59Z</time>
      </trkpt>
      <trkpt lat="43.79394" lon="7.18384">
        <ele>424</ele>
        <time>2010-12-19T11:00:02Z</time>
      </trkpt>
      <trkpt lat="43.79396" lon="7.18382">
        <ele>424</ele>
        <time>2010-12-19T11:00:02Z</time>
      </trkpt>
      <trkpt lat="43.79405" lon="7.18376">
        <ele>426</ele>
        <time>2010-12-19T11:00:05Z</time>
      </trkpt>
      <trkpt lat="43.79413" lon="7.18369">
        <ele>427</ele>
        <time>2010-12-19T11:00:08Z</time>
      </trkpt>
      <trkpt lat="43.79422" lon="7.18362">
        <ele>427</ele>
        <time>2010-12-19T11:00:11Z</time>
      </trkpt>
      <trkpt lat="43.7943" lon="7.18354">
        <ele>428</ele>
        <time>2010-12-19T11:00:15Z</time>
      </trkpt>
      <trkpt lat="43.79438" lon="7.18345">
        <ele>429</ele>
        <time>2010-12-19T11:00:18Z</time>
      </trkpt>
      <trkpt lat="43.79445" lon="7.18336">
        <ele>429</ele>
        <time>2010-12-19T11:00:21Z</time>
      </trkpt>
      <trkpt lat="43.79451" lon="7.18327">
        <ele>430</ele>
        <time>2010-12-19T11:00:24Z</time>
      </trkpt>
      <trkpt lat="43.79458" lon="7.18318">
        <ele>431</ele>
        <time>2010-12-19T11:00:27Z</time>
      </trkpt>
      <trkpt lat="43.79465" lon="7.18309">
        <ele>431</ele>
        <time>2010-12-19T11:00:30Z</time>
      </trkpt>
      <trkpt lat="43.79473" lon="7.183">
        <ele>432</ele>
        <time>2010-12-19T11:00:33Z</time>
      </trkpt>
      <trkpt lat="43.79481" lon="7.18292">
        <ele>433</ele>
        <time>2010-12-19T11:00:36Z</time>
      </trkpt>
      <trkpt lat="43.79488" lon="7.18285">
        <ele>434</ele>
        <time>2010-12-19T11:00:39Z</time>
      </trkpt>
      <trkpt lat="43.79498" lon="7.1828">
        <ele>435</ele>
        <time>2010-12-19T11:00:42Z</time>
      </trkpt>
      <trkpt lat="43.79507" lon="7.18277">
        <ele>435</ele>
        <time>2010-12-19T11:00:45Z</time>
      </trkpt>
      <trkpt lat="43.79516" lon="7.18272">
        <ele>436</ele>
        <time>2010-12-19T11:00:48Z</time>
      </trkpt>
      <trkpt lat="43.79526" lon="7.18266">
        <ele>438</ele>
        <time>2010-12-19T11:00:52Z</time>
      </trkpt>
      <trkpt lat="43.79528" lon="7.18265">
        <ele>438</ele>
        <time>2010-12-19T11:00:52Z</time>
      </trkpt>
      <trkpt lat="43.79538" lon="7.1826">
        <ele>438</ele>
        <time>2010-12-19T11:00:55Z</time>
      </trkpt>
      <trkpt lat="43.79547" lon="7.18256">
        <ele>439</ele>
        <time>2010-12-19T11:00:59Z</time>
      </trkpt>
      <trkpt lat="43.79557" lon="7.18251">
        <ele>439</ele>
        <time>2010-12-19T11:01:02Z</time>
      </trkpt>
      <trkpt lat="43.79566" lon="7.18246">
        <ele>439</ele>
        <time>2010-12-19T11:01:05Z</time>
      </trkpt>
      <trkpt lat="43.79576" lon="7.18242">
        <ele>440</ele>
        <time>2010-12-19T11:01:08Z</time>
      </trkpt>
      <trkpt lat="43.79585" lon="7.18238">
        <ele>441</ele>
        <time>2010-12-19T11:01:11Z</time>
      </trkpt>
      <trkpt lat="43.79595" lon="7.18234">
        <ele>442</ele>
        <time>2010-12-19T11:01:14Z</time>
      </trkpt>
      <trkpt lat="43.79605" lon="7.18232">
        <ele>442</ele>
        <time>2010-12-19T11:01:17Z</time>
      </trkpt>
      <trkpt lat="43.79616" lon="7.18231">
        <ele>443</ele>
        <time>2010-12-19T11:01:20Z</time>
      </trkpt>
      <trkpt lat="43.79627" lon="7.18231">
        <ele>444</ele>
        <time>2010-12-19T11:01:23Z</time>
      </trkpt>
      <trkpt lat="43.79637" lon="7.18233">
        <ele>445</ele>
        <time>2010-12-19T11:01:26Z</time>
      </trkpt>
      <trkpt lat="43.79648" lon="7.18234">
        <ele>446</ele>
        <time>2010-12-19T11:01:29Z</time>
      </trkpt>
      <trkpt lat="43.79658" lon="7.18237">
        <ele>447</ele>
        <time>2010-12-19T11:01:32Z</time>
      </trkpt>
      <trkpt lat="43.79667" lon="7.18243">
        <ele>447</ele>
        <time>2010-12-19T11:01:35Z</time>
      </trkpt>
      <trkpt lat="43.79674" lon="7.18251">
        <ele>448</ele>
        <time>2010-12-19T11:01:38Z</time>
      </trkpt>
      <trkpt lat="43.79681" lon="7.18263">
        <ele>449</ele>
        <time>2010-12-19T11:01:42Z</time>
      </trkpt>
      <trkpt lat="43.79686" lon="7.18276">
        <ele>450</ele>
        <time>2010-12-19T11:01:45Z</time>
      </trkpt>
      <trkpt lat="43.7969" lon="7.18289">
        <ele>451</ele>
        <time>2010-12-19T11:01:48Z</time>
      </trkpt>
      <trkpt lat="43.79694" lon="7.18302">
        <ele>452</ele>
        <time>2010-12-19T11:01:51Z</time>
      </trkpt>
      <trkpt lat="43.79698" lon="7.18315">
        <ele>453</ele>
        <time>2010-12-19T11:01:54Z</time>
      </trkpt>
      <trkpt lat="43.79702" lon="7.18328">
        <ele>453</ele>
        <time>2010-12-19T11:01:57Z</time>
      </trkpt>
      <trkpt lat="43.79707" lon="7.1834">
        <ele>454</ele>
        <time>2010-12-19T11:02:00Z</time>
      </trkpt>
      <trkpt lat="43.79711" lon="7.18348">
        <ele>455</ele>
        <time>2010-12-19T11:02:02Z</time>
      </trkpt>
      <trkpt lat="43.79717" lon="7.18359">
        <ele>455</ele>
        <time>2010-12-19T11:02:05Z</time>
      </trkpt>
      <trkpt lat="43.79723" lon="7.18369">
        <ele>455</ele>
        <time>2010-12-19T11:02:08Z</time>
      </trkpt>
      <trkpt lat="43.7973" lon="7.18377">
        <ele>456</ele>
        <time>2010-12-19T11:02:11Z</time>
      </trkpt>
      <trkpt lat="43.7974" lon="7.18386">
        <ele>457</ele>
        <time>2010-12-19T11:02:15Z</time>
      </trkpt>
      <trkpt lat="43.79747" lon="7.18392">
        <ele>459</ele>
        <time>2010-12-19T11:02:18Z</time>
      </trkpt>
      <trkpt lat="43.79756" lon="7.18397">
        <ele>459</ele>
        <time>2010-12-19T11:02:20Z</time>
      </trkpt>
      <trkpt lat="43.79766" lon="7.18402">
        <ele>460</ele>
        <time>2010-12-19T11:02:24Z</time>
      </trkpt>
      <trkpt lat="43.79776" lon="7.18406">
        <ele>460</ele>
        <time>2010-12-19T11:02:28Z</time>
      </trkpt>
      <trkpt lat="43.79787" lon="7.18408">
        <ele>461</ele>
        <time>2010-12-19T11:02:32Z</time>
      </trkpt>
      <trkpt lat="43.79797" lon="7.18408">
        <ele>462</ele>
        <time>2010-12-19T11:02:35Z</time>
      </trkpt>
      <trkpt lat="43.79807" lon="7.18407">
        <ele>463</ele>
        <time>2010-12-19T11:02:38Z</time>
      </trkpt>
      <trkpt lat="43.79816" lon="7.18404">
        <ele>463</ele>
        <time>2010-12-19T11:02:41Z</time>
      </trkpt>
      <trkpt lat="43.79825" lon="7.18398">
        <ele>463</ele>
        <time>2010-12-19T11:02:44Z</time>
      </trkpt>
      <trkpt lat="43.79832" lon="7.18388">
        <ele>463</ele>
        <time>2010-12-19T11:02:47Z</time>
      </trkpt>
      <trkpt lat="43.79838" lon="7.18375">
        <ele>464</ele>
        <time>2010-12-19T11:02:50Z</time>
      </trkpt>
      <trkpt lat="43.7984" lon="7.18361">
        <ele>464</ele>
        <time>2010-12-19T11:02:53Z</time>
      </trkpt>
      <trkpt lat="43.79841" lon="7.18346">
        <ele>465</ele>
        <time>2010-12-19T11:02:56Z</time>
      </trkpt>
      <trkpt lat="43.7984" lon="7.18332">
        <ele>466</ele>
        <time>2010-12-19T11:02:59Z</time>
      </trkpt>
      <trkpt lat="43.79837" lon="7.18319">
        <ele>466</ele>
        <time>2010-12-19T11:03:02Z</time>
      </trkpt>
      <trkpt lat="43.79836" lon="7.18306">
        <ele>466</ele>
        <time>2010-12-19T11:03:04Z</time>
      </trkpt>
      <trkpt lat="43.79834" lon="7.18293">
        <ele>466</ele>
        <time>2010-12-19T11:03:07Z</time>
      </trkpt>
      <trkpt lat="43.79831" lon="7.18278">
        <ele>465</ele>
        <time>2010-12-19T11:03:11Z</time>
      </trkpt>
      <trkpt lat="43.79829" lon="7.18265">
        <ele>464</ele>
        <time>2010-12-19T11:03:14Z</time>
      </trkpt>
      <trkpt lat="43.79826" lon="7.1825">
        <ele>465</ele>
        <time>2010-12-19T11:03:18Z</time>
      </trkpt>
      <trkpt lat="43.79823" lon="7.18239">
        <ele>466</ele>
        <time>2010-12-19T11:03:21Z</time>
      </trkpt>
      <trkpt lat="43.79818" lon="7.18227">
        <ele>467</ele>
        <time>2010-12-19T11:03:24Z</time>
      </trkpt>
      <trkpt lat="43.79814" lon="7.18216">
        <ele>468</ele>
        <time>2010-12-19T11:03:27Z</time>
      </trkpt>
      <trkpt lat="43.7981" lon="7.18203">
        <ele>469</ele>
        <time>2010-12-19T11:03:30Z</time>
      </trkpt>
      <trkpt lat="43.79806" lon="7.18189">
        <ele>469</ele>
        <time>2010-12-19T11:03:33Z</time>
      </trkpt>
      <trkpt lat="43.79806" lon="7.18174">
        <ele>469</ele>
        <time>2010-12-19T11:03:36Z</time>
      </trkpt>
      <trkpt lat="43.7981" lon="7.18161">
        <ele>469</ele>
        <time>2010-12-19T11:03:39Z</time>
      </trkpt>
      <trkpt lat="43.79816" lon="7.18149">
        <ele>470</ele>
        <time>2010-12-19T11:03:42Z</time>
      </trkpt>
      <trkpt lat="43.79823" lon="7.18141">
        <ele>472</ele>
        <time>2010-12-19T11:03:45Z</time>
      </trkpt>
      <trkpt lat="43.79829" lon="7.1814">
        <ele>472</ele>
        <time>2010-12-19T11:03:47Z</time>
      </trkpt>
      <trkpt lat="43.79839" lon="7.18144">
        <ele>473</ele>
        <time>2010-12-19T11:03:50Z</time>
      </trkpt>
      <trkpt lat="43.79849" lon="7.18152">
        <ele>474</ele>
        <time>2010-12-19T11:03:53Z</time>
      </trkpt>
      <trkpt lat="43.79857" lon="7.18161">
        <ele>475</ele>
        <time>2010-12-19T11:03:56Z</time>
      </trkpt>
      <trkpt lat="43.79864" lon="7.18172">
        <ele>476</ele>
        <time>2010-12-19T11:03:59Z</time>
      </trkpt>
      <trkpt lat="43.79868" lon="7.18177">
        <ele>476</ele>
        <time>2010-12-19T11:04:00Z</time>
      </trkpt>
      <trkpt lat="43.79876" lon="7.18188">
        <ele>477</ele>
        <time>2010-12-19T11:04:03Z</time>
      </trkpt>
      <trkpt lat="43.79882" lon="7.18201">
        <ele>478</ele>
        <time>2010-12-19T11:04:06Z</time>
      </trkpt>
      <trkpt lat="43.79889" lon="7.18213">
        <ele>479</ele>
        <time>2010-12-19T11:04:09Z</time>
      </trkpt>
      <trkpt lat="43.79896" lon="7.18225">
        <ele>480</ele>
        <time>2010-12-19T11:04:12Z</time>
      </trkpt>
      <trkpt lat="43.79904" lon="7.18234">
        <ele>480</ele>
        <time>2010-12-19T11:04:15Z</time>
      </trkpt>
      <trkpt lat="43.79913" lon="7.18238">
        <ele>481</ele>
        <time>2010-12-19T11:04:18Z</time>
      </trkpt>
      <trkpt lat="43.79922" lon="7.18239">
        <ele>481</ele>
        <time>2010-12-19T11:04:21Z</time>
      </trkpt>
      <trkpt lat="43.79932" lon="7.18235">
        <ele>482</ele>
        <time>2010-12-19T11:04:24Z</time>
      </trkpt>
      <trkpt lat="43.79941" lon="7.18229">
        <ele>483</ele>
        <time>2010-12-19T11:04:27Z</time>
      </trkpt>
      <trkpt lat="43.79949" lon="7.1822">
        <ele>484</ele>
        <time>2010-12-19T11:04:31Z</time>
      </trkpt>
      <trkpt lat="43.79956" lon="7.1821">
        <ele>484</ele>
        <time>2010-12-19T11:04:33Z</time>
      </trkpt>
      <trkpt lat="43.79964" lon="7.18199">
        <ele>485</ele>
        <time>2010-12-19T11:04:37Z</time>
      </trkpt>
      <trkpt lat="43.79971" lon="7.18187">
        <ele>485</ele>
        <time>2010-12-19T11:04:40Z</time>
      </trkpt>
      <trkpt lat="43.79978" lon="7.18174">
        <ele>485</ele>
        <time>2010-12-19T11:04:43Z</time>
      </trkpt>
      <trkpt lat="43.79985" lon="7.18163">
        <ele>486</ele>
        <time>2010-12-19T11:04:46Z</time>
      </trkpt>
      <trkpt lat="43.79996" lon="7.1816">
        <ele>486</ele>
        <time>2010-12-19T11:04:49Z</time>
      </trkpt>
      <trkpt lat="43.80007" lon="7.18166">
        <ele>487</ele>
        <time>2010-12-19T11:04:52Z</time>
      </trkpt>
      <trkpt lat="43.80013" lon="7.18178">
        <ele>487</ele>
        <time>2010-12-19T11:04:55Z</time>
      </trkpt>
      <trkpt lat="43.80015" lon="7.18192">
        <ele>488</ele>
        <time>2010-12-19T11:04:58Z</time>
      </trkpt>
      <trkpt lat="43.80017" lon="7.18205">
        <ele>488</ele>
        <time>2010-12-19T11:05:01Z</time>
      </trkpt>
      <trkpt lat="43.80018" lon="7.18219">
        <ele>488</ele>
        <time>2010-12-19T11:05:04Z</time>
      </trkpt>
      <trkpt lat="43.80019" lon="7.18232">
        <ele>489</ele>
        <time>2010-12-19T11:05:07Z</time>
      </trkpt>
      <trkpt lat="43.8002" lon="7.18246">
        <ele>489</ele>
        <time>2010-12-19T11:05:10Z</time>
      </trkpt>
      <trkpt lat="43.80021" lon="7.18259">
        <ele>489</ele>
        <time>2010-12-19T11:05:13Z</time>
      </trkpt>
      <trkpt lat="43.80022" lon="7.18273">
        <ele>489</ele>
        <time>2010-12-19T11:05:16Z</time>
      </trkpt>
      <trkpt lat="43.80022" lon="7.18287">
        <ele>489</ele>
        <time>2010-12-19T11:05:19Z</time>
      </trkpt>
      <trkpt lat="43.80025" lon="7.18301">
        <ele>489</ele>
        <time>2010-12-19T11:05:22Z</time>
      </trkpt>
      <trkpt lat="43.80032" lon="7.18311">
        <ele>489</ele>
        <time>2010-12-19T11:05:25Z</time>
      </trkpt>
      <trkpt lat="43.80042" lon="7.18311">
        <ele>490</ele>
        <time>2010-12-19T11:05:28Z</time>
      </trkpt>
      <trkpt lat="43.80052" lon="7.18306">
        <ele>490</ele>
        <time>2010-12-19T11:05:32Z</time>
      </trkpt>
      <trkpt lat="43.8006" lon="7.18299">
        <ele>490</ele>
        <time>2010-12-19T11:05:35Z</time>
      </trkpt>
      <trkpt lat="43.80068" lon="7.1829">
        <ele>491</ele>
        <time>2010-12-19T11:05:38Z</time>
      </trkpt>
      <trkpt lat="43.80077" lon="7.1828">
        <ele>491</ele>
        <time>2010-12-19T11:05:41Z</time>
      </trkpt>
      <trkpt lat="43.80086" lon="7.18268">
        <ele>491</ele>
        <time>2010-12-19T11:05:44Z</time>
      </trkpt>
      <trkpt lat="43.80094" lon="7.18257">
        <ele>491</ele>
        <time>2010-12-19T11:05:47Z</time>
      </trkpt>
      <trkpt lat="43.80102" lon="7.18245">
        <ele>491</ele>
        <time>2010-12-19T11:05:50Z</time>
      </trkpt>
      <trkpt lat="43.8011" lon="7.18233">
        <ele>491</ele>
        <time>2010-12-19T11:05:53Z</time>
      </trkpt>
      <trkpt lat="43.80117" lon="7.18221">
        <ele>491</ele>
        <time>2010-12-19T11:05:56Z</time>
      </trkpt>
      <trkpt lat="43.80122" lon="7.18211">
        <ele>491</ele>
        <time>2010-12-19T11:05:58Z</time>
      </trkpt>
      <trkpt lat="43.80128" lon="7.18201">
        <ele>492</ele>
        <time>2010-12-19T11:06:00Z</time>
      </trkpt>
      <trkpt lat="43.80134" lon="7.18191">
        <ele>491</ele>
        <time>2010-12-19T11:06:03Z</time>
      </trkpt>
      <trkpt lat="43.80139" lon="7.18181">
        <ele>492</ele>
        <time>2010-12-19T11:06:05Z</time>
      </trkpt>
      <trkpt lat="43.80145" lon="7.18171">
        <ele>492</ele>
        <time>2010-12-19T11:06:07Z</time>
      </trkpt>
      <trkpt lat="43.8015" lon="7.18161">
        <ele>493</ele>
        <time>2010-12-19T11:06:10Z</time>
      </trkpt>
      <trkpt lat="43.80155" lon="7.18151">
        <ele>493</ele>
        <time>2010-12-19T11:06:12Z</time>
      </trkpt>
      <trkpt lat="43.80161" lon="7.18136">
        <ele>493</ele>
        <time>2010-12-19T11:06:15Z</time>
      </trkpt>
      <trkpt lat="43.80166" lon="7.18121">
        <ele>493</ele>
        <time>2010-12-19T11:06:18Z</time>
      </trkpt>
      <trkpt lat="43.8017" lon="7.18106">
        <ele>492</ele>
        <time>2010-12-19T11:06:21Z</time>
      </trkpt>
      <trkpt lat="43.80173" lon="7.18091">
        <ele>493</ele>
        <time>2010-12-19T11:06:24Z</time>
      </trkpt>
      <trkpt lat="43.80177" lon="7.18076">
        <ele>493</ele>
        <time>2010-12-19T11:06:27Z</time>
      </trkpt>
      <trkpt lat="43.80182" lon="7.18062">
        <ele>494</ele>
        <time>2010-12-19T11:06:30Z</time>
      </trkpt>
      <trkpt lat="43.80187" lon="7.18049">
        <ele>494</ele>
        <time>2010-12-19T11:06:33Z</time>
      </trkpt>
      <trkpt lat="43.80193" lon="7.18035">
        <ele>495</ele>
        <time>2010-12-19T11:06:36Z</time>
      </trkpt>
      <trkpt lat="43.80195" lon="7.18023">
        <ele>495</ele>
        <time>2010-12-19T11:06:38Z</time>
      </trkpt>
      <trkpt lat="43.80196" lon="7.1801">
        <ele>495</ele>
        <time>2010-12-19T11:06:40Z</time>
      </trkpt>
      <trkpt lat="43.80196" lon="7.17997">
        <ele>495</ele>
        <time>2010-12-19T11:06:43Z</time>
      </trkpt>
      <trkpt lat="43.80195" lon="7.17984">
        <ele>495</ele>
        <time>2010-12-19T11:06:45Z</time>
      </trkpt>
      <trkpt lat="43.80193" lon="7.1797">
        <ele>495</ele>
        <time>2010-12-19T11:06:47Z</time>
      </trkpt>
      <trkpt lat="43.80191" lon="7.17957">
        <ele>494</ele>
        <time>2010-12-19T11:06:49Z</time>
      </trkpt>
      <trkpt lat="43.80189" lon="7.17943">
        <ele>494</ele>
        <time>2010-12-19T11:06:52Z</time>
      </trkpt>
      <trkpt lat="43.80186" lon="7.17929">
        <ele>494</ele>
        <time>2010-12-19T11:06:54Z</time>
      </trkpt>
      <trkpt lat="43.80183" lon="7.17915">
        <ele>494</ele>
        <time>2010-12-19T11:06:56Z</time>
      </trkpt>
      <trkpt lat="43.8018" lon="7.17902">
        <ele>494</ele>
        <time>2010-12-19T11:06:58Z</time>
      </trkpt>
      <trkpt lat="43.80177" lon="7.17888">
        <ele>494</ele>
        <time>2010-12-19T11:07:00Z</time>
      </trkpt>
      <trkpt lat="43.80176" lon="7.17875">
        <ele>495</ele>
        <time>2010-12-19T11:07:03Z</time>
      </trkpt>
      <trkpt lat="43.80174" lon="7.17861">
        <ele>494</ele>
        <time>2010-12-19T11:07:05Z</time>
      </trkpt>
      <trkpt lat="43.80173" lon="7.17846">
        <ele>494</ele>
        <time>2010-12-19T11:07:07Z</time>
      </trkpt>
      <trkpt lat="43.80173" lon="7.17837">
        <ele>494</ele>
        <time>2010-12-19T11:07:09Z</time>
      </trkpt>
      <trkpt lat="43.80173" lon="7.17823">
        <ele>494</ele>
        <time>2010-12-19T11:07:11Z</time>
      </trkpt>
      <trkpt lat="43.80174" lon="7.1781">
        <ele>494</ele>
        <time>2010-12-19T11:07:13Z</time>
      </trkpt>
      <trkpt lat="43.80176" lon="7.17798">
        <ele>494</ele>
        <time>2010-12-19T11:07:15Z</time>
      </trkpt>
      <trkpt lat="43.80179" lon="7.17784">
        <ele>495</ele>
        <time>2010-12-19T11:07:17Z</time>
      </trkpt>
      <trkpt lat="43.80183" lon="7.17773">
        <ele>496</ele>
        <time>2010-12-19T11:07:20Z</time>
      </trkpt>
      <trkpt lat="43.80189" lon="7.17763">
        <ele>496</ele>
        <time>2010-12-19T11:07:22Z</time>
      </trkpt>
      <trkpt lat="43.80196" lon="7.1775">
        <ele>496</ele>
        <time>2010-12-19T11:07:25Z</time>
      </trkpt>
      <trkpt lat="43.80201" lon="7.17743">
        <ele>497</ele>
        <time>2010-12-19T11:07:26Z</time>
      </trkpt>
      <trkpt lat="43.80208" lon="7.17734">
        <ele>497</ele>
        <time>2010-12-19T11:07:29Z</time>
      </trkpt>
      <trkpt lat="43.80214" lon="7.17724">
        <ele>498</ele>
        <time>2010-12-19T11:07:31Z</time>
      </trkpt>
      <trkpt lat="43.80221" lon="7.17714">
        <ele>497</ele>
        <time>2010-12-19T11:07:33Z</time>
      </trkpt>
      <trkpt lat="43.80227" lon="7.17703">
        <ele>498</ele>
        <time>2010-12-19T11:07:35Z</time>
      </trkpt>
      <trkpt lat="43.80232" lon="7.17692">
        <ele>498</ele>
        <time>2010-12-19T11:07:38Z</time>
      </trkpt>
      <trkpt lat="43.80236" lon="7.17679">
        <ele>499</ele>
        <time>2010-12-19T11:07:40Z</time>
      </trkpt>
      <trkpt lat="43.8024" lon="7.17666">
        <ele>499</ele>
        <time>2010-12-19T11:07:42Z</time>
      </trkpt>
      <trkpt lat="43.80243" lon="7.17652">
        <ele>499</ele>
        <time>2010-12-19T11:07:44Z</time>
      </trkpt>
      <trkpt lat="43.80246" lon="7.17639">
        <ele>499</ele>
        <time>2010-12-19T11:07:47Z</time>
      </trkpt>
      <trkpt lat="43.80248" lon="7.17626">
        <ele>498</ele>
        <time>2010-12-19T11:07:49Z</time>
      </trkpt>
      <trkpt lat="43.80251" lon="7.17612">
        <ele>498</ele>
        <time>2010-12-19T11:07:51Z</time>
      </trkpt>
      <trkpt lat="43.80254" lon="7.17597">
        <ele>498</ele>
        <time>2010-12-19T11:07:54Z</time>
      </trkpt>
      <trkpt lat="43.80257" lon="7.17582">
        <ele>498</ele>
        <time>2010-12-19T11:07:56Z</time>
      </trkpt>
      <trkpt lat="43.80261" lon="7.17568">
        <ele>498</ele>
        <time>2010-12-19T11:07:58Z</time>
      </trkpt>
      <trkpt lat="43.80264" lon="7.17555">
        <ele>498</ele>
        <time>2010-12-19T11:08:00Z</time>
      </trkpt>
      <trkpt lat="43.80268" lon="7.17542">
        <ele>498</ele>
        <time>2010-12-19T11:08:03Z</time>
      </trkpt>
      <trkpt lat="43.80271" lon="7.17529">
        <ele>498</ele>
        <time>2010-12-19T11:08:05Z</time>
      </trkpt>
      <trkpt lat="43.80275" lon="7.17516">
        <ele>497</ele>
        <time>2010-12-19T11:08:07Z</time>
      </trkpt>
      <trkpt lat="43.80278" lon="7.17504">
        <ele>497</ele>
        <time>2010-12-19T11:08:09Z</time>
      </trkpt>
      <trkpt lat="43.8028" lon="7.17492">
        <ele>497</ele>
        <time>2010-12-19T11:08:11Z</time>
      </trkpt>
      <trkpt lat="43.80284" lon="7.1748">
        <ele>498</ele>
        <time>2010-12-19T11:08:14Z</time>
      </trkpt>
      <trkpt lat="43.80288" lon="7.17467">
        <ele>498</ele>
        <time>2010-12-19T11:08:16Z</time>
      </trkpt>
      <trkpt lat="43.80293" lon="7.17456">
        <ele>498</ele>
        <time>2010-12-19T11:08:18Z</time>
      </trkpt>
      <trkpt lat="43.803" lon="7.17444">
        <ele>499</ele>
        <time>2010-12-19T11:08:21Z</time>
      </trkpt>
      <trkpt lat="43.80307" lon="7.17431">
        <ele>499</ele>
        <time>2010-12-19T11:08:24Z</time>
      </trkpt>
      <trkpt lat="43.80313" lon="7.1742">
        <ele>500</ele>
        <time>2010-12-19T11:08:26Z</time>
      </trkpt>
      <trkpt lat="43.80319" lon="7.17407">
        <ele>500</ele>
        <time>2010-12-19T11:08:28Z</time>
      </trkpt>
      <trkpt lat="43.80325" lon="7.17393">
        <ele>499</ele>
        <time>2010-12-19T11:08:31Z</time>
      </trkpt>
      <trkpt lat="43.80333" lon="7.17381">
        <ele>498</ele>
        <time>2010-12-19T11:08:33Z</time>
      </trkpt>
      <trkpt lat="43.80343" lon="7.17371">
        <ele>497</ele>
        <time>2010-12-19T11:08:35Z</time>
      </trkpt>
      <trkpt lat="43.80353" lon="7.17363">
        <ele>497</ele>
        <time>2010-12-19T11:08:37Z</time>
      </trkpt>
      <trkpt lat="43.80363" lon="7.17356">
        <ele>497</ele>
        <time>2010-12-19T11:08:40Z</time>
      </trkpt>
      <trkpt lat="43.80369" lon="7.17352">
        <ele>497</ele>
        <time>2010-12-19T11:08:41Z</time>
      </trkpt>
      <trkpt lat="43.80378" lon="7.17344">
        <ele>497</ele>
        <time>2010-12-19T11:08:43Z</time>
      </trkpt>
      <trkpt lat="43.80385" lon="7.17332">
        <ele>497</ele>
        <time>2010-12-19T11:08:46Z</time>
      </trkpt>
      <trkpt lat="43.80391" lon="7.17316">
        <ele>497</ele>
        <time>2010-12-19T11:08:48Z</time>
      </trkpt>
      <trkpt lat="43.80395" lon="7.17299">
        <ele>497</ele>
        <time>2010-12-19T11:08:50Z</time>
      </trkpt>
      <trkpt lat="43.80399" lon="7.17282">
        <ele>497</ele>
        <time>2010-12-19T11:08:52Z</time>
      </trkpt>
      <trkpt lat="43.80402" lon="7.17267">
        <ele>497</ele>
        <time>2010-12-19T11:08:55Z</time>
      </trkpt>
      <trkpt lat="43.80405" lon="7.17252">
        <ele>496</ele>
        <time>2010-12-19T11:08:57Z</time>
      </trkpt>
      <trkpt lat="43.80409" lon="7.17237">
        <ele>497</ele>
        <time>2010-12-19T11:08:59Z</time>
      </trkpt>
      <trkpt lat="43.80414" lon="7.17223">
        <ele>497</ele>
        <time>2010-12-19T11:09:02Z</time>
      </trkpt>
      <trkpt lat="43.80418" lon="7.17209">
        <ele>497</ele>
        <time>2010-12-19T11:09:04Z</time>
      </trkpt>
      <trkpt lat="43.80421" lon="7.17195">
        <ele>498</ele>
        <time>2010-12-19T11:09:06Z</time>
      </trkpt>
      <trkpt lat="43.80424" lon="7.17181">
        <ele>498</ele>
        <time>2010-12-19T11:09:08Z</time>
      </trkpt>
      <trkpt lat="43.80427" lon="7.17166">
        <ele>499</ele>
        <time>2010-12-19T11:09:11Z</time>
      </trkpt>
      <trkpt lat="43.80429" lon="7.17151">
        <ele>499</ele>
        <time>2010-12-19T11:09:13Z</time>
      </trkpt>
      <trkpt lat="43.80431" lon="7.17136">
        <ele>498</ele>
        <time>2010-12-19T11:09:15Z</time>
      </trkpt>
      <trkpt lat="43.80433" lon="7.17121">
        <ele>498</ele>
        <time>2010-12-19T11:09:17Z</time>
      </trkpt>
      <trkpt lat="43.80437" lon="7.17106">
        <ele>498</ele>
        <time>2010-12-19T11:09:20Z</time>
      </trkpt>
      <trkpt lat="43.80441" lon="7.17097">
        <ele>498</ele>
        <time>2010-12-19T11:09:21Z</time>
      </trkpt>
      <trkpt lat="43.80449" lon="7.17086">
        <ele>498</ele>
        <time>2010-12-19T11:09:23Z</time>
      </trkpt>
      <trkpt lat="43.80457" lon="7.17077">
        <ele>498</ele>
        <time>2010-12-19T11:09:25Z</time>
      </trkpt>
      <trkpt lat="43.80465" lon="7.17067">
        <ele>498</ele>
        <time>2010-12-19T11:09:28Z</time>
      </trkpt>
      <trkpt lat="43.80472" lon="7.17055">
        <ele>498</ele>
        <time>2010-12-19T11:09:30Z</time>
      </trkpt>
      <trkpt lat="43.80478" lon="7.17042">
        <ele>498</ele>
        <time>2010-12-19T11:09:32Z</time>
      </trkpt>
      <trkpt lat="43.80484" lon="7.17029">
        <ele>498</ele>
        <time>2010-12-19T11:09:34Z</time>
      </trkpt>
      <trkpt lat="43.80491" lon="7.17015">
        <ele>499</ele>
        <time>2010-12-19T11:09:37Z</time>
      </trkpt>
      <trkpt lat="43.80497" lon="7.17002">
        <ele>500</ele>
        <time>2010-12-19T11:09:39Z</time>
      </trkpt>
      <trkpt lat="43.80501" lon="7.16993">
        <ele>500</ele>
        <time>2010-12-19T11:09:40Z</time>
      </trkpt>
      <trkpt lat="43.80505" lon="7.16979">
        <ele>500</ele>
        <time>2010-12-19T11:09:42Z</time>
      </trkpt>
      <trkpt lat="43.80506" lon="7.16964">
        <ele>500</ele>
        <time>2010-12-19T11:09:45Z</time>
      </trkpt>
      <trkpt lat="43.80506" lon="7.16949">
        <ele>500</ele>
        <time>2010-12-19T11:09:47Z</time>
      </trkpt>
      <trkpt lat="43.80508" lon="7.16934">
        <ele>500</ele>
        <time>2010-12-19T11:09:49Z</time>
      </trkpt>
      <trkpt lat="43.80511" lon="7.16919">
        <ele>501</ele>
        <time>2010-12-19T11:09:52Z</time>
      </trkpt>
      <trkpt lat="43.80515" lon="7.16905">
        <ele>501</ele>
        <time>2010-12-19T11:09:54Z</time>
      </trkpt>
      <trkpt lat="43.80519" lon="7.1689">
        <ele>501</ele>
        <time>2010-12-19T11:09:56Z</time>
      </trkpt>
      <trkpt lat="43.80524" lon="7.16876">
        <ele>502</ele>
        <time>2010-12-19T11:09:58Z</time>
      </trkpt>
      <trkpt lat="43.80528" lon="7.16867">
        <ele>502</ele>
        <time>2010-12-19T11:10:00Z</time>
      </trkpt>
      <trkpt lat="43.80533" lon="7.16854">
        <ele>502</ele>
        <time>2010-12-19T11:10:02Z</time>
      </trkpt>
      <trkpt lat="43.80538" lon="7.1684">
        <ele>501</ele>
        <time>2010-12-19T11:10:04Z</time>
      </trkpt>
      <trkpt lat="43.80542" lon="7.16826">
        <ele>502</ele>
        <time>2010-12-19T11:10:07Z</time>
      </trkpt>
      <trkpt lat="43.80545" lon="7.16811">
        <ele>502</ele>
        <time>2010-12-19T11:10:09Z</time>
      </trkpt>
      <trkpt lat="43.80547" lon="7.16797">
        <ele>502</ele>
        <time>2010-12-19T11:10:11Z</time>
      </trkpt>
      <trkpt lat="43.8055" lon="7.16783">
        <ele>502</ele>
        <time>2010-12-19T11:10:13Z</time>
      </trkpt>
      <trkpt lat="43.80552" lon="7.1677">
        <ele>502</ele>
        <time>2010-12-19T11:10:16Z</time>
      </trkpt>
      <trkpt lat="43.80555" lon="7.16756">
        <ele>503</ele>
        <time>2010-12-19T11:10:18Z</time>
      </trkpt>
      <trkpt lat="43.80557" lon="7.16742">
        <ele>503</ele>
        <time>2010-12-19T11:10:20Z</time>
      </trkpt>
      <trkpt lat="43.80559" lon="7.16728">
        <ele>503</ele>
        <time>2010-12-19T11:10:22Z</time>
      </trkpt>
      <trkpt lat="43.80561" lon="7.16714">
        <ele>503</ele>
        <time>2010-12-19T11:10:25Z</time>
      </trkpt>
      <trkpt lat="43.80564" lon="7.16701">
        <ele>503</ele>
        <time>2010-12-19T11:10:27Z</time>
      </trkpt>
      <trkpt lat="43.80567" lon="7.16688">
        <ele>503</ele>
        <time>2010-12-19T11:10:29Z</time>
      </trkpt>
      <trkpt lat="43.80573" lon="7.16678">
        <ele>503</ele>
        <time>2010-12-19T11:10:31Z</time>
      </trkpt>
      <trkpt lat="43.80581" lon="7.16673">
        <ele>503</ele>
        <time>2010-12-19T11:10:33Z</time>
      </trkpt>
      <trkpt lat="43.80592" lon="7.16669">
        <ele>503</ele>
        <time>2010-12-19T11:10:36Z</time>
      </trkpt>
      <trkpt lat="43.80603" lon="7.16669">
        <ele>505</ele>
        <time>2010-12-19T11:10:39Z</time>
      </trkpt>
      <trkpt lat="43.80615" lon="7.16671">
        <ele>507</ele>
        <time>2010-12-19T11:10:42Z</time>
      </trkpt>
      <trkpt lat="43.80625" lon="7.1667">
        <ele>508</ele>
        <time>2010-12-19T11:10:45Z</time>
      </trkpt>
      <trkpt lat="43.80635" lon="7.16666">
        <ele>510</ele>
        <time>2010-12-19T11:10:47Z</time>
      </trkpt>
      <trkpt lat="43.80645" lon="7.1666">
        <ele>511</ele>
        <time>2010-12-19T11:10:49Z</time>
      </trkpt>
      <trkpt lat="43.80655" lon="7.16655">
        <ele>512</ele>
        <time>2010-12-19T11:10:52Z</time>
      </trkpt>
      <trkpt lat="43.80666" lon="7.1665">
        <ele>512</ele>
        <time>2010-12-19T11:10:54Z</time>
      </trkpt>
      <trkpt lat="43.80677" lon="7.16648">
        <ele>512</ele>
        <time>2010-12-19T11:10:56Z</time>
      </trkpt>
      <trkpt lat="43.80681" lon="7.16648">
        <ele>513</ele>
        <time>2010-12-19T11:10:57Z</time>
      </trkpt>
      <trkpt lat="43.80691" lon="7.16653">
        <ele>513</ele>
        <time>2010-12-19T11:10:59Z</time>
      </trkpt>
      <trkpt lat="43.80699" lon="7.16658">
        <ele>514</ele>
        <time>2010-12-19T11:11:01Z</time>
      </trkpt>
      <trkpt lat="43.80708" lon="7.16668">
        <ele>515</ele>
        <time>2010-12-19T11:11:06Z</time>
      </trkpt>
      <trkpt lat="43.80717" lon="7.16678">
        <ele>517</ele>
        <time>2010-12-19T11:11:09Z</time>
      </trkpt>
      <trkpt lat="43.80724" lon="7.16686">
        <ele>519</ele>
        <time>2010-12-19T11:11:11Z</time>
      </trkpt>
      <trkpt lat="43.80731" lon="7.16694">
        <ele>520</ele>
        <time>2010-12-19T11:11:13Z</time>
      </trkpt>
      <trkpt lat="43.80739" lon="7.16702">
        <ele>520</ele>
        <time>2010-12-19T11:11:16Z</time>
      </trkpt>
      <trkpt lat="43.80748" lon="7.16711">
        <ele>519</ele>
        <time>2010-12-19T11:11:19Z</time>
      </trkpt>
      <trkpt lat="43.80757" lon="7.16718">
        <ele>519</ele>
        <time>2010-12-19T11:11:22Z</time>
      </trkpt>
      <trkpt lat="43.80766" lon="7.16724">
        <ele>520</ele>
        <time>2010-12-19T11:11:25Z</time>
      </trkpt>
      <trkpt lat="43.80774" lon="7.16729">
        <ele>519</ele>
        <time>2010-12-19T11:11:28Z</time>
      </trkpt>
      <trkpt lat="43.80782" lon="7.16734">
        <ele>518</ele>
        <time>2010-12-19T11:11:31Z</time>
      </trkpt>
      <trkpt lat="43.80792" lon="7.16739">
        <ele>518</ele>
        <time>2010-12-19T11:11:35Z</time>
      </trkpt>
      <trkpt lat="43.80802" lon="7.16746">
        <ele>518</ele>
        <time>2010-12-19T11:11:38Z</time>
      </trkpt>
      <trkpt lat="43.80811" lon="7.16752">
        <ele>517</ele>
        <time>2010-12-19T11:11:42Z</time>
      </trkpt>
      <trkpt lat="43.80819" lon="7.16758">
        <ele>517</ele>
        <time>2010-12-19T11:11:45Z</time>
      </trkpt>
      <trkpt lat="43.80828" lon="7.16765">
        <ele>518</ele>
        <time>2010-12-19T11:11:48Z</time>
      </trkpt>
      <trkpt lat="43.80835" lon="7.16773">
        <ele>518</ele>
        <time>2010-12-19T11:11:51Z</time>
      </trkpt>
      <trkpt lat="43.80842" lon="7.16781">
        <ele>519</ele>
        <time>2010-12-19T11:11:54Z</time>
      </trkpt>
      <trkpt lat="43.8085" lon="7.16789">
        <ele>520</ele>
        <time>2010-12-19T11:11:57Z</time>
      </trkpt>
      <trkpt lat="43.80857" lon="7.16797">
        <ele>520</ele>
        <time>2010-12-19T11:12:00Z</time>
      </trkpt>
      <trkpt lat="43.80866" lon="7.16807">
        <ele>521</ele>
        <time>2010-12-19T11:12:04Z</time>
      </trkpt>
      <trkpt lat="43.80873" lon="7.16815">
        <ele>522</ele>
        <time>2010-12-19T11:12:07Z</time>
      </trkpt>
      <trkpt lat="43.80881" lon="7.16824">
        <ele>523</ele>
        <time>2010-12-19T11:12:10Z</time>
      </trkpt>
      <trkpt lat="43.80889" lon="7.16835">
        <ele>523</ele>
        <time>2010-12-19T11:12:14Z</time>
      </trkpt>
      <trkpt lat="43.80897" lon="7.16844">
        <ele>523</ele>
        <time>2010-12-19T11:12:19Z</time>
      </trkpt>
      <trkpt lat="43.80899" lon="7.16846">
        <ele>522</ele>
        <time>2010-12-19T11:12:28Z</time>
      </trkpt>
      <trkpt lat="43.80907" lon="7.1685">
        <ele>507</ele>
        <time>2010-12-19T11:13:36Z</time>
      </trkpt>
      <trkpt lat="43.80908" lon="7.16851">
        <ele>513</ele>
        <time>2010-12-19T11:14:26Z</time>
      </trkpt>
      <trkpt lat="43.80913" lon="7.16861">
        <ele>517</ele>
        <time>2010-12-19T11:14:56Z</time>
      </trkpt>
      <trkpt lat="43.80923" lon="7.16859">
        <ele>519</ele>
        <time>2010-12-19T11:15:05Z</time>
      </trkpt>
      <trkpt lat="43.80933" lon="7.16849">
        <ele>520</ele>
        <time>2010-12-19T11:15:09Z</time>
      </trkpt>
      <trkpt lat="43.80941" lon="7.16839">
        <ele>521</ele>
        <time>2010-12-19T11:15:12Z</time>
      </trkpt>
      <trkpt lat="43.80947" lon="7.1683">
        <ele>521</ele>
        <time>2010-12-19T11:15:14Z</time>
      </trkpt>
      <trkpt lat="43.80954" lon="7.16822">
        <ele>521</ele>
        <time>2010-12-19T11:15:17Z</time>
      </trkpt>
      <trkpt lat="43.80961" lon="7.16814">
        <ele>521</ele>
        <time>2010-12-19T11:15:19Z</time>
      </trkpt>
      <trkpt lat="43.80969" lon="7.16806">
        <ele>520</ele>
        <time>2010-12-19T11:15:21Z</time>
      </trkpt>
      <trkpt lat="43.80978" lon="7.16795">
        <ele>519</ele>
        <time>2010-12-19T11:15:24Z</time>
      </trkpt>
      <trkpt lat="43.80987" lon="7.16785">
        <ele>520</ele>
        <time>2010-12-19T11:15:27Z</time>
      </trkpt>
      <trkpt lat="43.80996" lon="7.16775">
        <ele>520</ele>
        <time>2010-12-19T11:15:30Z</time>
      </trkpt>
      <trkpt lat="43.81004" lon="7.16765">
        <ele>520</ele>
        <time>2010-12-19T11:15:34Z</time>
      </trkpt>
      <trkpt lat="43.81012" lon="7.16757">
        <ele>521</ele>
        <time>2010-12-19T11:15:37Z</time>
      </trkpt>
      <trkpt lat="43.8102" lon="7.16748">
        <ele>520</ele>
        <time>2010-12-19T11:15:40Z</time>
      </trkpt>
      <trkpt lat="43.81027" lon="7.16739">
        <ele>520</ele>
        <time>2010-12-19T11:15:43Z</time>
      </trkpt>
      <trkpt lat="43.81033" lon="7.1673">
        <ele>520</ele>
        <time>2010-12-19T11:15:46Z</time>
      </trkpt>
      <trkpt lat="43.8104" lon="7.16718">
        <ele>520</ele>
        <time>2010-12-19T11:15:49Z</time>
      </trkpt>
      <trkpt lat="43.81045" lon="7.16707">
        <ele>520</ele>
        <time>2010-12-19T11:15:53Z</time>
      </trkpt>
      <trkpt lat="43.81049" lon="7.16694">
        <ele>521</ele>
        <time>2010-12-19T11:15:57Z</time>
      </trkpt>
      <trkpt lat="43.81053" lon="7.1668">
        <ele>522</ele>
        <time>2010-12-19T11:16:02Z</time>
      </trkpt>
      <trkpt lat="43.81056" lon="7.16665">
        <ele>524</ele>
        <time>2010-12-19T11:16:06Z</time>
      </trkpt>
      <trkpt lat="43.81061" lon="7.16651">
        <ele>526</ele>
        <time>2010-12-19T11:16:09Z</time>
      </trkpt>
      <trkpt lat="43.81064" lon="7.16645">
        <ele>526</ele>
        <time>2010-12-19T11:16:10Z</time>
      </trkpt>
      <trkpt lat="43.8107" lon="7.16634">
        <ele>528</ele>
        <time>2010-12-19T11:16:13Z</time>
      </trkpt>
      <trkpt lat="43.81078" lon="7.16625">
        <ele>528</ele>
        <time>2010-12-19T11:16:17Z</time>
      </trkpt>
      <trkpt lat="43.81088" lon="7.16618">
        <ele>529</ele>
        <time>2010-12-19T11:16:21Z</time>
      </trkpt>
      <trkpt lat="43.81097" lon="7.16613">
        <ele>530</ele>
        <time>2010-12-19T11:16:23Z</time>
      </trkpt>
      <trkpt lat="43.81109" lon="7.16608">
        <ele>530</ele>
        <time>2010-12-19T11:16:25Z</time>
      </trkpt>
      <trkpt lat="43.8112" lon="7.16604">
        <ele>530</ele>
        <time>2010-12-19T11:16:27Z</time>
      </trkpt>
      <trkpt lat="43.81127" lon="7.16602">
        <ele>531</ele>
        <time>2010-12-19T11:16:29Z</time>
      </trkpt>
      <trkpt lat="43.81138" lon="7.16599">
        <ele>531</ele>
        <time>2010-12-19T11:16:31Z</time>
      </trkpt>
      <trkpt lat="43.81148" lon="7.16596">
        <ele>531</ele>
        <time>2010-12-19T11:16:33Z</time>
      </trkpt>
      <trkpt lat="43.81159" lon="7.1659">
        <ele>531</ele>
        <time>2010-12-19T11:16:36Z</time>
      </trkpt>
      <trkpt lat="43.81168" lon="7.16585">
        <ele>532</ele>
        <time>2010-12-19T11:16:38Z</time>
      </trkpt>
      <trkpt lat="43.81177" lon="7.1658">
        <ele>533</ele>
        <time>2010-12-19T11:16:40Z</time>
      </trkpt>
      <trkpt lat="43.81185" lon="7.16574">
        <ele>534</ele>
        <time>2010-12-19T11:16:42Z</time>
      </trkpt>
      <trkpt lat="43.81196" lon="7.16568">
        <ele>534</ele>
        <time>2010-12-19T11:16:45Z</time>
      </trkpt>
      <trkpt lat="43.81206" lon="7.16562">
        <ele>535</ele>
        <time>2010-12-19T11:16:48Z</time>
      </trkpt>
      <trkpt lat="43.81216" lon="7.16558">
        <ele>536</ele>
        <time>2010-12-19T11:16:51Z</time>
      </trkpt>
      <trkpt lat="43.81226" lon="7.16559">
        <ele>537</ele>
        <time>2010-12-19T11:16:54Z</time>
      </trkpt>
      <trkpt lat="43.81235" lon="7.16562">
        <ele>538</ele>
        <time>2010-12-19T11:16:57Z</time>
      </trkpt>
      <trkpt lat="43.81245" lon="7.16565">
        <ele>538</ele>
        <time>2010-12-19T11:17:00Z</time>
      </trkpt>
      <trkpt lat="43.81255" lon="7.16566">
        <ele>539</ele>
        <time>2010-12-19T11:17:03Z</time>
      </trkpt>
      <trkpt lat="43.81265" lon="7.16565">
        <ele>538</ele>
        <time>2010-12-19T11:17:06Z</time>
      </trkpt>
      <trkpt lat="43.81275" lon="7.16563">
        <ele>539</ele>
        <time>2010-12-19T11:17:09Z</time>
      </trkpt>
      <trkpt lat="43.81284" lon="7.1656">
        <ele>540</ele>
        <time>2010-12-19T11:17:12Z</time>
      </trkpt>
      <trkpt lat="43.81294" lon="7.16556">
        <ele>541</ele>
        <time>2010-12-19T11:17:16Z</time>
      </trkpt>
      <trkpt lat="43.81297" lon="7.16554">
        <ele>541</ele>
        <time>2010-12-19T11:17:17Z</time>
      </trkpt>
      <trkpt lat="43.81306" lon="7.16549">
        <ele>541</ele>
        <time>2010-12-19T11:17:21Z</time>
      </trkpt>
      <trkpt lat="43.81316" lon="7.16543">
        <ele>542</ele>
        <time>2010-12-19T11:17:26Z</time>
      </trkpt>
      <trkpt lat="43.81323" lon="7.16538">
        <ele>544</ele>
        <time>2010-12-19T11:17:30Z</time>
      </trkpt>
      <trkpt lat="43.81331" lon="7.16529">
        <ele>547</ele>
        <time>2010-12-19T11:17:55Z</time>
      </trkpt>
      <trkpt lat="43.8134" lon="7.16531">
        <ele>545</ele>
        <time>2010-12-19T11:18:37Z</time>
      </trkpt>
      <trkpt lat="43.81349" lon="7.1653">
        <ele>546</ele>
        <time>2010-12-19T11:18:47Z</time>
      </trkpt>
      <trkpt lat="43.81358" lon="7.16533">
        <ele>547</ele>
        <time>2010-12-19T11:18:53Z</time>
      </trkpt>
      <trkpt lat="43.81368" lon="7.16535">
        <ele>547</ele>
        <time>2010-12-19T11:19:02Z</time>
      </trkpt>
      <trkpt lat="43.81377" lon="7.16535">
        <ele>548</ele>
        <time>2010-12-19T11:19:09Z</time>
      </trkpt>
      <trkpt lat="43.81386" lon="7.1653">
        <ele>549</ele>
        <time>2010-12-19T11:19:16Z</time>
      </trkpt>
      <trkpt lat="43.81392" lon="7.16526">
        <ele>550</ele>
        <time>2010-12-19T11:19:22Z</time>
      </trkpt>
      <trkpt lat="43.81401" lon="7.16522">
        <ele>551</ele>
        <time>2010-12-19T11:19:28Z</time>
      </trkpt>
      <trkpt lat="43.81411" lon="7.1652">
        <ele>554</ele>
        <time>2010-12-19T11:19:34Z</time>
      </trkpt>
      <trkpt lat="43.8142" lon="7.16518">
        <ele>556</ele>
        <time>2010-12-19T11:19:40Z</time>
      </trkpt>
      <trkpt lat="43.81429" lon="7.16516">
        <ele>556</ele>
        <time>2010-12-19T11:19:50Z</time>
      </trkpt>
      <trkpt lat="43.81438" lon="7.16512">
        <ele>555</ele>
        <time>2010-12-19T11:19:56Z</time>
      </trkpt>
      <trkpt lat="43.8144" lon="7.16511">
        <ele>555</ele>
        <time>2010-12-19T11:19:57Z</time>
      </trkpt>
      <trkpt lat="43.81448" lon="7.16505">
        <ele>556</ele>
        <time>2010-12-19T11:20:02Z</time>
      </trkpt>
      <trkpt lat="43.81455" lon="7.16498">
        <ele>557</ele>
        <time>2010-12-19T11:20:06Z</time>
      </trkpt>
      <trkpt lat="43.81463" lon="7.16491">
        <ele>557</ele>
        <time>2010-12-19T11:20:11Z</time>
      </trkpt>
      <trkpt lat="43.81472" lon="7.16489">
        <ele>558</ele>
        <time>2010-12-19T11:20:17Z</time>
      </trkpt>
      <trkpt lat="43.81481" lon="7.1649">
        <ele>559</ele>
        <time>2010-12-19T11:20:23Z</time>
      </trkpt>
      <trkpt lat="43.81491" lon="7.16491">
        <ele>561</ele>
        <time>2010-12-19T11:20:30Z</time>
      </trkpt>
      <trkpt lat="43.81501" lon="7.16492">
        <ele>561</ele>
        <time>2010-12-19T11:20:35Z</time>
      </trkpt>
      <trkpt lat="43.8151" lon="7.16492">
        <ele>562</ele>
        <time>2010-12-19T11:20:41Z</time>
      </trkpt>
      <trkpt lat="43.81512" lon="7.16492">
        <ele>562</ele>
        <time>2010-12-19T11:20:42Z</time>
      </trkpt>
      <trkpt lat="43.81521" lon="7.16491">
        <ele>564</ele>
        <time>2010-12-19T11:20:48Z</time>
      </trkpt>
      <trkpt lat="43.8153" lon="7.16488">
        <ele>565</ele>
        <time>2010-12-19T11:20:54Z</time>
      </trkpt>
      <trkpt lat="43.81539" lon="7.16482">
        <ele>566</ele>
        <time>2010-12-19T11:21:01Z</time>
      </trkpt>
      <trkpt lat="43.81548" lon="7.16476">
        <ele>567</ele>
        <time>2010-12-19T11:21:07Z</time>
      </trkpt>
      <trkpt lat="43.81557" lon="7.16471">
        <ele>569</ele>
        <time>2010-12-19T11:21:13Z</time>
      </trkpt>
      <trkpt lat="43.81567" lon="7.16465">
        <ele>570</ele>
        <time>2010-12-19T11:21:19Z</time>
      </trkpt>
      <trkpt lat="43.81575" lon="7.16459">
        <ele>570</ele>
        <time>2010-12-19T11:21:23Z</time>
      </trkpt>
      <trkpt lat="43.81583" lon="7.16452">
        <ele>571</ele>
        <time>2010-12-19T11:21:26Z</time>
      </trkpt>
      <trkpt lat="43.81592" lon="7.16445">
        <ele>572</ele>
        <time>2010-12-19T11:21:30Z</time>
      </trkpt>
      <trkpt lat="43.81601" lon="7.1644">
        <ele>573</ele>
        <time>2010-12-19T11:21:33Z</time>
      </trkpt>
      <trkpt lat="43.8161" lon="7.16436">
        <ele>573</ele>
        <time>2010-12-19T11:21:37Z</time>
      </trkpt>
      <trkpt lat="43.81619" lon="7.16431">
        <ele>574</ele>
        <time>2010-12-19T11:21:41Z</time>
      </trkpt>
      <trkpt lat="43.81627" lon="7.16425">
        <ele>574</ele>
        <time>2010-12-19T11:21:46Z</time>
      </trkpt>
      <trkpt lat="43.81636" lon="7.16419">
        <ele>575</ele>
        <time>2010-12-19T11:21:51Z</time>
      </trkpt>
      <trkpt lat="43.81644" lon="7.16412">
        <ele>575</ele>
        <time>2010-12-19T11:21:55Z</time>
      </trkpt>
      <trkpt lat="43.81651" lon="7.16403">
        <ele>576</ele>
        <time>2010-12-19T11:22:01Z</time>
      </trkpt>
      <trkpt lat="43.81653" lon="7.1639">
        <ele>576</ele>
        <time>2010-12-19T11:22:07Z</time>
      </trkpt>
      <trkpt lat="43.81655" lon="7.16377">
        <ele>577</ele>
        <time>2010-12-19T11:22:12Z</time>
      </trkpt>
      <trkpt lat="43.81656" lon="7.16364">
        <ele>578</ele>
        <time>2010-12-19T11:22:17Z</time>
      </trkpt>
      <trkpt lat="43.81655" lon="7.1635">
        <ele>579</ele>
        <time>2010-12-19T11:22:23Z</time>
      </trkpt>
      <trkpt lat="43.81655" lon="7.16348">
        <ele>579</ele>
        <time>2010-12-19T11:22:24Z</time>
      </trkpt>
      <trkpt lat="43.81652" lon="7.16336">
        <ele>580</ele>
        <time>2010-12-19T11:22:29Z</time>
      </trkpt>
      <trkpt lat="43.81653" lon="7.16327">
        <ele>580</ele>
        <time>2010-12-19T11:22:33Z</time>
      </trkpt>
      <trkpt lat="43.81659" lon="7.16317">
        <ele>581</ele>
        <time>2010-12-19T11:22:38Z</time>
      </trkpt>
      <trkpt lat="43.81669" lon="7.16314">
        <ele>582</ele>
        <time>2010-12-19T11:22:42Z</time>
      </trkpt>
      <trkpt lat="43.81676" lon="7.16314">
        <ele>583</ele>
        <time>2010-12-19T11:22:45Z</time>
      </trkpt>
      <trkpt lat="43.81685" lon="7.16311">
        <ele>584</ele>
        <time>2010-12-19T11:22:50Z</time>
      </trkpt>
      <trkpt lat="43.81694" lon="7.16305">
        <ele>585</ele>
        <time>2010-12-19T11:22:55Z</time>
      </trkpt>
      <trkpt lat="43.81699" lon="7.16295">
        <ele>585</ele>
        <time>2010-12-19T11:22:58Z</time>
      </trkpt>
      <trkpt lat="43.81703" lon="7.16281">
        <ele>586</ele>
        <time>2010-12-19T11:23:03Z</time>
      </trkpt>
      <trkpt lat="43.81705" lon="7.16268">
        <ele>591</ele>
        <time>2010-12-19T11:23:33Z</time>
      </trkpt>
      <trkpt lat="43.81704" lon="7.16256">
        <ele>591</ele>
        <time>2010-12-19T11:23:43Z</time>
      </trkpt>
      <trkpt lat="43.81704" lon="7.16243">
        <ele>597</ele>
        <time>2010-12-19T11:25:04Z</time>
      </trkpt>
      <trkpt lat="43.81704" lon="7.1623">
        <ele>599</ele>
        <time>2010-12-19T11:25:12Z</time>
      </trkpt>
      <trkpt lat="43.81704" lon="7.16217">
        <ele>601</ele>
        <time>2010-12-19T11:25:21Z</time>
      </trkpt>
      <trkpt lat="43.81709" lon="7.16206">
        <ele>601</ele>
        <time>2010-12-19T11:25:33Z</time>
      </trkpt>
      <trkpt lat="43.8171" lon="7.16206">
        <ele>602</ele>
        <time>2010-12-19T11:25:34Z</time>
      </trkpt>
      <trkpt lat="43.81716" lon="7.16196">
        <ele>601</ele>
        <time>2010-12-19T11:25:47Z</time>
      </trkpt>
      <trkpt lat="43.81718" lon="7.16182">
        <ele>603</ele>
        <time>2010-12-19T11:25:53Z</time>
      </trkpt>
      <trkpt lat="43.81717" lon="7.16169">
        <ele>604</ele>
        <time>2010-12-19T11:25:58Z</time>
      </trkpt>
      <trkpt lat="43.81715" lon="7.16156">
        <ele>605</ele>
        <time>2010-12-19T11:26:03Z</time>
      </trkpt>
      <trkpt lat="43.81713" lon="7.16143">
        <ele>606</ele>
        <time>2010-12-19T11:26:09Z</time>
      </trkpt>
      <trkpt lat="43.81711" lon="7.1613">
        <ele>607</ele>
        <time>2010-12-19T11:26:16Z</time>
      </trkpt>
      <trkpt lat="43.81709" lon="7.16117">
        <ele>608</ele>
        <time>2010-12-19T11:26:21Z</time>
      </trkpt>
      <trkpt lat="43.81708" lon="7.16103">
        <ele>608</ele>
        <time>2010-12-19T11:26:26Z</time>
      </trkpt>
      <trkpt lat="43.81706" lon="7.16091">
        <ele>609</ele>
        <time>2010-12-19T11:26:31Z</time>
      </trkpt>
      <trkpt lat="43.81702" lon="7.16079">
        <ele>610</ele>
        <time>2010-12-19T11:26:37Z</time>
      </trkpt>
      <trkpt lat="43.81696" lon="7.16069">
        <ele>611</ele>
        <time>2010-12-19T11:26:42Z</time>
      </trkpt>
      <trkpt lat="43.81692" lon="7.16061">
        <ele>611</ele>
        <time>2010-12-19T11:26:46Z</time>
      </trkpt>
      <trkpt lat="43.81687" lon="7.16051">
        <ele>612</ele>
        <time>2010-12-19T11:26:51Z</time>
      </trkpt>
      <trkpt lat="43.81684" lon="7.16038">
        <ele>612</ele>
        <time>2010-12-19T11:26:57Z</time>
      </trkpt>
      <trkpt lat="43.81675" lon="7.16035">
        <ele>613</ele>
        <time>2010-12-19T11:27:04Z</time>
      </trkpt>
      <trkpt lat="43.8167" lon="7.16048">
        <ele>614</ele>
        <time>2010-12-19T11:27:09Z</time>
      </trkpt>
      <trkpt lat="43.81668" lon="7.16061">
        <ele>615</ele>
        <time>2010-12-19T11:27:15Z</time>
      </trkpt>
      <trkpt lat="43.81667" lon="7.16061">
        <ele>615</ele>
        <time>2010-12-19T11:27:18Z</time>
      </trkpt>
      <trkpt lat="43.81662" lon="7.1605">
        <ele>616</ele>
        <time>2010-12-19T11:27:25Z</time>
      </trkpt>
      <trkpt lat="43.8166" lon="7.16037">
        <ele>617</ele>
        <time>2010-12-19T11:27:32Z</time>
      </trkpt>
      <trkpt lat="43.81658" lon="7.16023">
        <ele>617</ele>
        <time>2010-12-19T11:27:39Z</time>
      </trkpt>
      <trkpt lat="43.81657" lon="7.1601">
        <ele>618</ele>
        <time>2010-12-19T11:27:46Z</time>
      </trkpt>
      <trkpt lat="43.81657" lon="7.15997">
        <ele>619</ele>
        <time>2010-12-19T11:27:53Z</time>
      </trkpt>
      <trkpt lat="43.81658" lon="7.15985">
        <ele>619</ele>
        <time>2010-12-19T11:27:59Z</time>
      </trkpt>
      <trkpt lat="43.81656" lon="7.15972">
        <ele>620</ele>
        <time>2010-12-19T11:28:05Z</time>
      </trkpt>
      <trkpt lat="43.81651" lon="7.15961">
        <ele>621</ele>
        <time>2010-12-19T11:28:11Z</time>
      </trkpt>
      <trkpt lat="43.81644" lon="7.15952">
        <ele>622</ele>
        <time>2010-12-19T11:28:17Z</time>
      </trkpt>
      <trkpt lat="43.81636" lon="7.15945">
        <ele>623</ele>
        <time>2010-12-19T11:28:22Z</time>
      </trkpt>
      <trkpt lat="43.81629" lon="7.15936">
        <ele>624</ele>
        <time>2010-12-19T11:28:27Z</time>
      </trkpt>
      <trkpt lat="43.81625" lon="7.15929">
        <ele>624</ele>
        <time>2010-12-19T11:28:31Z</time>
      </trkpt>
      <trkpt lat="43.8162" lon="7.15917">
        <ele>625</ele>
        <time>2010-12-19T11:28:37Z</time>
      </trkpt>
      <trkpt lat="43.8162" lon="7.15916">
        <ele>625</ele>
        <time>2010-12-19T11:28:37Z</time>
      </trkpt>
      <trkpt lat="43.81615" lon="7.15902">
        <ele>625</ele>
        <time>2010-12-19T11:28:43Z</time>
      </trkpt>
      <trkpt lat="43.81612" lon="7.1589">
        <ele>627</ele>
        <time>2010-12-19T11:28:47Z</time>
      </trkpt>
      <trkpt lat="43.81608" lon="7.15877">
        <ele>628</ele>
        <time>2010-12-19T11:28:52Z</time>
      </trkpt>
      <trkpt lat="43.81604" lon="7.15863">
        <ele>629</ele>
        <time>2010-12-19T11:28:57Z</time>
      </trkpt>
      <trkpt lat="43.81599" lon="7.1585">
        <ele>630</ele>
        <time>2010-12-19T11:29:00Z</time>
      </trkpt>
      <trkpt lat="43.81594" lon="7.15838">
        <ele>630</ele>
        <time>2010-12-19T11:29:04Z</time>
      </trkpt>
      <trkpt lat="43.81591" lon="7.1583">
        <ele>630</ele>
        <time>2010-12-19T11:29:06Z</time>
      </trkpt>
      <trkpt lat="43.81587" lon="7.15817">
        <ele>631</ele>
        <time>2010-12-19T11:29:10Z</time>
      </trkpt>
      <trkpt lat="43.81581" lon="7.15807">
        <ele>633</ele>
        <time>2010-12-19T11:29:14Z</time>
      </trkpt>
      <trkpt lat="43.81574" lon="7.15799">
        <ele>634</ele>
        <time>2010-12-19T11:29:18Z</time>
      </trkpt>
      <trkpt lat="43.81572" lon="7.15798">
        <ele>634</ele>
        <time>2010-12-19T11:29:19Z</time>
      </trkpt>
      <trkpt lat="43.81562" lon="7.15794">
        <ele>634</ele>
        <time>2010-12-19T11:29:22Z</time>
      </trkpt>
      <trkpt lat="43.81553" lon="7.15791">
        <ele>635</ele>
        <time>2010-12-19T11:29:26Z</time>
      </trkpt>
      <trkpt lat="43.81544" lon="7.15786">
        <ele>636</ele>
        <time>2010-12-19T11:29:31Z</time>
      </trkpt>
      <trkpt lat="43.81535" lon="7.1578">
        <ele>636</ele>
        <time>2010-12-19T11:29:35Z</time>
      </trkpt>
      <trkpt lat="43.81527" lon="7.15773">
        <ele>637</ele>
        <time>2010-12-19T11:29:39Z</time>
      </trkpt>
      <trkpt lat="43.81519" lon="7.15764">
        <ele>637</ele>
        <time>2010-12-19T11:29:45Z</time>
      </trkpt>
      <trkpt lat="43.81513" lon="7.15755">
        <ele>638</ele>
        <time>2010-12-19T11:29:50Z</time>
      </trkpt>
      <trkpt lat="43.81506" lon="7.15746">
        <ele>639</ele>
        <time>2010-12-19T11:29:55Z</time>
      </trkpt>
      <trkpt lat="43.815" lon="7.15736">
        <ele>640</ele>
        <time>2010-12-19T11:30:00Z</time>
      </trkpt>
      <trkpt lat="43.81494" lon="7.15724">
        <ele>641</ele>
        <time>2010-12-19T11:30:06Z</time>
      </trkpt>
      <trkpt lat="43.81489" lon="7.15713">
        <ele>641</ele>
        <time>2010-12-19T11:30:12Z</time>
      </trkpt>
      <trkpt lat="43.81485" lon="7.15702">
        <ele>642</ele>
        <time>2010-12-19T11:30:18Z</time>
      </trkpt>
      <trkpt lat="43.81481" lon="7.1569">
        <ele>643</ele>
        <time>2010-12-19T11:30:25Z</time>
      </trkpt>
      <trkpt lat="43.8148" lon="7.15677">
        <ele>645</ele>
        <time>2010-12-19T11:30:32Z</time>
      </trkpt>
      <trkpt lat="43.81477" lon="7.15668">
        <ele>647</ele>
        <time>2010-12-19T11:30:37Z</time>
      </trkpt>
      <trkpt lat="43.81472" lon="7.15656">
        <ele>651</ele>
        <time>2010-12-19T11:30:44Z</time>
      </trkpt>
      <trkpt lat="43.81467" lon="7.15644">
        <ele>654</ele>
        <time>2010-12-19T11:30:51Z</time>
      </trkpt>
      <trkpt lat="43.81461" lon="7.15634">
        <ele>657</ele>
        <time>2010-12-19T11:30:57Z</time>
      </trkpt>
      <trkpt lat="43.81454" lon="7.15624">
        <ele>659</ele>
        <time>2010-12-19T11:31:03Z</time>
      </trkpt>
      <trkpt lat="43.81447" lon="7.15614">
        <ele>660</ele>
        <time>2010-12-19T11:31:09Z</time>
      </trkpt>
      <trkpt lat="43.81442" lon="7.15602">
        <ele>662</ele>
        <time>2010-12-19T11:31:15Z</time>
      </trkpt>
      <trkpt lat="43.81441" lon="7.15599">
        <ele>663</ele>
        <time>2010-12-19T11:31:17Z</time>
      </trkpt>
      <trkpt lat="43.81438" lon="7.15586">
        <ele>664</ele>
        <time>2010-12-19T11:31:23Z</time>
      </trkpt>
      <trkpt lat="43.81434" lon="7.15576">
        <ele>665</ele>
        <time>2010-12-19T11:31:27Z</time>
      </trkpt>
      <trkpt lat="43.81428" lon="7.15566">
        <ele>666</ele>
        <time>2010-12-19T11:31:33Z</time>
      </trkpt>
      <trkpt lat="43.81421" lon="7.15557">
        <ele>667</ele>
        <time>2010-12-19T11:31:38Z</time>
      </trkpt>
      <trkpt lat="43.81411" lon="7.15553">
        <ele>667</ele>
        <time>2010-12-19T11:31:44Z</time>
      </trkpt>
      <trkpt lat="43.81402" lon="7.15552">
        <ele>668</ele>
        <time>2010-12-19T11:31:51Z</time>
      </trkpt>
      <trkpt lat="43.81392" lon="7.15553">
        <ele>669</ele>
        <time>2010-12-19T11:32:00Z</time>
      </trkpt>
      <trkpt lat="43.81391" lon="7.15553">
        <ele>669</ele>
        <time>2010-12-19T11:32:01Z</time>
      </trkpt>
      <trkpt lat="43.81382" lon="7.15554">
        <ele>671</ele>
        <time>2010-12-19T11:32:07Z</time>
      </trkpt>
      <trkpt lat="43.81372" lon="7.15557">
        <ele>671</ele>
        <time>2010-12-19T11:32:13Z</time>
      </trkpt>
      <trkpt lat="43.81363" lon="7.15558">
        <ele>673</ele>
        <time>2010-12-19T11:32:21Z</time>
      </trkpt>
      <trkpt lat="43.81354" lon="7.15557">
        <ele>677</ele>
        <time>2010-12-19T11:32:38Z</time>
      </trkpt>
      <trkpt lat="43.81356" lon="7.15552">
        <ele>685</ele>
        <time>2010-12-19T11:35:13Z</time>
      </trkpt>
      <trkpt lat="43.81356" lon="7.15552">
        <ele>685</ele>
        <time>2010-12-19T11:35:13Z</time>
      </trkpt>
      <trkpt lat="43.81356" lon="7.15552">
        <ele>685</ele>
        <time>2010-12-19T11:35:13Z</time>
      </trkpt>
      <trkpt lat="43.81356" lon="7.15552">
        <ele>685</ele>
        <time>2010-12-19T11:35:15Z</time>
      </trkpt>
      <trkpt lat="43.81354" lon="7.15547">
        <ele>689</ele>
        <time>2010-12-19T11:36:01Z</time>
      </trkpt>
      <trkpt lat="43.81354" lon="7.15547">
        <ele>689</ele>
        <time>2010-12-19T11:36:01Z</time>
      </trkpt>
      <trkpt lat="43.81354" lon="7.15547">
        <ele>689</ele>
        <time>2010-12-19T11:36:01Z</time>
      </trkpt>
      <trkpt lat="43.81355" lon="7.15554">
        <ele>679</ele>
        <time>2010-12-19T11:36:41Z</time>
      </trkpt>
      <trkpt lat="43.81362" lon="7.15545">
        <ele>679</ele>
        <time>2010-12-19T11:36:51Z</time>
      </trkpt>
      <trkpt lat="43.8137" lon="7.1554">
        <ele>679</ele>
        <time>2010-12-19T11:36:54Z</time>
      </trkpt>
      <trkpt lat="43.81378" lon="7.15535">
        <ele>679</ele>
        <time>2010-12-19T11:36:58Z</time>
      </trkpt>
      <trkpt lat="43.81385" lon="7.15532">
        <ele>680</ele>
        <time>2010-12-19T11:37:01Z</time>
      </trkpt>
      <trkpt lat="43.81391" lon="7.15523">
        <ele>682</ele>
        <time>2010-12-19T11:37:14Z</time>
      </trkpt>
      <trkpt lat="43.81397" lon="7.15507">
        <ele>683</ele>
        <time>2010-12-19T11:37:35Z</time>
      </trkpt>
      <trkpt lat="43.814" lon="7.15493">
        <ele>684</ele>
        <time>2010-12-19T11:37:43Z</time>
      </trkpt>
      <trkpt lat="43.81408" lon="7.15469">
        <ele>687</ele>
        <time>2010-12-19T11:38:05Z</time>
      </trkpt>
      <trkpt lat="43.8141" lon="7.15456">
        <ele>688</ele>
        <time>2010-12-19T11:38:10Z</time>
      </trkpt>
      <trkpt lat="43.81414" lon="7.15444">
        <ele>690</ele>
        <time>2010-12-19T11:38:18Z</time>
      </trkpt>
      <trkpt lat="43.81414" lon="7.15431">
        <ele>692</ele>
        <time>2010-12-19T11:38:33Z</time>
      </trkpt>
      <trkpt lat="43.81412" lon="7.15419">
        <ele>693</ele>
        <time>2010-12-19T11:38:45Z</time>
      </trkpt>
      <trkpt lat="43.8141" lon="7.15405">
        <ele>696</ele>
        <time>2010-12-19T11:38:54Z</time>
      </trkpt>
      <trkpt lat="43.81411" lon="7.15387">
        <ele>699</ele>
        <time>2010-12-19T11:39:09Z</time>
      </trkpt>
      <trkpt lat="43.81413" lon="7.15375">
        <ele>700</ele>
        <time>2010-12-19T11:39:18Z</time>
      </trkpt>
      <trkpt lat="43.81419" lon="7.15364">
        <ele>702</ele>
        <time>2010-12-19T11:39:28Z</time>
      </trkpt>
      <trkpt lat="43.81421" lon="7.15359">
        <ele>702</ele>
        <time>2010-12-19T11:39:30Z</time>
      </trkpt>
      <trkpt lat="43.81427" lon="7.15349">
        <ele>703</ele>
        <time>2010-12-19T11:39:36Z</time>
      </trkpt>
      <trkpt lat="43.81431" lon="7.15337">
        <ele>703</ele>
        <time>2010-12-19T11:39:41Z</time>
      </trkpt>
      <trkpt lat="43.81435" lon="7.15325">
        <ele>703</ele>
        <time>2010-12-19T11:39:46Z</time>
      </trkpt>
      <trkpt lat="43.81437" lon="7.15312">
        <ele>704</ele>
        <time>2010-12-19T11:39:52Z</time>
      </trkpt>
      <trkpt lat="43.81437" lon="7.1531">
        <ele>704</ele>
        <time>2010-12-19T11:39:53Z</time>
      </trkpt>
      <trkpt lat="43.81437" lon="7.15297">
        <ele>705</ele>
        <time>2010-12-19T11:39:58Z</time>
      </trkpt>
      <trkpt lat="43.81436" lon="7.15289">
        <ele>706</ele>
        <time>2010-12-19T11:40:02Z</time>
      </trkpt>
      <trkpt lat="43.81437" lon="7.15276">
        <ele>708</ele>
        <time>2010-12-19T11:40:08Z</time>
      </trkpt>
      <trkpt lat="43.81439" lon="7.15263">
        <ele>709</ele>
        <time>2010-12-19T11:40:14Z</time>
      </trkpt>
      <trkpt lat="43.8144" lon="7.15256">
        <ele>710</ele>
        <time>2010-12-19T11:40:17Z</time>
      </trkpt>
      <trkpt lat="43.81444" lon="7.15245">
        <ele>711</ele>
        <time>2010-12-19T11:40:22Z</time>
      </trkpt>
      <trkpt lat="43.81448" lon="7.15234">
        <ele>711</ele>
        <time>2010-12-19T11:40:26Z</time>
      </trkpt>
      <trkpt lat="43.8145" lon="7.1523">
        <ele>711</ele>
        <time>2010-12-19T11:40:28Z</time>
      </trkpt>
      <trkpt lat="43.81453" lon="7.15217">
        <ele>712</ele>
        <time>2010-12-19T11:40:32Z</time>
      </trkpt>
      <trkpt lat="43.81455" lon="7.15204">
        <ele>713</ele>
        <time>2010-12-19T11:40:37Z</time>
      </trkpt>
      <trkpt lat="43.81455" lon="7.15191">
        <ele>713</ele>
        <time>2010-12-19T11:40:41Z</time>
      </trkpt>
      <trkpt lat="43.81455" lon="7.15178">
        <ele>714</ele>
        <time>2010-12-19T11:40:46Z</time>
      </trkpt>
      <trkpt lat="43.81456" lon="7.15165">
        <ele>714</ele>
        <time>2010-12-19T11:40:50Z</time>
      </trkpt>
      <trkpt lat="43.81457" lon="7.15154">
        <ele>714</ele>
        <time>2010-12-19T11:40:54Z</time>
      </trkpt>
      <trkpt lat="43.81458" lon="7.15139">
        <ele>715</ele>
        <time>2010-12-19T11:40:59Z</time>
      </trkpt>
      <trkpt lat="43.81459" lon="7.15127">
        <ele>715</ele>
        <time>2010-12-19T11:41:02Z</time>
      </trkpt>
      <trkpt lat="43.81459" lon="7.15124">
        <ele>716</ele>
        <time>2010-12-19T11:41:03Z</time>
      </trkpt>
      <trkpt lat="43.8146" lon="7.1511">
        <ele>716</ele>
        <time>2010-12-19T11:41:07Z</time>
      </trkpt>
      <trkpt lat="43.81463" lon="7.15097">
        <ele>716</ele>
        <time>2010-12-19T11:41:11Z</time>
      </trkpt>
      <trkpt lat="43.81467" lon="7.15083">
        <ele>716</ele>
        <time>2010-12-19T11:41:15Z</time>
      </trkpt>
      <trkpt lat="43.81468" lon="7.15081">
        <ele>716</ele>
        <time>2010-12-19T11:41:16Z</time>
      </trkpt>
      <trkpt lat="43.81472" lon="7.15068">
        <ele>716</ele>
        <time>2010-12-19T11:41:19Z</time>
      </trkpt>
      <trkpt lat="43.81476" lon="7.15056">
        <ele>717</ele>
        <time>2010-12-19T11:41:23Z</time>
      </trkpt>
      <trkpt lat="43.81479" lon="7.1505">
        <ele>717</ele>
        <time>2010-12-19T11:41:25Z</time>
      </trkpt>
      <trkpt lat="43.81483" lon="7.15037">
        <ele>718</ele>
        <time>2010-12-19T11:41:30Z</time>
      </trkpt>
      <trkpt lat="43.81486" lon="7.15027">
        <ele>719</ele>
        <time>2010-12-19T11:41:34Z</time>
      </trkpt>
      <trkpt lat="43.81489" lon="7.15015">
        <ele>719</ele>
        <time>2010-12-19T11:41:38Z</time>
      </trkpt>
      <trkpt lat="43.81494" lon="7.15003">
        <ele>718</ele>
        <time>2010-12-19T11:41:43Z</time>
      </trkpt>
      <trkpt lat="43.81497" lon="7.1499">
        <ele>718</ele>
        <time>2010-12-19T11:41:47Z</time>
      </trkpt>
      <trkpt lat="43.81497" lon="7.14977">
        <ele>718</ele>
        <time>2010-12-19T11:41:50Z</time>
      </trkpt>
      <trkpt lat="43.81497" lon="7.14968">
        <ele>718</ele>
        <time>2010-12-19T11:41:52Z</time>
      </trkpt>
      <trkpt lat="43.81495" lon="7.14954">
        <ele>717</ele>
        <time>2010-12-19T11:41:54Z</time>
      </trkpt>
      <trkpt lat="43.81493" lon="7.1494">
        <ele>717</ele>
        <time>2010-12-19T11:41:56Z</time>
      </trkpt>
      <trkpt lat="43.81491" lon="7.14928">
        <ele>717</ele>
        <time>2010-12-19T11:41:58Z</time>
      </trkpt>
      <trkpt lat="43.81488" lon="7.14914">
        <ele>717</ele>
        <time>2010-12-19T11:42:02Z</time>
      </trkpt>
      <trkpt lat="43.81485" lon="7.14901">
        <ele>716</ele>
        <time>2010-12-19T11:42:06Z</time>
      </trkpt>
      <trkpt lat="43.81483" lon="7.14888">
        <ele>716</ele>
        <time>2010-12-19T11:42:09Z</time>
      </trkpt>
      <trkpt lat="43.81481" lon="7.14874">
        <ele>716</ele>
        <time>2010-12-19T11:42:13Z</time>
      </trkpt>
      <trkpt lat="43.81479" lon="7.14861">
        <ele>716</ele>
        <time>2010-12-19T11:42:18Z</time>
      </trkpt>
      <trkpt lat="43.81477" lon="7.14848">
        <ele>716</ele>
        <time>2010-12-19T11:42:22Z</time>
      </trkpt>
      <trkpt lat="43.81475" lon="7.14831">
        <ele>716</ele>
        <time>2010-12-19T11:42:28Z</time>
      </trkpt>
      <trkpt lat="43.81475" lon="7.14824">
        <ele>716</ele>
        <time>2010-12-19T11:42:30Z</time>
      </trkpt>
      <trkpt lat="43.81473" lon="7.14811">
        <ele>716</ele>
        <time>2010-12-19T11:42:35Z</time>
      </trkpt>
      <trkpt lat="43.81472" lon="7.14798">
        <ele>717</ele>
        <time>2010-12-19T11:42:39Z</time>
      </trkpt>
      <trkpt lat="43.81469" lon="7.14785">
        <ele>717</ele>
        <time>2010-12-19T11:42:44Z</time>
      </trkpt>
      <trkpt lat="43.81465" lon="7.14771">
        <ele>717</ele>
        <time>2010-12-19T11:42:48Z</time>
      </trkpt>
      <trkpt lat="43.81463" lon="7.14759">
        <ele>717</ele>
        <time>2010-12-19T11:42:52Z</time>
      </trkpt>
      <trkpt lat="43.81462" lon="7.14745">
        <ele>717</ele>
        <time>2010-12-19T11:42:56Z</time>
      </trkpt>
      <trkpt lat="43.81463" lon="7.14732">
        <ele>718</ele>
        <time>2010-12-19T11:42:59Z</time>
      </trkpt>
      <trkpt lat="43.81465" lon="7.14718">
        <ele>719</ele>
        <time>2010-12-19T11:43:02Z</time>
      </trkpt>
      <trkpt lat="43.81467" lon="7.14704">
        <ele>719</ele>
        <time>2010-12-19T11:43:06Z</time>
      </trkpt>
      <trkpt lat="43.81469" lon="7.1469">
        <ele>720</ele>
        <time>2010-12-19T11:43:10Z</time>
      </trkpt>
      <trkpt lat="43.81469" lon="7.14686">
        <ele>720</ele>
        <time>2010-12-19T11:43:12Z</time>
      </trkpt>
      <trkpt lat="43.8147" lon="7.14673">
        <ele>720</ele>
        <time>2010-12-19T11:43:17Z</time>
      </trkpt>
      <trkpt lat="43.81469" lon="7.14659">
        <ele>720</ele>
        <time>2010-12-19T11:43:21Z</time>
      </trkpt>
      <trkpt lat="43.81469" lon="7.14645">
        <ele>719</ele>
        <time>2010-12-19T11:43:26Z</time>
      </trkpt>
      <trkpt lat="43.81467" lon="7.14631">
        <ele>719</ele>
        <time>2010-12-19T11:43:30Z</time>
      </trkpt>
      <trkpt lat="43.81465" lon="7.14618">
        <ele>719</ele>
        <time>2010-12-19T11:43:35Z</time>
      </trkpt>
      <trkpt lat="43.81462" lon="7.14604">
        <ele>718</ele>
        <time>2010-12-19T11:43:39Z</time>
      </trkpt>
      <trkpt lat="43.81458" lon="7.14591">
        <ele>719</ele>
        <time>2010-12-19T11:43:44Z</time>
      </trkpt>
      <trkpt lat="43.81453" lon="7.14577">
        <ele>718</ele>
        <time>2010-12-19T11:43:48Z</time>
      </trkpt>
      <trkpt lat="43.81449" lon="7.14566">
        <ele>717</ele>
        <time>2010-12-19T11:43:52Z</time>
      </trkpt>
      <trkpt lat="43.81444" lon="7.14554">
        <ele>718</ele>
        <time>2010-12-19T11:43:56Z</time>
      </trkpt>
      <trkpt lat="43.81439" lon="7.14544">
        <ele>719</ele>
        <time>2010-12-19T11:44:00Z</time>
      </trkpt>
      <trkpt lat="43.81432" lon="7.14532">
        <ele>719</ele>
        <time>2010-12-19T11:44:03Z</time>
      </trkpt>
      <trkpt lat="43.81427" lon="7.14522">
        <ele>718</ele>
        <time>2010-12-19T11:44:06Z</time>
      </trkpt>
      <trkpt lat="43.81422" lon="7.1451">
        <ele>718</ele>
        <time>2010-12-19T11:44:09Z</time>
      </trkpt>
      <trkpt lat="43.81418" lon="7.14498">
        <ele>718</ele>
        <time>2010-12-19T11:44:13Z</time>
      </trkpt>
      <trkpt lat="43.81415" lon="7.14487">
        <ele>719</ele>
        <time>2010-12-19T11:44:16Z</time>
      </trkpt>
      <trkpt lat="43.81411" lon="7.14473">
        <ele>719</ele>
        <time>2010-12-19T11:44:19Z</time>
      </trkpt>
      <trkpt lat="43.81408" lon="7.1446">
        <ele>719</ele>
        <time>2010-12-19T11:44:23Z</time>
      </trkpt>
      <trkpt lat="43.81406" lon="7.14447">
        <ele>720</ele>
        <time>2010-12-19T11:44:27Z</time>
      </trkpt>
      <trkpt lat="43.81403" lon="7.14435">
        <ele>720</ele>
        <time>2010-12-19T11:44:31Z</time>
      </trkpt>
      <trkpt lat="43.814" lon="7.14421">
        <ele>720</ele>
        <time>2010-12-19T11:44:36Z</time>
      </trkpt>
      <trkpt lat="43.81399" lon="7.14406">
        <ele>720</ele>
        <time>2010-12-19T11:44:40Z</time>
      </trkpt>
      <trkpt lat="43.81397" lon="7.14392">
        <ele>721</ele>
        <time>2010-12-19T11:44:45Z</time>
      </trkpt>
      <trkpt lat="43.81396" lon="7.14381">
        <ele>722</ele>
        <time>2010-12-19T11:44:49Z</time>
      </trkpt>
      <trkpt lat="43.81396" lon="7.14369">
        <ele>723</ele>
        <time>2010-12-19T11:44:53Z</time>
      </trkpt>
      <trkpt lat="43.81394" lon="7.14355">
        <ele>723</ele>
        <time>2010-12-19T11:44:59Z</time>
      </trkpt>
      <trkpt lat="43.81391" lon="7.14341">
        <ele>723</ele>
        <time>2010-12-19T11:45:04Z</time>
      </trkpt>
      <trkpt lat="43.81387" lon="7.14328">
        <ele>725</ele>
        <time>2010-12-19T11:45:09Z</time>
      </trkpt>
      <trkpt lat="43.81385" lon="7.14315">
        <ele>725</ele>
        <time>2010-12-19T11:45:14Z</time>
      </trkpt>
      <trkpt lat="43.81383" lon="7.14302">
        <ele>725</ele>
        <time>2010-12-19T11:45:18Z</time>
      </trkpt>
      <trkpt lat="43.81381" lon="7.14287">
        <ele>726</ele>
        <time>2010-12-19T11:45:22Z</time>
      </trkpt>
      <trkpt lat="43.8138" lon="7.14273">
        <ele>726</ele>
        <time>2010-12-19T11:45:25Z</time>
      </trkpt>
      <trkpt lat="43.81377" lon="7.14261">
        <ele>727</ele>
        <time>2010-12-19T11:45:29Z</time>
      </trkpt>
      <trkpt lat="43.81373" lon="7.14248">
        <ele>727</ele>
        <time>2010-12-19T11:45:34Z</time>
      </trkpt>
      <trkpt lat="43.8137" lon="7.14235">
        <ele>728</ele>
        <time>2010-12-19T11:45:37Z</time>
      </trkpt>
      <trkpt lat="43.81367" lon="7.14223">
        <ele>728</ele>
        <time>2010-12-19T11:45:41Z</time>
      </trkpt>
      <trkpt lat="43.81364" lon="7.14211">
        <ele>728</ele>
        <time>2010-12-19T11:45:45Z</time>
      </trkpt>
      <trkpt lat="43.8136" lon="7.14199">
        <ele>729</ele>
        <time>2010-12-19T11:45:49Z</time>
      </trkpt>
      <trkpt lat="43.81356" lon="7.14187">
        <ele>729</ele>
        <time>2010-12-19T11:45:53Z</time>
      </trkpt>
      <trkpt lat="43.81352" lon="7.14176">
        <ele>730</ele>
        <time>2010-12-19T11:45:56Z</time>
      </trkpt>
      <trkpt lat="43.81351" lon="7.14174">
        <ele>730</ele>
        <time>2010-12-19T11:45:57Z</time>
      </trkpt>
      <trkpt lat="43.81346" lon="7.14163">
        <ele>731</ele>
        <time>2010-12-19T11:46:01Z</time>
      </trkpt>
      <trkpt lat="43.81341" lon="7.14152">
        <ele>732</ele>
        <time>2010-12-19T11:46:05Z</time>
      </trkpt>
      <trkpt lat="43.81339" lon="7.14147">
        <ele>732</ele>
        <time>2010-12-19T11:46:06Z</time>
      </trkpt>
      <trkpt lat="43.81334" lon="7.14136">
        <ele>732</ele>
        <time>2010-12-19T11:46:10Z</time>
      </trkpt>
      <trkpt lat="43.81327" lon="7.14125">
        <ele>731</ele>
        <time>2010-12-19T11:46:14Z</time>
      </trkpt>
      <trkpt lat="43.8132" lon="7.14114">
        <ele>732</ele>
        <time>2010-12-19T11:46:19Z</time>
      </trkpt>
      <trkpt lat="43.81314" lon="7.14104">
        <ele>732</ele>
        <time>2010-12-19T11:46:23Z</time>
      </trkpt>
      <trkpt lat="43.81308" lon="7.14094">
        <ele>732</ele>
        <time>2010-12-19T11:46:26Z</time>
      </trkpt>
      <trkpt lat="43.81302" lon="7.14084">
        <ele>733</ele>
        <time>2010-12-19T11:46:30Z</time>
      </trkpt>
      <trkpt lat="43.81296" lon="7.14073">
        <ele>734</ele>
        <time>2010-12-19T11:46:34Z</time>
      </trkpt>
      <trkpt lat="43.81291" lon="7.14063">
        <ele>733</ele>
        <time>2010-12-19T11:46:38Z</time>
      </trkpt>
      <trkpt lat="43.81285" lon="7.14053">
        <ele>735</ele>
        <time>2010-12-19T11:46:41Z</time>
      </trkpt>
      <trkpt lat="43.8128" lon="7.14042">
        <ele>735</ele>
        <time>2010-12-19T11:46:45Z</time>
      </trkpt>
      <trkpt lat="43.81274" lon="7.14031">
        <ele>735</ele>
        <time>2010-12-19T11:46:49Z</time>
      </trkpt>
      <trkpt lat="43.81267" lon="7.14021">
        <ele>735</ele>
        <time>2010-12-19T11:46:53Z</time>
      </trkpt>
      <trkpt lat="43.81261" lon="7.1401">
        <ele>736</ele>
        <time>2010-12-19T11:46:57Z</time>
      </trkpt>
      <trkpt lat="43.81255" lon="7.13999">
        <ele>737</ele>
        <time>2010-12-19T11:47:01Z</time>
      </trkpt>
      <trkpt lat="43.81249" lon="7.13987">
        <ele>737</ele>
        <time>2010-12-19T11:47:04Z</time>
      </trkpt>
      <trkpt lat="43.81244" lon="7.13975">
        <ele>737</ele>
        <time>2010-12-19T11:47:08Z</time>
      </trkpt>
      <trkpt lat="43.81239" lon="7.13964">
        <ele>737</ele>
        <time>2010-12-19T11:47:12Z</time>
      </trkpt>
      <trkpt lat="43.81233" lon="7.13954">
        <ele>736</ele>
        <time>2010-12-19T11:47:16Z</time>
      </trkpt>
      <trkpt lat="43.81227" lon="7.13945">
        <ele>736</ele>
        <time>2010-12-19T11:47:19Z</time>
      </trkpt>
      <trkpt lat="43.8122" lon="7.13937">
        <ele>735</ele>
        <time>2010-12-19T11:47:23Z</time>
      </trkpt>
      <trkpt lat="43.81213" lon="7.13926">
        <ele>737</ele>
        <time>2010-12-19T11:47:28Z</time>
      </trkpt>
      <trkpt lat="43.81208" lon="7.13916">
        <ele>737</ele>
        <time>2010-12-19T11:47:31Z</time>
      </trkpt>
      <trkpt lat="43.81202" lon="7.13904">
        <ele>738</ele>
        <time>2010-12-19T11:47:36Z</time>
      </trkpt>
      <trkpt lat="43.81197" lon="7.13892">
        <ele>739</ele>
        <time>2010-12-19T11:47:40Z</time>
      </trkpt>
      <trkpt lat="43.81194" lon="7.13886">
        <ele>738</ele>
        <time>2010-12-19T11:47:42Z</time>
      </trkpt>
      <trkpt lat="43.81188" lon="7.13875">
        <ele>739</ele>
        <time>2010-12-19T11:47:47Z</time>
      </trkpt>
      <trkpt lat="43.81181" lon="7.13864">
        <ele>740</ele>
        <time>2010-12-19T11:47:51Z</time>
      </trkpt>
      <trkpt lat="43.81177" lon="7.13852">
        <ele>740</ele>
        <time>2010-12-19T11:47:55Z</time>
      </trkpt>
      <trkpt lat="43.81176" lon="7.13837">
        <ele>741</ele>
        <time>2010-12-19T11:47:59Z</time>
      </trkpt>
      <trkpt lat="43.81177" lon="7.13831">
        <ele>742</ele>
        <time>2010-12-19T11:48:01Z</time>
      </trkpt>
      <trkpt lat="43.81182" lon="7.13818">
        <ele>744</ele>
        <time>2010-12-19T11:48:04Z</time>
      </trkpt>
      <trkpt lat="43.81185" lon="7.13806">
        <ele>745</ele>
        <time>2010-12-19T11:48:07Z</time>
      </trkpt>
      <trkpt lat="43.81188" lon="7.13794">
        <ele>746</ele>
        <time>2010-12-19T11:48:10Z</time>
      </trkpt>
      <trkpt lat="43.81189" lon="7.13779">
        <ele>746</ele>
        <time>2010-12-19T11:48:14Z</time>
      </trkpt>
      <trkpt lat="43.8119" lon="7.13766">
        <ele>746</ele>
        <time>2010-12-19T11:48:17Z</time>
      </trkpt>
      <trkpt lat="43.81191" lon="7.13757">
        <ele>746</ele>
        <time>2010-12-19T11:48:20Z</time>
      </trkpt>
      <trkpt lat="43.81191" lon="7.13744">
        <ele>747</ele>
        <time>2010-12-19T11:48:23Z</time>
      </trkpt>
      <trkpt lat="43.81191" lon="7.13729">
        <ele>747</ele>
        <time>2010-12-19T11:48:27Z</time>
      </trkpt>
      <trkpt lat="43.81188" lon="7.13716">
        <ele>748</ele>
        <time>2010-12-19T11:48:30Z</time>
      </trkpt>
      <trkpt lat="43.81184" lon="7.13704">
        <ele>748</ele>
        <time>2010-12-19T11:48:34Z</time>
      </trkpt>
      <trkpt lat="43.81179" lon="7.13692">
        <ele>748</ele>
        <time>2010-12-19T11:48:39Z</time>
      </trkpt>
      <trkpt lat="43.81174" lon="7.1368">
        <ele>749</ele>
        <time>2010-12-19T11:48:43Z</time>
      </trkpt>
      <trkpt lat="43.8117" lon="7.13669">
        <ele>749</ele>
        <time>2010-12-19T11:48:48Z</time>
      </trkpt>
      <trkpt lat="43.81166" lon="7.13658">
        <ele>750</ele>
        <time>2010-12-19T11:48:53Z</time>
      </trkpt>
      <trkpt lat="43.81163" lon="7.1365">
        <ele>751</ele>
        <time>2010-12-19T11:48:56Z</time>
      </trkpt>
      <trkpt lat="43.81158" lon="7.13638">
        <ele>751</ele>
        <time>2010-12-19T11:49:00Z</time>
      </trkpt>
      <trkpt lat="43.81154" lon="7.13629">
        <ele>752</ele>
        <time>2010-12-19T11:49:04Z</time>
      </trkpt>
      <trkpt lat="43.81149" lon="7.13616">
        <ele>752</ele>
        <time>2010-12-19T11:49:09Z</time>
      </trkpt>
      <trkpt lat="43.81145" lon="7.13604">
        <ele>753</ele>
        <time>2010-12-19T11:49:13Z</time>
      </trkpt>
      <trkpt lat="43.81142" lon="7.13591">
        <ele>755</ele>
        <time>2010-12-19T11:49:19Z</time>
      </trkpt>
      <trkpt lat="43.81142" lon="7.13588">
        <ele>756</ele>
        <time>2010-12-19T11:49:20Z</time>
      </trkpt>
      <trkpt lat="43.81138" lon="7.13576">
        <ele>757</ele>
        <time>2010-12-19T11:49:27Z</time>
      </trkpt>
      <trkpt lat="43.81133" lon="7.13563">
        <ele>757</ele>
        <time>2010-12-19T11:49:34Z</time>
      </trkpt>
      <trkpt lat="43.81128" lon="7.13552">
        <ele>758</ele>
        <time>2010-12-19T11:49:40Z</time>
      </trkpt>
      <trkpt lat="43.81124" lon="7.13541">
        <ele>759</ele>
        <time>2010-12-19T11:49:45Z</time>
      </trkpt>
      <trkpt lat="43.81123" lon="7.13539">
        <ele>759</ele>
        <time>2010-12-19T11:49:46Z</time>
      </trkpt>
      <trkpt lat="43.81117" lon="7.13528">
        <ele>759</ele>
        <time>2010-12-19T11:49:51Z</time>
      </trkpt>
      <trkpt lat="43.81111" lon="7.13517">
        <ele>760</ele>
        <time>2010-12-19T11:49:56Z</time>
      </trkpt>
      <trkpt lat="43.81105" lon="7.13507">
        <ele>760</ele>
        <time>2010-12-19T11:50:02Z</time>
      </trkpt>
      <trkpt lat="43.811" lon="7.13496">
        <ele>761</ele>
        <time>2010-12-19T11:50:07Z</time>
      </trkpt>
      <trkpt lat="43.81095" lon="7.13486">
        <ele>762</ele>
        <time>2010-12-19T11:50:12Z</time>
      </trkpt>
      <trkpt lat="43.81091" lon="7.13473">
        <ele>764</ele>
        <time>2010-12-19T11:50:19Z</time>
      </trkpt>
      <trkpt lat="43.8109" lon="7.13472">
        <ele>764</ele>
        <time>2010-12-19T11:50:19Z</time>
      </trkpt>
      <trkpt lat="43.81084" lon="7.13461">
        <ele>763</ele>
        <time>2010-12-19T11:50:25Z</time>
      </trkpt>
      <trkpt lat="43.81079" lon="7.1345">
        <ele>764</ele>
        <time>2010-12-19T11:50:30Z</time>
      </trkpt>
      <trkpt lat="43.81073" lon="7.13439">
        <ele>766</ele>
        <time>2010-12-19T11:50:36Z</time>
      </trkpt>
      <trkpt lat="43.81068" lon="7.1343">
        <ele>767</ele>
        <time>2010-12-19T11:50:41Z</time>
      </trkpt>
      <trkpt lat="43.81062" lon="7.13419">
        <ele>767</ele>
        <time>2010-12-19T11:50:47Z</time>
      </trkpt>
      <trkpt lat="43.81056" lon="7.13408">
        <ele>768</ele>
        <time>2010-12-19T11:50:52Z</time>
      </trkpt>
      <trkpt lat="43.8105" lon="7.13399">
        <ele>769</ele>
        <time>2010-12-19T11:50:57Z</time>
      </trkpt>
      <trkpt lat="43.81043" lon="7.1339">
        <ele>769</ele>
        <time>2010-12-19T11:51:02Z</time>
      </trkpt>
      <trkpt lat="43.81035" lon="7.1338">
        <ele>770</ele>
        <time>2010-12-19T11:51:07Z</time>
      </trkpt>
      <trkpt lat="43.81031" lon="7.13376">
        <ele>770</ele>
        <time>2010-12-19T11:51:09Z</time>
      </trkpt>
      <trkpt lat="43.81024" lon="7.13368">
        <ele>770</ele>
        <time>2010-12-19T11:51:14Z</time>
      </trkpt>
      <trkpt lat="43.81017" lon="7.13357">
        <ele>771</ele>
        <time>2010-12-19T11:51:18Z</time>
      </trkpt>
      <trkpt lat="43.81012" lon="7.13345">
        <ele>771</ele>
        <time>2010-12-19T11:51:23Z</time>
      </trkpt>
      <trkpt lat="43.81008" lon="7.13333">
        <ele>771</ele>
        <time>2010-12-19T11:51:28Z</time>
      </trkpt>
      <trkpt lat="43.81004" lon="7.13321">
        <ele>772</ele>
        <time>2010-12-19T11:51:33Z</time>
      </trkpt>
      <trkpt lat="43.80999" lon="7.13308">
        <ele>773</ele>
        <time>2010-12-19T11:51:38Z</time>
      </trkpt>
      <trkpt lat="43.80994" lon="7.13296">
        <ele>774</ele>
        <time>2010-12-19T11:51:44Z</time>
      </trkpt>
      <trkpt lat="43.80988" lon="7.13286">
        <ele>775</ele>
        <time>2010-12-19T11:51:49Z</time>
      </trkpt>
      <trkpt lat="43.80982" lon="7.13275">
        <ele>777</ele>
        <time>2010-12-19T11:51:57Z</time>
      </trkpt>
      <trkpt lat="43.80979" lon="7.13262">
        <ele>778</ele>
        <time>2010-12-19T11:52:04Z</time>
      </trkpt>
      <trkpt lat="43.80977" lon="7.13255">
        <ele>778</ele>
        <time>2010-12-19T11:52:08Z</time>
      </trkpt>
      <trkpt lat="43.80973" lon="7.13243">
        <ele>779</ele>
        <time>2010-12-19T11:52:15Z</time>
      </trkpt>
      <trkpt lat="43.80972" lon="7.13243">
        <ele>779</ele>
        <time>2010-12-19T11:52:16Z</time>
      </trkpt>
      <trkpt lat="43.80969" lon="7.13231">
        <ele>781</ele>
        <time>2010-12-19T11:52:31Z</time>
      </trkpt>
      <trkpt lat="43.80967" lon="7.13224">
        <ele>782</ele>
        <time>2010-12-19T11:52:35Z</time>
      </trkpt>
      <trkpt lat="43.80962" lon="7.13212">
        <ele>783</ele>
        <time>2010-12-19T11:52:42Z</time>
      </trkpt>
      <trkpt lat="43.80956" lon="7.13201">
        <ele>784</ele>
        <time>2010-12-19T11:52:48Z</time>
      </trkpt>
      <trkpt lat="43.80949" lon="7.13191">
        <ele>785</ele>
        <time>2010-12-19T11:52:54Z</time>
      </trkpt>
      <trkpt lat="43.80943" lon="7.13184">
        <ele>785</ele>
        <time>2010-12-19T11:53:00Z</time>
      </trkpt>
      <trkpt lat="43.80935" lon="7.13176">
        <ele>786</ele>
        <time>2010-12-19T11:53:06Z</time>
      </trkpt>
      <trkpt lat="43.80928" lon="7.13167">
        <ele>787</ele>
        <time>2010-12-19T11:53:13Z</time>
      </trkpt>
      <trkpt lat="43.80922" lon="7.13157">
        <ele>789</ele>
        <time>2010-12-19T11:53:21Z</time>
      </trkpt>
      <trkpt lat="43.80917" lon="7.1315">
        <ele>790</ele>
        <time>2010-12-19T11:53:27Z</time>
      </trkpt>
      <trkpt lat="43.8091" lon="7.13142">
        <ele>791</ele>
        <time>2010-12-19T11:53:35Z</time>
      </trkpt>
      <trkpt lat="43.80902" lon="7.13133">
        <ele>792</ele>
        <time>2010-12-19T11:53:43Z</time>
      </trkpt>
      <trkpt lat="43.80895" lon="7.13125">
        <ele>794</ele>
        <time>2010-12-19T11:53:51Z</time>
      </trkpt>
      <trkpt lat="43.80892" lon="7.13121">
        <ele>794</ele>
        <time>2010-12-19T11:53:55Z</time>
      </trkpt>
      <trkpt lat="43.80885" lon="7.13112">
        <ele>795</ele>
        <time>2010-12-19T11:54:03Z</time>
      </trkpt>
      <trkpt lat="43.80878" lon="7.13103">
        <ele>796</ele>
        <time>2010-12-19T11:54:11Z</time>
      </trkpt>
      <trkpt lat="43.80871" lon="7.13094">
        <ele>798</ele>
        <time>2010-12-19T11:54:18Z</time>
      </trkpt>
      <trkpt lat="43.80869" lon="7.13092">
        <ele>798</ele>
        <time>2010-12-19T11:54:20Z</time>
      </trkpt>
      <trkpt lat="43.80863" lon="7.13081">
        <ele>798</ele>
        <time>2010-12-19T11:54:36Z</time>
      </trkpt>
      <trkpt lat="43.80856" lon="7.13072">
        <ele>801</ele>
        <time>2010-12-19T11:54:45Z</time>
      </trkpt>
      <trkpt lat="43.8085" lon="7.13062">
        <ele>802</ele>
        <time>2010-12-19T11:54:53Z</time>
      </trkpt>
      <trkpt lat="43.80844" lon="7.13052">
        <ele>803</ele>
        <time>2010-12-19T11:55:00Z</time>
      </trkpt>
      <trkpt lat="43.80841" lon="7.1304">
        <ele>806</ele>
        <time>2010-12-19T11:55:07Z</time>
      </trkpt>
      <trkpt lat="43.80838" lon="7.13026">
        <ele>807</ele>
        <time>2010-12-19T11:55:14Z</time>
      </trkpt>
      <trkpt lat="43.80837" lon="7.13014">
        <ele>808</ele>
        <time>2010-12-19T11:55:21Z</time>
      </trkpt>
      <trkpt lat="43.80835" lon="7.13003">
        <ele>808</ele>
        <time>2010-12-19T11:55:28Z</time>
      </trkpt>
      <trkpt lat="43.80829" lon="7.12993">
        <ele>810</ele>
        <time>2010-12-19T11:55:37Z</time>
      </trkpt>
      <trkpt lat="43.80824" lon="7.12988">
        <ele>811</ele>
        <time>2010-12-19T11:55:42Z</time>
      </trkpt>
      <trkpt lat="43.80815" lon="7.12983">
        <ele>812</ele>
        <time>2010-12-19T11:55:50Z</time>
      </trkpt>
      <trkpt lat="43.80813" lon="7.12981">
        <ele>812</ele>
        <time>2010-12-19T11:55:52Z</time>
      </trkpt>
      <trkpt lat="43.80805" lon="7.12974">
        <ele>813</ele>
        <time>2010-12-19T11:55:58Z</time>
      </trkpt>
      <trkpt lat="43.80801" lon="7.1297">
        <ele>813</ele>
        <time>2010-12-19T11:56:02Z</time>
      </trkpt>
      <trkpt lat="43.80794" lon="7.1296">
        <ele>815</ele>
        <time>2010-12-19T11:56:10Z</time>
      </trkpt>
      <trkpt lat="43.80788" lon="7.12951">
        <ele>816</ele>
        <time>2010-12-19T11:56:16Z</time>
      </trkpt>
      <trkpt lat="43.80782" lon="7.12941">
        <ele>818</ele>
        <time>2010-12-19T11:56:21Z</time>
      </trkpt>
      <trkpt lat="43.80775" lon="7.12931">
        <ele>818</ele>
        <time>2010-12-19T11:56:27Z</time>
      </trkpt>
      <trkpt lat="43.80769" lon="7.1292">
        <ele>820</ele>
        <time>2010-12-19T11:56:34Z</time>
      </trkpt>
      <trkpt lat="43.80763" lon="7.1291">
        <ele>821</ele>
        <time>2010-12-19T11:56:40Z</time>
      </trkpt>
      <trkpt lat="43.80757" lon="7.12899">
        <ele>822</ele>
        <time>2010-12-19T11:56:46Z</time>
      </trkpt>
      <trkpt lat="43.80753" lon="7.12888">
        <ele>823</ele>
        <time>2010-12-19T11:56:52Z</time>
      </trkpt>
      <trkpt lat="43.80749" lon="7.12875">
        <ele>824</ele>
        <time>2010-12-19T11:56:58Z</time>
      </trkpt>
      <trkpt lat="43.80745" lon="7.12863">
        <ele>826</ele>
        <time>2010-12-19T11:57:05Z</time>
      </trkpt>
      <trkpt lat="43.80741" lon="7.12851">
        <ele>826</ele>
        <time>2010-12-19T11:57:11Z</time>
      </trkpt>
      <trkpt lat="43.80739" lon="7.12846">
        <ele>826</ele>
        <time>2010-12-19T11:57:13Z</time>
      </trkpt>
      <trkpt lat="43.80734" lon="7.12835">
        <ele>828</ele>
        <time>2010-12-19T11:57:19Z</time>
      </trkpt>
      <trkpt lat="43.80729" lon="7.12822">
        <ele>828</ele>
        <time>2010-12-19T11:57:24Z</time>
      </trkpt>
      <trkpt lat="43.80724" lon="7.1281">
        <ele>829</ele>
        <time>2010-12-19T11:57:29Z</time>
      </trkpt>
      <trkpt lat="43.80722" lon="7.12803">
        <ele>830</ele>
        <time>2010-12-19T11:57:31Z</time>
      </trkpt>
      <trkpt lat="43.80718" lon="7.12791">
        <ele>831</ele>
        <time>2010-12-19T11:57:36Z</time>
      </trkpt>
      <trkpt lat="43.80715" lon="7.12778">
        <ele>832</ele>
        <time>2010-12-19T11:57:41Z</time>
      </trkpt>
      <trkpt lat="43.80711" lon="7.12766">
        <ele>833</ele>
        <time>2010-12-19T11:57:45Z</time>
      </trkpt>
      <trkpt lat="43.8071" lon="7.12765">
        <ele>833</ele>
        <time>2010-12-19T11:57:46Z</time>
      </trkpt>
      <trkpt lat="43.80705" lon="7.12754">
        <ele>835</ele>
        <time>2010-12-19T11:57:52Z</time>
      </trkpt>
      <trkpt lat="43.80699" lon="7.12744">
        <ele>836</ele>
        <time>2010-12-19T11:57:57Z</time>
      </trkpt>
      <trkpt lat="43.80693" lon="7.12733">
        <ele>837</ele>
        <time>2010-12-19T11:58:03Z</time>
      </trkpt>
      <trkpt lat="43.80693" lon="7.12731">
        <ele>837</ele>
        <time>2010-12-19T11:58:04Z</time>
      </trkpt>
      <trkpt lat="43.80689" lon="7.12718">
        <ele>838</ele>
        <time>2010-12-19T11:58:09Z</time>
      </trkpt>
      <trkpt lat="43.80686" lon="7.12705">
        <ele>839</ele>
        <time>2010-12-19T11:58:14Z</time>
      </trkpt>
      <trkpt lat="43.80681" lon="7.12693">
        <ele>839</ele>
        <time>2010-12-19T11:58:20Z</time>
      </trkpt>
      <trkpt lat="43.8068" lon="7.12692">
        <ele>839</ele>
        <time>2010-12-19T11:58:21Z</time>
      </trkpt>
      <trkpt lat="43.80675" lon="7.12681">
        <ele>840</ele>
        <time>2010-12-19T11:58:27Z</time>
      </trkpt>
      <trkpt lat="43.80669" lon="7.1267">
        <ele>841</ele>
        <time>2010-12-19T11:58:34Z</time>
      </trkpt>
      <trkpt lat="43.80664" lon="7.12659">
        <ele>841</ele>
        <time>2010-12-19T11:58:40Z</time>
      </trkpt>
      <trkpt lat="43.80663" lon="7.12657">
        <ele>841</ele>
        <time>2010-12-19T11:58:41Z</time>
      </trkpt>
      <trkpt lat="43.80659" lon="7.12644">
        <ele>843</ele>
        <time>2010-12-19T11:58:47Z</time>
      </trkpt>
      <trkpt lat="43.80655" lon="7.12632">
        <ele>844</ele>
        <time>2010-12-19T11:58:53Z</time>
      </trkpt>
      <trkpt lat="43.80652" lon="7.12618">
        <ele>846</ele>
        <time>2010-12-19T11:58:59Z</time>
      </trkpt>
      <trkpt lat="43.80649" lon="7.12605">
        <ele>846</ele>
        <time>2010-12-19T11:59:05Z</time>
      </trkpt>
      <trkpt lat="43.80644" lon="7.12592">
        <ele>846</ele>
        <time>2010-12-19T11:59:11Z</time>
      </trkpt>
      <trkpt lat="43.8064" lon="7.12581">
        <ele>846</ele>
        <time>2010-12-19T11:59:16Z</time>
      </trkpt>
      <trkpt lat="43.80635" lon="7.12569">
        <ele>846</ele>
        <time>2010-12-19T11:59:20Z</time>
      </trkpt>
      <trkpt lat="43.8063" lon="7.12558">
        <ele>848</ele>
        <time>2010-12-19T11:59:25Z</time>
      </trkpt>
      <trkpt lat="43.80624" lon="7.12547">
        <ele>848</ele>
        <time>2010-12-19T11:59:30Z</time>
      </trkpt>
      <trkpt lat="43.80617" lon="7.12536">
        <ele>849</ele>
        <time>2010-12-19T11:59:36Z</time>
      </trkpt>
      <trkpt lat="43.8061" lon="7.12527">
        <ele>850</ele>
        <time>2010-12-19T11:59:41Z</time>
      </trkpt>
      <trkpt lat="43.80603" lon="7.12518">
        <ele>851</ele>
        <time>2010-12-19T11:59:46Z</time>
      </trkpt>
      <trkpt lat="43.80597" lon="7.12509">
        <ele>852</ele>
        <time>2010-12-19T11:59:52Z</time>
      </trkpt>
      <trkpt lat="43.8059" lon="7.125">
        <ele>853</ele>
        <time>2010-12-19T11:59:57Z</time>
      </trkpt>
      <trkpt lat="43.80584" lon="7.1249">
        <ele>853</ele>
        <time>2010-12-19T12:00:03Z</time>
      </trkpt>
      <trkpt lat="43.80577" lon="7.12481">
        <ele>854</ele>
        <time>2010-12-19T12:00:10Z</time>
      </trkpt>
      <trkpt lat="43.8057" lon="7.12471">
        <ele>854</ele>
        <time>2010-12-19T12:00:18Z</time>
      </trkpt>
      <trkpt lat="43.80566" lon="7.12467">
        <ele>855</ele>
        <time>2010-12-19T12:00:22Z</time>
      </trkpt>
      <trkpt lat="43.80559" lon="7.12459">
        <ele>856</ele>
        <time>2010-12-19T12:00:28Z</time>
      </trkpt>
      <trkpt lat="43.80552" lon="7.12451">
        <ele>856</ele>
        <time>2010-12-19T12:00:35Z</time>
      </trkpt>
      <trkpt lat="43.80544" lon="7.12444">
        <ele>858</ele>
        <time>2010-12-19T12:00:42Z</time>
      </trkpt>
      <trkpt lat="43.80539" lon="7.1244">
        <ele>858</ele>
        <time>2010-12-19T12:00:46Z</time>
      </trkpt>
      <trkpt lat="43.80531" lon="7.12433">
        <ele>859</ele>
        <time>2010-12-19T12:00:53Z</time>
      </trkpt>
      <trkpt lat="43.80523" lon="7.12426">
        <ele>860</ele>
        <time>2010-12-19T12:00:59Z</time>
      </trkpt>
      <trkpt lat="43.80515" lon="7.12418">
        <ele>862</ele>
        <time>2010-12-19T12:01:05Z</time>
      </trkpt>
      <trkpt lat="43.80507" lon="7.12409">
        <ele>863</ele>
        <time>2010-12-19T12:01:11Z</time>
      </trkpt>
      <trkpt lat="43.80499" lon="7.12401">
        <ele>864</ele>
        <time>2010-12-19T12:01:15Z</time>
      </trkpt>
      <trkpt lat="43.80493" lon="7.12395">
        <ele>865</ele>
        <time>2010-12-19T12:01:19Z</time>
      </trkpt>
      <trkpt lat="43.80486" lon="7.12387">
        <ele>866</ele>
        <time>2010-12-19T12:01:26Z</time>
      </trkpt>
      <trkpt lat="43.80479" lon="7.12377">
        <ele>867</ele>
        <time>2010-12-19T12:01:35Z</time>
      </trkpt>
      <trkpt lat="43.80472" lon="7.1237">
        <ele>867</ele>
        <time>2010-12-19T12:01:42Z</time>
      </trkpt>
      <trkpt lat="43.80465" lon="7.12367">
        <ele>868</ele>
        <time>2010-12-19T12:01:47Z</time>
      </trkpt>
      <trkpt lat="43.80455" lon="7.12363">
        <ele>870</ele>
        <time>2010-12-19T12:01:55Z</time>
      </trkpt>
      <trkpt lat="43.80446" lon="7.12358">
        <ele>870</ele>
        <time>2010-12-19T12:02:02Z</time>
      </trkpt>
      <trkpt lat="43.80437" lon="7.12353">
        <ele>871</ele>
        <time>2010-12-19T12:02:08Z</time>
      </trkpt>
      <trkpt lat="43.80429" lon="7.12347">
        <ele>872</ele>
        <time>2010-12-19T12:02:14Z</time>
      </trkpt>
      <trkpt lat="43.80421" lon="7.12338">
        <ele>873</ele>
        <time>2010-12-19T12:02:20Z</time>
      </trkpt>
      <trkpt lat="43.80416" lon="7.12331">
        <ele>873</ele>
        <time>2010-12-19T12:02:24Z</time>
      </trkpt>
      <trkpt lat="43.80409" lon="7.12323">
        <ele>874</ele>
        <time>2010-12-19T12:02:30Z</time>
      </trkpt>
      <trkpt lat="43.80401" lon="7.12314">
        <ele>875</ele>
        <time>2010-12-19T12:02:35Z</time>
      </trkpt>
      <trkpt lat="43.80393" lon="7.12306">
        <ele>876</ele>
        <time>2010-12-19T12:02:41Z</time>
      </trkpt>
      <trkpt lat="43.80385" lon="7.12298">
        <ele>876</ele>
        <time>2010-12-19T12:02:46Z</time>
      </trkpt>
      <trkpt lat="43.80377" lon="7.12291">
        <ele>877</ele>
        <time>2010-12-19T12:02:51Z</time>
      </trkpt>
      <trkpt lat="43.80369" lon="7.12285">
        <ele>878</ele>
        <time>2010-12-19T12:02:56Z</time>
      </trkpt>
      <trkpt lat="43.80368" lon="7.12284">
        <ele>878</ele>
        <time>2010-12-19T12:02:57Z</time>
      </trkpt>
      <trkpt lat="43.8036" lon="7.12277">
        <ele>879</ele>
        <time>2010-12-19T12:03:02Z</time>
      </trkpt>
      <trkpt lat="43.80352" lon="7.1227">
        <ele>879</ele>
        <time>2010-12-19T12:03:07Z</time>
      </trkpt>
      <trkpt lat="43.80344" lon="7.12263">
        <ele>881</ele>
        <time>2010-12-19T12:03:13Z</time>
      </trkpt>
      <trkpt lat="43.80335" lon="7.12256">
        <ele>882</ele>
        <time>2010-12-19T12:03:19Z</time>
      </trkpt>
      <trkpt lat="43.80328" lon="7.12248">
        <ele>882</ele>
        <time>2010-12-19T12:03:25Z</time>
      </trkpt>
      <trkpt lat="43.80321" lon="7.1224">
        <ele>883</ele>
        <time>2010-12-19T12:03:30Z</time>
      </trkpt>
      <trkpt lat="43.80313" lon="7.12232">
        <ele>884</ele>
        <time>2010-12-19T12:03:34Z</time>
      </trkpt>
      <trkpt lat="43.80311" lon="7.12229">
        <ele>884</ele>
        <time>2010-12-19T12:03:35Z</time>
      </trkpt>
      <trkpt lat="43.80304" lon="7.1222">
        <ele>885</ele>
        <time>2010-12-19T12:03:40Z</time>
      </trkpt>
      <trkpt lat="43.80297" lon="7.1221">
        <ele>885</ele>
        <time>2010-12-19T12:03:45Z</time>
      </trkpt>
      <trkpt lat="43.80292" lon="7.12201">
        <ele>886</ele>
        <time>2010-12-19T12:03:48Z</time>
      </trkpt>
      <trkpt lat="43.80286" lon="7.12189">
        <ele>887</ele>
        <time>2010-12-19T12:03:53Z</time>
      </trkpt>
      <trkpt lat="43.80282" lon="7.12176">
        <ele>888</ele>
        <time>2010-12-19T12:03:58Z</time>
      </trkpt>
      <trkpt lat="43.8028" lon="7.12163">
        <ele>889</ele>
        <time>2010-12-19T12:04:04Z</time>
      </trkpt>
      <trkpt lat="43.8028" lon="7.1215">
        <ele>890</ele>
        <time>2010-12-19T12:04:09Z</time>
      </trkpt>
      <trkpt lat="43.8028" lon="7.12136">
        <ele>890</ele>
        <time>2010-12-19T12:04:15Z</time>
      </trkpt>
      <trkpt lat="43.8028" lon="7.12122">
        <ele>891</ele>
        <time>2010-12-19T12:04:20Z</time>
      </trkpt>
      <trkpt lat="43.80278" lon="7.12109">
        <ele>892</ele>
        <time>2010-12-19T12:04:25Z</time>
      </trkpt>
      <trkpt lat="43.80277" lon="7.12097">
        <ele>893</ele>
        <time>2010-12-19T12:04:29Z</time>
      </trkpt>
      <trkpt lat="43.80275" lon="7.12082">
        <ele>893</ele>
        <time>2010-12-19T12:04:34Z</time>
      </trkpt>
      <trkpt lat="43.80275" lon="7.12069">
        <ele>894</ele>
        <time>2010-12-19T12:04:38Z</time>
      </trkpt>
      <trkpt lat="43.80274" lon="7.12054">
        <ele>894</ele>
        <time>2010-12-19T12:04:42Z</time>
      </trkpt>
      <trkpt lat="43.80271" lon="7.12043">
        <ele>895</ele>
        <time>2010-12-19T12:04:45Z</time>
      </trkpt>
      <trkpt lat="43.80265" lon="7.12033">
        <ele>894</ele>
        <time>2010-12-19T12:04:49Z</time>
      </trkpt>
      <trkpt lat="43.80256" lon="7.12027">
        <ele>894</ele>
        <time>2010-12-19T12:04:53Z</time>
      </trkpt>
      <trkpt lat="43.80247" lon="7.12024">
        <ele>895</ele>
        <time>2010-12-19T12:04:58Z</time>
      </trkpt>
      <trkpt lat="43.80246" lon="7.12024">
        <ele>894</ele>
        <time>2010-12-19T12:04:59Z</time>
      </trkpt>
      <trkpt lat="43.80237" lon="7.12022">
        <ele>896</ele>
        <time>2010-12-19T12:05:04Z</time>
      </trkpt>
      <trkpt lat="43.80228" lon="7.12014">
        <ele>898</ele>
        <time>2010-12-19T12:05:11Z</time>
      </trkpt>
      <trkpt lat="43.80228" lon="7.12013">
        <ele>898</ele>
        <time>2010-12-19T12:05:12Z</time>
      </trkpt>
      <trkpt lat="43.80225" lon="7.12">
        <ele>897</ele>
        <time>2010-12-19T12:05:18Z</time>
      </trkpt>
      <trkpt lat="43.80224" lon="7.11987">
        <ele>897</ele>
        <time>2010-12-19T12:05:24Z</time>
      </trkpt>
      <trkpt lat="43.80223" lon="7.11974">
        <ele>898</ele>
        <time>2010-12-19T12:05:30Z</time>
      </trkpt>
      <trkpt lat="43.80222" lon="7.11959">
        <ele>898</ele>
        <time>2010-12-19T12:05:36Z</time>
      </trkpt>
      <trkpt lat="43.80224" lon="7.11946">
        <ele>899</ele>
        <time>2010-12-19T12:05:40Z</time>
      </trkpt>
      <trkpt lat="43.80229" lon="7.11935">
        <ele>909</ele>
        <time>2010-12-19T12:07:51Z</time>
      </trkpt>
      <trkpt lat="43.80229" lon="7.11935">
        <ele>909</ele>
        <time>2010-12-19T12:07:51Z</time>
      </trkpt>
      <trkpt lat="43.80229" lon="7.11935">
        <ele>910</ele>
        <time>2010-12-19T12:07:58Z</time>
      </trkpt>
      <trkpt lat="43.80232" lon="7.11933">
        <ele>910</ele>
        <time>2010-12-19T12:08:25Z</time>
      </trkpt>
      <trkpt lat="43.80238" lon="7.11923">
        <ele>912</ele>
        <time>2010-12-19T12:15:47Z</time>
      </trkpt>
      <trkpt lat="43.80245" lon="7.11914">
        <ele>912</ele>
        <time>2010-12-19T12:15:52Z</time>
      </trkpt>
      <trkpt lat="43.80252" lon="7.11904">
        <ele>913</ele>
        <time>2010-12-19T12:15:57Z</time>
      </trkpt>
      <trkpt lat="43.80255" lon="7.11898">
        <ele>913</ele>
        <time>2010-12-19T12:16:00Z</time>
      </trkpt>
      <trkpt lat="43.8026" lon="7.11887">
        <ele>912</ele>
        <time>2010-12-19T12:16:06Z</time>
      </trkpt>
      <trkpt lat="43.80263" lon="7.11874">
        <ele>912</ele>
        <time>2010-12-19T12:16:11Z</time>
      </trkpt>
      <trkpt lat="43.80264" lon="7.11859">
        <ele>912</ele>
        <time>2010-12-19T12:16:16Z</time>
      </trkpt>
      <trkpt lat="43.80265" lon="7.11846">
        <ele>913</ele>
        <time>2010-12-19T12:16:21Z</time>
      </trkpt>
      <trkpt lat="43.80266" lon="7.11833">
        <ele>913</ele>
        <time>2010-12-19T12:16:25Z</time>
      </trkpt>
      <trkpt lat="43.80266" lon="7.11824">
        <ele>913</ele>
        <time>2010-12-19T12:16:28Z</time>
      </trkpt>
      <trkpt lat="43.80264" lon="7.11809">
        <ele>914</ele>
        <time>2010-12-19T12:16:32Z</time>
      </trkpt>
      <trkpt lat="43.8026" lon="7.11796">
        <ele>914</ele>
        <time>2010-12-19T12:16:37Z</time>
      </trkpt>
      <trkpt lat="43.80255" lon="7.11782">
        <ele>914</ele>
        <time>2010-12-19T12:16:42Z</time>
      </trkpt>
      <trkpt lat="43.8025" lon="7.11772">
        <ele>914</ele>
        <time>2010-12-19T12:16:46Z</time>
      </trkpt>
      <trkpt lat="43.80245" lon="7.11761">
        <ele>915</ele>
        <time>2010-12-19T12:16:50Z</time>
      </trkpt>
      <trkpt lat="43.8024" lon="7.1175">
        <ele>915</ele>
        <time>2010-12-19T12:16:53Z</time>
      </trkpt>
      <trkpt lat="43.80236" lon="7.11738">
        <ele>915</ele>
        <time>2010-12-19T12:16:57Z</time>
      </trkpt>
      <trkpt lat="43.80233" lon="7.11725">
        <ele>916</ele>
        <time>2010-12-19T12:17:01Z</time>
      </trkpt>
      <trkpt lat="43.8023" lon="7.11712">
        <ele>917</ele>
        <time>2010-12-19T12:17:05Z</time>
      </trkpt>
      <trkpt lat="43.80228" lon="7.11699">
        <ele>918</ele>
        <time>2010-12-19T12:17:09Z</time>
      </trkpt>
      <trkpt lat="43.80227" lon="7.11697">
        <ele>919</ele>
        <time>2010-12-19T12:17:10Z</time>
      </trkpt>
      <trkpt lat="43.80224" lon="7.11684">
        <ele>919</ele>
        <time>2010-12-19T12:17:14Z</time>
      </trkpt>
      <trkpt lat="43.80221" lon="7.11672">
        <ele>920</ele>
        <time>2010-12-19T12:17:18Z</time>
      </trkpt>
      <trkpt lat="43.80217" lon="7.1166">
        <ele>920</ele>
        <time>2010-12-19T12:17:22Z</time>
      </trkpt>
      <trkpt lat="43.80213" lon="7.11648">
        <ele>920</ele>
        <time>2010-12-19T12:17:25Z</time>
      </trkpt>
      <trkpt lat="43.80207" lon="7.11637">
        <ele>920</ele>
        <time>2010-12-19T12:17:29Z</time>
      </trkpt>
      <trkpt lat="43.80205" lon="7.11635">
        <ele>920</ele>
        <time>2010-12-19T12:17:30Z</time>
      </trkpt>
      <trkpt lat="43.80197" lon="7.11625">
        <ele>921</ele>
        <time>2010-12-19T12:17:34Z</time>
      </trkpt>
      <trkpt lat="43.80189" lon="7.11617">
        <ele>921</ele>
        <time>2010-12-19T12:17:38Z</time>
      </trkpt>
      <trkpt lat="43.80181" lon="7.11609">
        <ele>922</ele>
        <time>2010-12-19T12:17:42Z</time>
      </trkpt>
      <trkpt lat="43.80174" lon="7.11599">
        <ele>922</ele>
        <time>2010-12-19T12:17:46Z</time>
      </trkpt>
      <trkpt lat="43.80167" lon="7.1159">
        <ele>923</ele>
        <time>2010-12-19T12:17:50Z</time>
      </trkpt>
      <trkpt lat="43.80161" lon="7.1158">
        <ele>923</ele>
        <time>2010-12-19T12:17:54Z</time>
      </trkpt>
      <trkpt lat="43.80156" lon="7.11569">
        <ele>924</ele>
        <time>2010-12-19T12:17:58Z</time>
      </trkpt>
      <trkpt lat="43.80151" lon="7.11558">
        <ele>924</ele>
        <time>2010-12-19T12:18:01Z</time>
      </trkpt>
      <trkpt lat="43.80145" lon="7.11546">
        <ele>925</ele>
        <time>2010-12-19T12:18:05Z</time>
      </trkpt>
      <trkpt lat="43.8014" lon="7.11534">
        <ele>925</ele>
        <time>2010-12-19T12:18:09Z</time>
      </trkpt>
      <trkpt lat="43.80135" lon="7.11522">
        <ele>925</ele>
        <time>2010-12-19T12:18:13Z</time>
      </trkpt>
      <trkpt lat="43.8013" lon="7.1151">
        <ele>925</ele>
        <time>2010-12-19T12:18:17Z</time>
      </trkpt>
      <trkpt lat="43.80126" lon="7.11499">
        <ele>926</ele>
        <time>2010-12-19T12:18:20Z</time>
      </trkpt>
      <trkpt lat="43.80121" lon="7.11487">
        <ele>927</ele>
        <time>2010-12-19T12:18:24Z</time>
      </trkpt>
      <trkpt lat="43.80116" lon="7.11474">
        <ele>927</ele>
        <time>2010-12-19T12:18:28Z</time>
      </trkpt>
      <trkpt lat="43.80111" lon="7.11461">
        <ele>928</ele>
        <time>2010-12-19T12:18:33Z</time>
      </trkpt>
      <trkpt lat="43.80105" lon="7.1145">
        <ele>928</ele>
        <time>2010-12-19T12:18:37Z</time>
      </trkpt>
      <trkpt lat="43.801" lon="7.11438">
        <ele>929</ele>
        <time>2010-12-19T12:18:40Z</time>
      </trkpt>
      <trkpt lat="43.80094" lon="7.11426">
        <ele>930</ele>
        <time>2010-12-19T12:18:44Z</time>
      </trkpt>
      <trkpt lat="43.8009" lon="7.11412">
        <ele>930</ele>
        <time>2010-12-19T12:18:48Z</time>
      </trkpt>
      <trkpt lat="43.80088" lon="7.11397">
        <ele>931</ele>
        <time>2010-12-19T12:18:52Z</time>
      </trkpt>
      <trkpt lat="43.80087" lon="7.11382">
        <ele>931</ele>
        <time>2010-12-19T12:18:56Z</time>
      </trkpt>
      <trkpt lat="43.80087" lon="7.11379">
        <ele>931</ele>
        <time>2010-12-19T12:18:57Z</time>
      </trkpt>
      <trkpt lat="43.80087" lon="7.11365">
        <ele>931</ele>
        <time>2010-12-19T12:19:01Z</time>
      </trkpt>
      <trkpt lat="43.80086" lon="7.1135">
        <ele>932</ele>
        <time>2010-12-19T12:19:05Z</time>
      </trkpt>
      <trkpt lat="43.80085" lon="7.11335">
        <ele>933</ele>
        <time>2010-12-19T12:19:09Z</time>
      </trkpt>
      <trkpt lat="43.80082" lon="7.11322">
        <ele>934</ele>
        <time>2010-12-19T12:19:13Z</time>
      </trkpt>
      <trkpt lat="43.80079" lon="7.1131">
        <ele>935</ele>
        <time>2010-12-19T12:19:17Z</time>
      </trkpt>
      <trkpt lat="43.80077" lon="7.11307">
        <ele>936</ele>
        <time>2010-12-19T12:19:20Z</time>
      </trkpt>
      <trkpt lat="43.80069" lon="7.11311">
        <ele>937</ele>
        <time>2010-12-19T12:19:27Z</time>
      </trkpt>
      <trkpt lat="43.80061" lon="7.11319">
        <ele>938</ele>
        <time>2010-12-19T12:19:30Z</time>
      </trkpt>
      <trkpt lat="43.80056" lon="7.11328">
        <ele>938</ele>
        <time>2010-12-19T12:19:34Z</time>
      </trkpt>
      <trkpt lat="43.8005" lon="7.1134">
        <ele>939</ele>
        <time>2010-12-19T12:19:38Z</time>
      </trkpt>
      <trkpt lat="43.80045" lon="7.11351">
        <ele>940</ele>
        <time>2010-12-19T12:19:44Z</time>
      </trkpt>
      <trkpt lat="43.8004" lon="7.11362">
        <ele>942</ele>
        <time>2010-12-19T12:19:49Z</time>
      </trkpt>
      <trkpt lat="43.80034" lon="7.11373">
        <ele>943</ele>
        <time>2010-12-19T12:19:54Z</time>
      </trkpt>
      <trkpt lat="43.80028" lon="7.11382">
        <ele>943</ele>
        <time>2010-12-19T12:19:59Z</time>
      </trkpt>
      <trkpt lat="43.80021" lon="7.1139">
        <ele>944</ele>
        <time>2010-12-19T12:20:05Z</time>
      </trkpt>
      <trkpt lat="43.80014" lon="7.114">
        <ele>945</ele>
        <time>2010-12-19T12:20:12Z</time>
      </trkpt>
      <trkpt lat="43.80012" lon="7.11402">
        <ele>945</ele>
        <time>2010-12-19T12:20:14Z</time>
      </trkpt>
      <trkpt lat="43.80004" lon="7.11409">
        <ele>946</ele>
        <time>2010-12-19T12:20:21Z</time>
      </trkpt>
      <trkpt lat="43.79996" lon="7.11415">
        <ele>948</ele>
        <time>2010-12-19T12:20:27Z</time>
      </trkpt>
      <trkpt lat="43.79993" lon="7.11417">
        <ele>948</ele>
        <time>2010-12-19T12:20:30Z</time>
      </trkpt>
      <trkpt lat="43.79985" lon="7.11424">
        <ele>949</ele>
        <time>2010-12-19T12:20:36Z</time>
      </trkpt>
      <trkpt lat="43.79977" lon="7.1143">
        <ele>950</ele>
        <time>2010-12-19T12:20:42Z</time>
      </trkpt>
      <trkpt lat="43.79968" lon="7.11436">
        <ele>952</ele>
        <time>2010-12-19T12:20:49Z</time>
      </trkpt>
      <trkpt lat="43.79959" lon="7.11441">
        <ele>953</ele>
        <time>2010-12-19T12:20:55Z</time>
      </trkpt>
      <trkpt lat="43.79949" lon="7.11445">
        <ele>954</ele>
        <time>2010-12-19T12:21:01Z</time>
      </trkpt>
      <trkpt lat="43.79939" lon="7.11447">
        <ele>956</ele>
        <time>2010-12-19T12:21:08Z</time>
      </trkpt>
      <trkpt lat="43.79932" lon="7.1145">
        <ele>956</ele>
        <time>2010-12-19T12:21:12Z</time>
      </trkpt>
      <trkpt lat="43.79923" lon="7.11455">
        <ele>958</ele>
        <time>2010-12-19T12:21:19Z</time>
      </trkpt>
      <trkpt lat="43.79915" lon="7.1146">
        <ele>959</ele>
        <time>2010-12-19T12:21:25Z</time>
      </trkpt>
      <trkpt lat="43.79907" lon="7.11463">
        <ele>960</ele>
        <time>2010-12-19T12:21:30Z</time>
      </trkpt>
      <trkpt lat="43.79897" lon="7.11466">
        <ele>961</ele>
        <time>2010-12-19T12:21:37Z</time>
      </trkpt>
      <trkpt lat="43.79888" lon="7.11468">
        <ele>962</ele>
        <time>2010-12-19T12:21:45Z</time>
      </trkpt>
      <trkpt lat="43.79879" lon="7.11471">
        <ele>963</ele>
        <time>2010-12-19T12:21:52Z</time>
      </trkpt>
      <trkpt lat="43.7987" lon="7.11474">
        <ele>964</ele>
        <time>2010-12-19T12:21:58Z</time>
      </trkpt>
      <trkpt lat="43.7986" lon="7.11477">
        <ele>965</ele>
        <time>2010-12-19T12:22:03Z</time>
      </trkpt>
      <trkpt lat="43.79851" lon="7.1148">
        <ele>966</ele>
        <time>2010-12-19T12:22:09Z</time>
      </trkpt>
      <trkpt lat="43.79841" lon="7.11481">
        <ele>968</ele>
        <time>2010-12-19T12:22:15Z</time>
      </trkpt>
      <trkpt lat="43.79832" lon="7.11483">
        <ele>969</ele>
        <time>2010-12-19T12:22:20Z</time>
      </trkpt>
      <trkpt lat="43.79822" lon="7.11486">
        <ele>970</ele>
        <time>2010-12-19T12:22:25Z</time>
      </trkpt>
      <trkpt lat="43.79818" lon="7.11487">
        <ele>970</ele>
        <time>2010-12-19T12:22:28Z</time>
      </trkpt>
      <trkpt lat="43.79809" lon="7.11492">
        <ele>971</ele>
        <time>2010-12-19T12:22:33Z</time>
      </trkpt>
      <trkpt lat="43.798" lon="7.11497">
        <ele>973</ele>
        <time>2010-12-19T12:22:39Z</time>
      </trkpt>
      <trkpt lat="43.79791" lon="7.11501">
        <ele>974</ele>
        <time>2010-12-19T12:22:44Z</time>
      </trkpt>
      <trkpt lat="43.79782" lon="7.11503">
        <ele>975</ele>
        <time>2010-12-19T12:22:48Z</time>
      </trkpt>
      <trkpt lat="43.79778" lon="7.11512">
        <ele>978</ele>
        <time>2010-12-19T12:23:12Z</time>
      </trkpt>
      <trkpt lat="43.79785" lon="7.1152">
        <ele>978</ele>
        <time>2010-12-19T12:23:17Z</time>
      </trkpt>
      <trkpt lat="43.79777" lon="7.11527">
        <ele>980</ele>
        <time>2010-12-19T12:23:29Z</time>
      </trkpt>
      <trkpt lat="43.79767" lon="7.11522">
        <ele>980</ele>
        <time>2010-12-19T12:23:36Z</time>
      </trkpt>
      <trkpt lat="43.79758" lon="7.11517">
        <ele>982</ele>
        <time>2010-12-19T12:23:45Z</time>
      </trkpt>
      <trkpt lat="43.7975" lon="7.11514">
        <ele>981</ele>
        <time>2010-12-19T12:23:53Z</time>
      </trkpt>
      <trkpt lat="43.7974" lon="7.11512">
        <ele>983</ele>
        <time>2010-12-19T12:24:01Z</time>
      </trkpt>
      <trkpt lat="43.79731" lon="7.11509">
        <ele>985</ele>
        <time>2010-12-19T12:24:08Z</time>
      </trkpt>
      <trkpt lat="43.7973" lon="7.11509">
        <ele>985</ele>
        <time>2010-12-19T12:24:09Z</time>
      </trkpt>
      <trkpt lat="43.79721" lon="7.11507">
        <ele>985</ele>
        <time>2010-12-19T12:24:16Z</time>
      </trkpt>
      <trkpt lat="43.79718" lon="7.11506">
        <ele>986</ele>
        <time>2010-12-19T12:24:18Z</time>
      </trkpt>
      <trkpt lat="43.79708" lon="7.11502">
        <ele>988</ele>
        <time>2010-12-19T12:24:25Z</time>
      </trkpt>
      <trkpt lat="43.79699" lon="7.11499">
        <ele>989</ele>
        <time>2010-12-19T12:24:32Z</time>
      </trkpt>
      <trkpt lat="43.7969" lon="7.11497">
        <ele>990</ele>
        <time>2010-12-19T12:24:39Z</time>
      </trkpt>
      <trkpt lat="43.79681" lon="7.11493">
        <ele>992</ele>
        <time>2010-12-19T12:24:47Z</time>
      </trkpt>
      <trkpt lat="43.79672" lon="7.11489">
        <ele>993</ele>
        <time>2010-12-19T12:24:54Z</time>
      </trkpt>
      <trkpt lat="43.79662" lon="7.11485">
        <ele>993</ele>
        <time>2010-12-19T12:25:01Z</time>
      </trkpt>
      <trkpt lat="43.79653" lon="7.11482">
        <ele>994</ele>
        <time>2010-12-19T12:25:08Z</time>
      </trkpt>
      <trkpt lat="43.79644" lon="7.11478">
        <ele>995</ele>
        <time>2010-12-19T12:25:16Z</time>
      </trkpt>
      <trkpt lat="43.79634" lon="7.11475">
        <ele>995</ele>
        <time>2010-12-19T12:25:24Z</time>
      </trkpt>
      <trkpt lat="43.79625" lon="7.11471">
        <ele>997</ele>
        <time>2010-12-19T12:25:31Z</time>
      </trkpt>
      <trkpt lat="43.79618" lon="7.11478">
        <ele>997</ele>
        <time>2010-12-19T12:25:40Z</time>
      </trkpt>
      <trkpt lat="43.79619" lon="7.11485">
        <ele>997</ele>
        <time>2010-12-19T12:25:45Z</time>
      </trkpt>
      <trkpt lat="43.79623" lon="7.11497">
        <ele>1000</ele>
        <time>2010-12-19T12:25:53Z</time>
      </trkpt>
      <trkpt lat="43.79626" lon="7.1151">
        <ele>1002</ele>
        <time>2010-12-19T12:25:59Z</time>
      </trkpt>
      <trkpt lat="43.79629" lon="7.11522">
        <ele>1005</ele>
        <time>2010-12-19T12:26:05Z</time>
      </trkpt>
      <trkpt lat="43.79631" lon="7.11532">
        <ele>1006</ele>
        <time>2010-12-19T12:26:09Z</time>
      </trkpt>
      <trkpt lat="43.79635" lon="7.11543">
        <ele>1006</ele>
        <time>2010-12-19T12:26:15Z</time>
      </trkpt>
      <trkpt lat="43.79639" lon="7.11554">
        <ele>1007</ele>
        <time>2010-12-19T12:26:28Z</time>
      </trkpt>
      <trkpt lat="43.7964" lon="7.11557">
        <ele>1007</ele>
        <time>2010-12-19T12:26:33Z</time>
      </trkpt>
      <trkpt lat="43.79646" lon="7.11567">
        <ele>1009</ele>
        <time>2010-12-19T12:26:45Z</time>
      </trkpt>
      <trkpt lat="43.79651" lon="7.11577">
        <ele>1011</ele>
        <time>2010-12-19T12:26:57Z</time>
      </trkpt>
      <trkpt lat="43.79655" lon="7.11589">
        <ele>1014</ele>
        <time>2010-12-19T12:27:06Z</time>
      </trkpt>
      <trkpt lat="43.7966" lon="7.11601">
        <ele>1015</ele>
        <time>2010-12-19T12:27:15Z</time>
      </trkpt>
      <trkpt lat="43.79664" lon="7.11609">
        <ele>1015</ele>
        <time>2010-12-19T12:27:21Z</time>
      </trkpt>
      <trkpt lat="43.7967" lon="7.11619">
        <ele>1016</ele>
        <time>2010-12-19T12:27:28Z</time>
      </trkpt>
      <trkpt lat="43.79672" lon="7.11622">
        <ele>1016</ele>
        <time>2010-12-19T12:27:30Z</time>
      </trkpt>
      <trkpt lat="43.79678" lon="7.11632">
        <ele>1019</ele>
        <time>2010-12-19T12:27:38Z</time>
      </trkpt>
      <trkpt lat="43.79683" lon="7.11642">
        <ele>1021</ele>
        <time>2010-12-19T12:27:48Z</time>
      </trkpt>
      <trkpt lat="43.79689" lon="7.11651">
        <ele>1023</ele>
        <time>2010-12-19T12:27:58Z</time>
      </trkpt>
      <trkpt lat="43.79696" lon="7.1166">
        <ele>1025</ele>
        <time>2010-12-19T12:28:07Z</time>
      </trkpt>
      <trkpt lat="43.79701" lon="7.11671">
        <ele>1025</ele>
        <time>2010-12-19T12:28:15Z</time>
      </trkpt>
      <trkpt lat="43.79704" lon="7.11675">
        <ele>1026</ele>
        <time>2010-12-19T12:28:18Z</time>
      </trkpt>
      <trkpt lat="43.79709" lon="7.11686">
        <ele>1028</ele>
        <time>2010-12-19T12:28:32Z</time>
      </trkpt>
      <trkpt lat="43.7971" lon="7.11689">
        <ele>1028</ele>
        <time>2010-12-19T12:28:35Z</time>
      </trkpt>
      <trkpt lat="43.79711" lon="7.11702">
        <ele>1029</ele>
        <time>2010-12-19T12:28:42Z</time>
      </trkpt>
      <trkpt lat="43.79712" lon="7.11716">
        <ele>1030</ele>
        <time>2010-12-19T12:28:47Z</time>
      </trkpt>
      <trkpt lat="43.79712" lon="7.11729">
        <ele>1030</ele>
        <time>2010-12-19T12:28:51Z</time>
      </trkpt>
      <trkpt lat="43.79711" lon="7.11742">
        <ele>1031</ele>
        <time>2010-12-19T12:28:55Z</time>
      </trkpt>
      <trkpt lat="43.7971" lon="7.11755">
        <ele>1033</ele>
        <time>2010-12-19T12:29:00Z</time>
      </trkpt>
      <trkpt lat="43.79709" lon="7.11767">
        <ele>1034</ele>
        <time>2010-12-19T12:29:04Z</time>
      </trkpt>
      <trkpt lat="43.79704" lon="7.1178">
        <ele>1034</ele>
        <time>2010-12-19T12:29:10Z</time>
      </trkpt>
      <trkpt lat="43.79698" lon="7.1179">
        <ele>1034</ele>
        <time>2010-12-19T12:29:14Z</time>
      </trkpt>
      <trkpt lat="43.79696" lon="7.11795">
        <ele>1035</ele>
        <time>2010-12-19T12:29:16Z</time>
      </trkpt>
      <trkpt lat="43.7969" lon="7.11805">
        <ele>1036</ele>
        <time>2010-12-19T12:29:24Z</time>
      </trkpt>
      <trkpt lat="43.79687" lon="7.11817">
        <ele>1037</ele>
        <time>2010-12-19T12:29:30Z</time>
      </trkpt>
      <trkpt lat="43.79685" lon="7.11829">
        <ele>1038</ele>
        <time>2010-12-19T12:29:35Z</time>
      </trkpt>
      <trkpt lat="43.79684" lon="7.11842">
        <ele>1039</ele>
        <time>2010-12-19T12:29:41Z</time>
      </trkpt>
      <trkpt lat="43.79681" lon="7.11855">
        <ele>1041</ele>
        <time>2010-12-19T12:29:48Z</time>
      </trkpt>
      <trkpt lat="43.79678" lon="7.11868">
        <ele>1042</ele>
        <time>2010-12-19T12:29:55Z</time>
      </trkpt>
      <trkpt lat="43.79678" lon="7.1187">
        <ele>1042</ele>
        <time>2010-12-19T12:29:56Z</time>
      </trkpt>
      <trkpt lat="43.79675" lon="7.11882">
        <ele>1043</ele>
        <time>2010-12-19T12:30:02Z</time>
      </trkpt>
      <trkpt lat="43.79674" lon="7.11896">
        <ele>1044</ele>
        <time>2010-12-19T12:30:08Z</time>
      </trkpt>
      <trkpt lat="43.79672" lon="7.11909">
        <ele>1044</ele>
        <time>2010-12-19T12:30:12Z</time>
      </trkpt>
      <trkpt lat="43.79671" lon="7.11924">
        <ele>1044</ele>
        <time>2010-12-19T12:30:17Z</time>
      </trkpt>
      <trkpt lat="43.79669" lon="7.11938">
        <ele>1044</ele>
        <time>2010-12-19T12:30:21Z</time>
      </trkpt>
      <trkpt lat="43.79666" lon="7.11951">
        <ele>1044</ele>
        <time>2010-12-19T12:30:26Z</time>
      </trkpt>
      <trkpt lat="43.79663" lon="7.11964">
        <ele>1044</ele>
        <time>2010-12-19T12:30:30Z</time>
      </trkpt>
      <trkpt lat="43.79659" lon="7.11975">
        <ele>1045</ele>
        <time>2010-12-19T12:30:35Z</time>
      </trkpt>
      <trkpt lat="43.79656" lon="7.11988">
        <ele>1046</ele>
        <time>2010-12-19T12:30:39Z</time>
      </trkpt>
      <trkpt lat="43.7965" lon="7.11998">
        <ele>1047</ele>
        <time>2010-12-19T12:30:43Z</time>
      </trkpt>
      <trkpt lat="43.79643" lon="7.12009">
        <ele>1048</ele>
        <time>2010-12-19T12:30:47Z</time>
      </trkpt>
      <trkpt lat="43.79636" lon="7.12019">
        <ele>1048</ele>
        <time>2010-12-19T12:30:52Z</time>
      </trkpt>
      <trkpt lat="43.79627" lon="7.12027">
        <ele>1049</ele>
        <time>2010-12-19T12:30:56Z</time>
      </trkpt>
      <trkpt lat="43.79619" lon="7.12035">
        <ele>1049</ele>
        <time>2010-12-19T12:31:01Z</time>
      </trkpt>
      <trkpt lat="43.79613" lon="7.12047">
        <ele>1050</ele>
        <time>2010-12-19T12:31:05Z</time>
      </trkpt>
      <trkpt lat="43.79608" lon="7.12058">
        <ele>1050</ele>
        <time>2010-12-19T12:31:10Z</time>
      </trkpt>
      <trkpt lat="43.79604" lon="7.12071">
        <ele>1051</ele>
        <time>2010-12-19T12:31:15Z</time>
      </trkpt>
      <trkpt lat="43.79602" lon="7.12085">
        <ele>1051</ele>
        <time>2010-12-19T12:31:20Z</time>
      </trkpt>
      <trkpt lat="43.79599" lon="7.12097">
        <ele>1051</ele>
        <time>2010-12-19T12:31:25Z</time>
      </trkpt>
      <trkpt lat="43.79597" lon="7.12109">
        <ele>1051</ele>
        <time>2010-12-19T12:31:29Z</time>
      </trkpt>
      <trkpt lat="43.79593" lon="7.12122">
        <ele>1052</ele>
        <time>2010-12-19T12:31:34Z</time>
      </trkpt>
      <trkpt lat="43.79589" lon="7.12135">
        <ele>1053</ele>
        <time>2010-12-19T12:31:38Z</time>
      </trkpt>
      <trkpt lat="43.79584" lon="7.12148">
        <ele>1054</ele>
        <time>2010-12-19T12:31:42Z</time>
      </trkpt>
      <trkpt lat="43.79579" lon="7.12159">
        <ele>1054</ele>
        <time>2010-12-19T12:31:47Z</time>
      </trkpt>
      <trkpt lat="43.79574" lon="7.12169">
        <ele>1053</ele>
        <time>2010-12-19T12:31:51Z</time>
      </trkpt>
      <trkpt lat="43.79573" lon="7.12171">
        <ele>1054</ele>
        <time>2010-12-19T12:31:52Z</time>
      </trkpt>
      <trkpt lat="43.79569" lon="7.12182">
        <ele>1054</ele>
        <time>2010-12-19T12:31:57Z</time>
      </trkpt>
      <trkpt lat="43.79566" lon="7.12192">
        <ele>1056</ele>
        <time>2010-12-19T12:32:00Z</time>
      </trkpt>
      <trkpt lat="43.79565" lon="7.12204">
        <ele>1055</ele>
        <time>2010-12-19T12:32:05Z</time>
      </trkpt>
      <trkpt lat="43.79566" lon="7.12217">
        <ele>1054</ele>
        <time>2010-12-19T12:32:09Z</time>
      </trkpt>
      <trkpt lat="43.79568" lon="7.1223">
        <ele>1054</ele>
        <time>2010-12-19T12:32:14Z</time>
      </trkpt>
      <trkpt lat="43.79573" lon="7.12242">
        <ele>1053</ele>
        <time>2010-12-19T12:32:19Z</time>
      </trkpt>
      <trkpt lat="43.79577" lon="7.12256">
        <ele>1054</ele>
        <time>2010-12-19T12:32:25Z</time>
      </trkpt>
      <trkpt lat="43.7958" lon="7.12269">
        <ele>1053</ele>
        <time>2010-12-19T12:32:30Z</time>
      </trkpt>
      <trkpt lat="43.7958" lon="7.12282">
        <ele>1053</ele>
        <time>2010-12-19T12:32:34Z</time>
      </trkpt>
      <trkpt lat="43.79578" lon="7.12295">
        <ele>1055</ele>
        <time>2010-12-19T12:32:39Z</time>
      </trkpt>
      <trkpt lat="43.79577" lon="7.12305">
        <ele>1055</ele>
        <time>2010-12-19T12:32:42Z</time>
      </trkpt>
      <trkpt lat="43.79574" lon="7.12318">
        <ele>1057</ele>
        <time>2010-12-19T12:32:47Z</time>
      </trkpt>
      <trkpt lat="43.79571" lon="7.12331">
        <ele>1058</ele>
        <time>2010-12-19T12:32:50Z</time>
      </trkpt>
      <trkpt lat="43.79568" lon="7.12345">
        <ele>1059</ele>
        <time>2010-12-19T12:32:54Z</time>
      </trkpt>
      <trkpt lat="43.79565" lon="7.12353">
        <ele>1060</ele>
        <time>2010-12-19T12:32:57Z</time>
      </trkpt>
      <trkpt lat="43.79563" lon="7.12366">
        <ele>1060</ele>
        <time>2010-12-19T12:33:00Z</time>
      </trkpt>
      <trkpt lat="43.79563" lon="7.12377">
        <ele>1060</ele>
        <time>2010-12-19T12:33:03Z</time>
      </trkpt>
      <trkpt lat="43.79564" lon="7.12391">
        <ele>1060</ele>
        <time>2010-12-19T12:33:07Z</time>
      </trkpt>
      <trkpt lat="43.79564" lon="7.12407">
        <ele>1059</ele>
        <time>2010-12-19T12:33:10Z</time>
      </trkpt>
      <trkpt lat="43.79559" lon="7.12422">
        <ele>1059</ele>
        <time>2010-12-19T12:33:12Z</time>
      </trkpt>
      <trkpt lat="43.79551" lon="7.12431">
        <ele>1059</ele>
        <time>2010-12-19T12:33:14Z</time>
      </trkpt>
      <trkpt lat="43.79542" lon="7.12439">
        <ele>1059</ele>
        <time>2010-12-19T12:33:17Z</time>
      </trkpt>
      <trkpt lat="43.79532" lon="7.12452">
        <ele>1059</ele>
        <time>2010-12-19T12:33:19Z</time>
      </trkpt>
      <trkpt lat="43.79529" lon="7.12463">
        <ele>1059</ele>
        <time>2010-12-19T12:33:21Z</time>
      </trkpt>
      <trkpt lat="43.79525" lon="7.12478">
        <ele>1059</ele>
        <time>2010-12-19T12:33:23Z</time>
      </trkpt>
      <trkpt lat="43.79521" lon="7.1249">
        <ele>1059</ele>
        <time>2010-12-19T12:33:25Z</time>
      </trkpt>
      <trkpt lat="43.79516" lon="7.12502">
        <ele>1060</ele>
        <time>2010-12-19T12:33:28Z</time>
      </trkpt>
      <trkpt lat="43.79511" lon="7.12514">
        <ele>1060</ele>
        <time>2010-12-19T12:33:33Z</time>
      </trkpt>
      <trkpt lat="43.79507" lon="7.12524">
        <ele>1059</ele>
        <time>2010-12-19T12:33:37Z</time>
      </trkpt>
      <trkpt lat="43.79501" lon="7.12537">
        <ele>1059</ele>
        <time>2010-12-19T12:33:42Z</time>
      </trkpt>
      <trkpt lat="43.79496" lon="7.1255">
        <ele>1060</ele>
        <time>2010-12-19T12:33:46Z</time>
      </trkpt>
      <trkpt lat="43.79496" lon="7.12552">
        <ele>1061</ele>
        <time>2010-12-19T12:33:47Z</time>
      </trkpt>
      <trkpt lat="43.79494" lon="7.12567">
        <ele>1061</ele>
        <time>2010-12-19T12:33:51Z</time>
      </trkpt>
      <trkpt lat="43.79493" lon="7.12581">
        <ele>1062</ele>
        <time>2010-12-19T12:33:54Z</time>
      </trkpt>
      <trkpt lat="43.7949" lon="7.12593">
        <ele>1062</ele>
        <time>2010-12-19T12:33:59Z</time>
      </trkpt>
      <trkpt lat="43.79483" lon="7.126">
        <ele>1062</ele>
        <time>2010-12-19T12:34:05Z</time>
      </trkpt>
      <trkpt lat="43.79473" lon="7.12603">
        <ele>1063</ele>
        <time>2010-12-19T12:34:12Z</time>
      </trkpt>
      <trkpt lat="43.79463" lon="7.12606">
        <ele>1064</ele>
        <time>2010-12-19T12:34:20Z</time>
      </trkpt>
      <trkpt lat="43.79454" lon="7.12612">
        <ele>1066</ele>
        <time>2010-12-19T12:34:26Z</time>
      </trkpt>
      <trkpt lat="43.79445" lon="7.12618">
        <ele>1066</ele>
        <time>2010-12-19T12:34:31Z</time>
      </trkpt>
      <trkpt lat="43.79433" lon="7.12623">
        <ele>1067</ele>
        <time>2010-12-19T12:34:35Z</time>
      </trkpt>
      <trkpt lat="43.79422" lon="7.12627">
        <ele>1068</ele>
        <time>2010-12-19T12:34:38Z</time>
      </trkpt>
      <trkpt lat="43.79412" lon="7.12631">
        <ele>1068</ele>
        <time>2010-12-19T12:34:42Z</time>
      </trkpt>
      <trkpt lat="43.79403" lon="7.12635">
        <ele>1069</ele>
        <time>2010-12-19T12:34:46Z</time>
      </trkpt>
      <trkpt lat="43.79394" lon="7.1264">
        <ele>1068</ele>
        <time>2010-12-19T12:34:51Z</time>
      </trkpt>
      <trkpt lat="43.79386" lon="7.12646">
        <ele>1070</ele>
        <time>2010-12-19T12:34:55Z</time>
      </trkpt>
      <trkpt lat="43.79378" lon="7.12656">
        <ele>1071</ele>
        <time>2010-12-19T12:35:00Z</time>
      </trkpt>
      <trkpt lat="43.79372" lon="7.12667">
        <ele>1071</ele>
        <time>2010-12-19T12:35:04Z</time>
      </trkpt>
      <trkpt lat="43.79367" lon="7.12678">
        <ele>1071</ele>
        <time>2010-12-19T12:35:09Z</time>
      </trkpt>
      <trkpt lat="43.79363" lon="7.12689">
        <ele>1072</ele>
        <time>2010-12-19T12:35:13Z</time>
      </trkpt>
      <trkpt lat="43.79359" lon="7.12701">
        <ele>1072</ele>
        <time>2010-12-19T12:35:16Z</time>
      </trkpt>
      <trkpt lat="43.79354" lon="7.12713">
        <ele>1072</ele>
        <time>2010-12-19T12:35:23Z</time>
      </trkpt>
      <trkpt lat="43.79354" lon="7.12716">
        <ele>1071</ele>
        <time>2010-12-19T12:35:44Z</time>
      </trkpt>
      <trkpt lat="43.79344" lon="7.1272">
        <ele>1068</ele>
        <time>2010-12-19T12:36:44Z</time>
      </trkpt>
      <trkpt lat="43.79333" lon="7.1272">
        <ele>1067</ele>
        <time>2010-12-19T12:36:52Z</time>
      </trkpt>
      <trkpt lat="43.79325" lon="7.12723">
        <ele>1068</ele>
        <time>2010-12-19T12:36:55Z</time>
      </trkpt>
      <trkpt lat="43.79315" lon="7.12731">
        <ele>1068</ele>
        <time>2010-12-19T12:36:58Z</time>
      </trkpt>
      <trkpt lat="43.79308" lon="7.12738">
        <ele>1069</ele>
        <time>2010-12-19T12:37:01Z</time>
      </trkpt>
      <trkpt lat="43.79301" lon="7.12751">
        <ele>1070</ele>
        <time>2010-12-19T12:37:04Z</time>
      </trkpt>
      <trkpt lat="43.79297" lon="7.12766">
        <ele>1070</ele>
        <time>2010-12-19T12:37:07Z</time>
      </trkpt>
      <trkpt lat="43.79295" lon="7.12779">
        <ele>1070</ele>
        <time>2010-12-19T12:37:09Z</time>
      </trkpt>
      <trkpt lat="43.79293" lon="7.12794">
        <ele>1071</ele>
        <time>2010-12-19T12:37:11Z</time>
      </trkpt>
      <trkpt lat="43.7929" lon="7.1281">
        <ele>1071</ele>
        <time>2010-12-19T12:37:13Z</time>
      </trkpt>
      <trkpt lat="43.79288" lon="7.12827">
        <ele>1071</ele>
        <time>2010-12-19T12:37:16Z</time>
      </trkpt>
      <trkpt lat="43.79287" lon="7.12844">
        <ele>1070</ele>
        <time>2010-12-19T12:37:18Z</time>
      </trkpt>
      <trkpt lat="43.79285" lon="7.12862">
        <ele>1069</ele>
        <time>2010-12-19T12:37:20Z</time>
      </trkpt>
      <trkpt lat="43.79283" lon="7.12879">
        <ele>1068</ele>
        <time>2010-12-19T12:37:23Z</time>
      </trkpt>
      <trkpt lat="43.79278" lon="7.12892">
        <ele>1066</ele>
        <time>2010-12-19T12:37:26Z</time>
      </trkpt>
      <trkpt lat="43.79269" lon="7.1289">
        <ele>1064</ele>
        <time>2010-12-19T12:37:30Z</time>
      </trkpt>
      <trkpt lat="43.79258" lon="7.12885">
        <ele>1063</ele>
        <time>2010-12-19T12:37:34Z</time>
      </trkpt>
      <trkpt lat="43.79249" lon="7.12888">
        <ele>1062</ele>
        <time>2010-12-19T12:37:36Z</time>
      </trkpt>
      <trkpt lat="43.79238" lon="7.12888">
        <ele>1060</ele>
        <time>2010-12-19T12:37:39Z</time>
      </trkpt>
      <trkpt lat="43.7923" lon="7.12894">
        <ele>1060</ele>
        <time>2010-12-19T12:37:43Z</time>
      </trkpt>
      <trkpt lat="43.79229" lon="7.12897">
        <ele>1060</ele>
        <time>2010-12-19T12:37:45Z</time>
      </trkpt>
      <trkpt lat="43.79237" lon="7.12905">
        <ele>1058</ele>
        <time>2010-12-19T12:37:49Z</time>
      </trkpt>
      <trkpt lat="43.79246" lon="7.12911">
        <ele>1057</ele>
        <time>2010-12-19T12:37:53Z</time>
      </trkpt>
      <trkpt lat="43.79247" lon="7.12925">
        <ele>1058</ele>
        <time>2010-12-19T12:37:57Z</time>
      </trkpt>
      <trkpt lat="43.7924" lon="7.12935">
        <ele>1057</ele>
        <time>2010-12-19T12:38:01Z</time>
      </trkpt>
      <trkpt lat="43.79234" lon="7.12944">
        <ele>1057</ele>
        <time>2010-12-19T12:38:04Z</time>
      </trkpt>
      <trkpt lat="43.79233" lon="7.12959">
        <ele>1056</ele>
        <time>2010-12-19T12:38:07Z</time>
      </trkpt>
      <trkpt lat="43.79233" lon="7.12971">
        <ele>1055</ele>
        <time>2010-12-19T12:38:09Z</time>
      </trkpt>
      <trkpt lat="43.79236" lon="7.12985">
        <ele>1054</ele>
        <time>2010-12-19T12:38:11Z</time>
      </trkpt>
      <trkpt lat="43.79239" lon="7.12997">
        <ele>1054</ele>
        <time>2010-12-19T12:38:14Z</time>
      </trkpt>
      <trkpt lat="43.79241" lon="7.13011">
        <ele>1053</ele>
        <time>2010-12-19T12:38:17Z</time>
      </trkpt>
      <trkpt lat="43.79241" lon="7.13026">
        <ele>1051</ele>
        <time>2010-12-19T12:38:20Z</time>
      </trkpt>
      <trkpt lat="43.79238" lon="7.13038">
        <ele>1050</ele>
        <time>2010-12-19T12:38:23Z</time>
      </trkpt>
      <trkpt lat="43.7923" lon="7.13048">
        <ele>1048</ele>
        <time>2010-12-19T12:38:28Z</time>
      </trkpt>
      <trkpt lat="43.7922" lon="7.13048">
        <ele>1046</ele>
        <time>2010-12-19T12:38:32Z</time>
      </trkpt>
      <trkpt lat="43.79209" lon="7.13049">
        <ele>1045</ele>
        <time>2010-12-19T12:38:35Z</time>
      </trkpt>
      <trkpt lat="43.792" lon="7.13051">
        <ele>1044</ele>
        <time>2010-12-19T12:38:38Z</time>
      </trkpt>
      <trkpt lat="43.7919" lon="7.13054">
        <ele>1044</ele>
        <time>2010-12-19T12:38:41Z</time>
      </trkpt>
      <trkpt lat="43.79181" lon="7.13058">
        <ele>1042</ele>
        <time>2010-12-19T12:38:44Z</time>
      </trkpt>
      <trkpt lat="43.79174" lon="7.13067">
        <ele>1040</ele>
        <time>2010-12-19T12:38:47Z</time>
      </trkpt>
      <trkpt lat="43.79166" lon="7.13073">
        <ele>1039</ele>
        <time>2010-12-19T12:38:50Z</time>
      </trkpt>
      <trkpt lat="43.79155" lon="7.13074">
        <ele>1037</ele>
        <time>2010-12-19T12:38:54Z</time>
      </trkpt>
      <trkpt lat="43.79148" lon="7.13075">
        <ele>1031</ele>
        <time>2010-12-19T12:39:14Z</time>
      </trkpt>
      <trkpt lat="43.79139" lon="7.1308">
        <ele>1010</ele>
        <time>2010-12-19T12:39:24Z</time>
      </trkpt>
      <trkpt lat="43.79139" lon="7.1308">
        <ele>1010</ele>
        <time>2010-12-19T12:39:55Z</time>
      </trkpt>
      <trkpt lat="43.79129" lon="7.1308">
        <ele>999</ele>
        <time>2010-12-19T12:49:00Z</time>
      </trkpt>
      <trkpt lat="43.79121" lon="7.13074">
        <ele>1000</ele>
        <time>2010-12-19T12:49:03Z</time>
      </trkpt>
      <trkpt lat="43.79118" lon="7.13072">
        <ele>1000</ele>
        <time>2010-12-19T12:49:04Z</time>
      </trkpt>
      <trkpt lat="43.79109" lon="7.13064">
        <ele>1000</ele>
        <time>2010-12-19T12:49:07Z</time>
      </trkpt>
      <trkpt lat="43.791" lon="7.13061">
        <ele>1001</ele>
        <time>2010-12-19T12:49:10Z</time>
      </trkpt>
      <trkpt lat="43.79091" lon="7.13066">
        <ele>1001</ele>
        <time>2010-12-19T12:49:13Z</time>
      </trkpt>
      <trkpt lat="43.79081" lon="7.13067">
        <ele>1001</ele>
        <time>2010-12-19T12:49:17Z</time>
      </trkpt>
      <trkpt lat="43.7907" lon="7.13072">
        <ele>1002</ele>
        <time>2010-12-19T12:49:21Z</time>
      </trkpt>
      <trkpt lat="43.7906" lon="7.13079">
        <ele>1002</ele>
        <time>2010-12-19T12:49:24Z</time>
      </trkpt>
      <trkpt lat="43.79051" lon="7.13086">
        <ele>1002</ele>
        <time>2010-12-19T12:49:26Z</time>
      </trkpt>
      <trkpt lat="43.79042" lon="7.13095">
        <ele>1001</ele>
        <time>2010-12-19T12:49:29Z</time>
      </trkpt>
      <trkpt lat="43.79036" lon="7.13108">
        <ele>1000</ele>
        <time>2010-12-19T12:49:32Z</time>
      </trkpt>
      <trkpt lat="43.7903" lon="7.13119">
        <ele>1000</ele>
        <time>2010-12-19T12:49:35Z</time>
      </trkpt>
      <trkpt lat="43.79023" lon="7.13129">
        <ele>999</ele>
        <time>2010-12-19T12:49:38Z</time>
      </trkpt>
      <trkpt lat="43.79014" lon="7.13134">
        <ele>998</ele>
        <time>2010-12-19T12:49:41Z</time>
      </trkpt>
      <trkpt lat="43.79004" lon="7.1314">
        <ele>998</ele>
        <time>2010-12-19T12:49:44Z</time>
      </trkpt>
      <trkpt lat="43.78996" lon="7.1315">
        <ele>998</ele>
        <time>2010-12-19T12:49:48Z</time>
      </trkpt>
      <trkpt lat="43.78989" lon="7.13159">
        <ele>999</ele>
        <time>2010-12-19T12:49:53Z</time>
      </trkpt>
      <trkpt lat="43.78981" lon="7.13167">
        <ele>999</ele>
        <time>2010-12-19T12:49:56Z</time>
      </trkpt>
      <trkpt lat="43.78974" lon="7.13178">
        <ele>999</ele>
        <time>2010-12-19T12:50:00Z</time>
      </trkpt>
      <trkpt lat="43.78967" lon="7.13187">
        <ele>999</ele>
        <time>2010-12-19T12:50:03Z</time>
      </trkpt>
      <trkpt lat="43.7896" lon="7.13199">
        <ele>998</ele>
        <time>2010-12-19T12:50:06Z</time>
      </trkpt>
      <trkpt lat="43.78953" lon="7.13212">
        <ele>998</ele>
        <time>2010-12-19T12:50:09Z</time>
      </trkpt>
      <trkpt lat="43.78946" lon="7.13221">
        <ele>998</ele>
        <time>2010-12-19T12:50:12Z</time>
      </trkpt>
      <trkpt lat="43.78937" lon="7.13227">
        <ele>997</ele>
        <time>2010-12-19T12:50:14Z</time>
      </trkpt>
      <trkpt lat="43.78934" lon="7.13228">
        <ele>997</ele>
        <time>2010-12-19T12:50:15Z</time>
      </trkpt>
      <trkpt lat="43.78924" lon="7.13232">
        <ele>997</ele>
        <time>2010-12-19T12:50:17Z</time>
      </trkpt>
      <trkpt lat="43.78915" lon="7.13237">
        <ele>996</ele>
        <time>2010-12-19T12:50:19Z</time>
      </trkpt>
      <trkpt lat="43.78905" lon="7.13241">
        <ele>996</ele>
        <time>2010-12-19T12:50:21Z</time>
      </trkpt>
      <trkpt lat="43.78895" lon="7.13247">
        <ele>996</ele>
        <time>2010-12-19T12:50:24Z</time>
      </trkpt>
      <trkpt lat="43.78885" lon="7.13254">
        <ele>996</ele>
        <time>2010-12-19T12:50:26Z</time>
      </trkpt>
      <trkpt lat="43.78876" lon="7.13262">
        <ele>995</ele>
        <time>2010-12-19T12:50:28Z</time>
      </trkpt>
      <trkpt lat="43.78867" lon="7.13267">
        <ele>996</ele>
        <time>2010-12-19T12:50:30Z</time>
      </trkpt>
      <trkpt lat="43.78857" lon="7.13272">
        <ele>996</ele>
        <time>2010-12-19T12:50:33Z</time>
      </trkpt>
      <trkpt lat="43.78853" lon="7.13275">
        <ele>996</ele>
        <time>2010-12-19T12:50:35Z</time>
      </trkpt>
      <trkpt lat="43.78849" lon="7.13286">
        <ele>995</ele>
        <time>2010-12-19T12:50:39Z</time>
      </trkpt>
      <trkpt lat="43.78847" lon="7.13292">
        <ele>995</ele>
        <time>2010-12-19T12:50:42Z</time>
      </trkpt>
      <trkpt lat="43.78841" lon="7.13301">
        <ele>996</ele>
        <time>2010-12-19T12:50:47Z</time>
      </trkpt>
      <trkpt lat="43.78833" lon="7.13309">
        <ele>995</ele>
        <time>2010-12-19T12:50:50Z</time>
      </trkpt>
      <trkpt lat="43.78825" lon="7.13315">
        <ele>995</ele>
        <time>2010-12-19T12:50:52Z</time>
      </trkpt>
      <trkpt lat="43.78814" lon="7.13321">
        <ele>995</ele>
        <time>2010-12-19T12:50:54Z</time>
      </trkpt>
      <trkpt lat="43.78801" lon="7.13326">
        <ele>995</ele>
        <time>2010-12-19T12:50:57Z</time>
      </trkpt>
      <trkpt lat="43.78789" lon="7.13331">
        <ele>994</ele>
        <time>2010-12-19T12:50:59Z</time>
      </trkpt>
      <trkpt lat="43.78778" lon="7.13334">
        <ele>995</ele>
        <time>2010-12-19T12:51:01Z</time>
      </trkpt>
      <trkpt lat="43.78767" lon="7.13336">
        <ele>995</ele>
        <time>2010-12-19T12:51:04Z</time>
      </trkpt>
      <trkpt lat="43.78755" lon="7.13335">
        <ele>995</ele>
        <time>2010-12-19T12:51:06Z</time>
      </trkpt>
      <trkpt lat="43.78744" lon="7.13329">
        <ele>995</ele>
        <time>2010-12-19T12:51:08Z</time>
      </trkpt>
      <trkpt lat="43.78735" lon="7.13322">
        <ele>996</ele>
        <time>2010-12-19T12:51:11Z</time>
      </trkpt>
      <trkpt lat="43.78725" lon="7.13322">
        <ele>995</ele>
        <time>2010-12-19T12:51:14Z</time>
      </trkpt>
      <trkpt lat="43.78715" lon="7.13326">
        <ele>994</ele>
        <time>2010-12-19T12:51:18Z</time>
      </trkpt>
      <trkpt lat="43.78705" lon="7.13323">
        <ele>994</ele>
        <time>2010-12-19T12:51:21Z</time>
      </trkpt>
      <trkpt lat="43.78694" lon="7.13321">
        <ele>994</ele>
        <time>2010-12-19T12:51:25Z</time>
      </trkpt>
      <trkpt lat="43.78684" lon="7.13325">
        <ele>994</ele>
        <time>2010-12-19T12:51:29Z</time>
      </trkpt>
      <trkpt lat="43.78675" lon="7.13326">
        <ele>994</ele>
        <time>2010-12-19T12:51:32Z</time>
      </trkpt>
      <trkpt lat="43.78671" lon="7.13327">
        <ele>994</ele>
        <time>2010-12-19T12:51:33Z</time>
      </trkpt>
      <trkpt lat="43.7866" lon="7.13328">
        <ele>994</ele>
        <time>2010-12-19T12:51:36Z</time>
      </trkpt>
      <trkpt lat="43.78649" lon="7.1333">
        <ele>993</ele>
        <time>2010-12-19T12:51:39Z</time>
      </trkpt>
      <trkpt lat="43.78636" lon="7.13333">
        <ele>992</ele>
        <time>2010-12-19T12:51:41Z</time>
      </trkpt>
      <trkpt lat="43.78625" lon="7.13335">
        <ele>992</ele>
        <time>2010-12-19T12:51:42Z</time>
      </trkpt>
      <trkpt lat="43.7862" lon="7.13336">
        <ele>991</ele>
        <time>2010-12-19T12:51:43Z</time>
      </trkpt>
      <trkpt lat="43.7861" lon="7.13337">
        <ele>991</ele>
        <time>2010-12-19T12:51:45Z</time>
      </trkpt>
      <trkpt lat="43.78602" lon="7.13336">
        <ele>990</ele>
        <time>2010-12-19T12:51:46Z</time>
      </trkpt>
      <trkpt lat="43.78589" lon="7.13334">
        <ele>989</ele>
        <time>2010-12-19T12:51:49Z</time>
      </trkpt>
      <trkpt lat="43.78578" lon="7.13335">
        <ele>989</ele>
        <time>2010-12-19T12:51:51Z</time>
      </trkpt>
      <trkpt lat="43.78567" lon="7.13336">
        <ele>989</ele>
        <time>2010-12-19T12:51:53Z</time>
      </trkpt>
      <trkpt lat="43.78555" lon="7.13338">
        <ele>990</ele>
        <time>2010-12-19T12:51:56Z</time>
      </trkpt>
      <trkpt lat="43.78547" lon="7.13339">
        <ele>990</ele>
        <time>2010-12-19T12:51:57Z</time>
      </trkpt>
      <trkpt lat="43.78536" lon="7.13341">
        <ele>990</ele>
        <time>2010-12-19T12:51:59Z</time>
      </trkpt>
      <trkpt lat="43.78526" lon="7.13343">
        <ele>990</ele>
        <time>2010-12-19T12:52:02Z</time>
      </trkpt>
      <trkpt lat="43.78517" lon="7.13345">
        <ele>990</ele>
        <time>2010-12-19T12:52:04Z</time>
      </trkpt>
      <trkpt lat="43.78508" lon="7.13349">
        <ele>988</ele>
        <time>2010-12-19T12:52:07Z</time>
      </trkpt>
      <trkpt lat="43.78497" lon="7.13351">
        <ele>989</ele>
        <time>2010-12-19T12:52:10Z</time>
      </trkpt>
      <trkpt lat="43.78488" lon="7.1335">
        <ele>989</ele>
        <time>2010-12-19T12:52:13Z</time>
      </trkpt>
      <trkpt lat="43.78479" lon="7.13348">
        <ele>989</ele>
        <time>2010-12-19T12:52:15Z</time>
      </trkpt>
      <trkpt lat="43.78469" lon="7.13347">
        <ele>990</ele>
        <time>2010-12-19T12:52:17Z</time>
      </trkpt>
      <trkpt lat="43.78458" lon="7.1335">
        <ele>989</ele>
        <time>2010-12-19T12:52:20Z</time>
      </trkpt>
      <trkpt lat="43.78447" lon="7.13354">
        <ele>988</ele>
        <time>2010-12-19T12:52:23Z</time>
      </trkpt>
      <trkpt lat="43.78438" lon="7.13358">
        <ele>988</ele>
        <time>2010-12-19T12:52:26Z</time>
      </trkpt>
      <trkpt lat="43.7843" lon="7.13365">
        <ele>987</ele>
        <time>2010-12-19T12:52:29Z</time>
      </trkpt>
      <trkpt lat="43.78421" lon="7.13375">
        <ele>987</ele>
        <time>2010-12-19T12:52:33Z</time>
      </trkpt>
      <trkpt lat="43.78413" lon="7.13383">
        <ele>986</ele>
        <time>2010-12-19T12:52:36Z</time>
      </trkpt>
      <trkpt lat="43.78404" lon="7.13388">
        <ele>985</ele>
        <time>2010-12-19T12:52:39Z</time>
      </trkpt>
      <trkpt lat="43.78395" lon="7.13393">
        <ele>984</ele>
        <time>2010-12-19T12:52:42Z</time>
      </trkpt>
      <trkpt lat="43.78386" lon="7.13397">
        <ele>982</ele>
        <time>2010-12-19T12:52:45Z</time>
      </trkpt>
      <trkpt lat="43.78376" lon="7.13402">
        <ele>981</ele>
        <time>2010-12-19T12:52:49Z</time>
      </trkpt>
      <trkpt lat="43.78367" lon="7.13405">
        <ele>981</ele>
        <time>2010-12-19T12:52:52Z</time>
      </trkpt>
      <trkpt lat="43.78357" lon="7.13407">
        <ele>981</ele>
        <time>2010-12-19T12:52:54Z</time>
      </trkpt>
      <trkpt lat="43.78346" lon="7.13407">
        <ele>981</ele>
        <time>2010-12-19T12:52:57Z</time>
      </trkpt>
      <trkpt lat="43.78333" lon="7.13405">
        <ele>981</ele>
        <time>2010-12-19T12:52:59Z</time>
      </trkpt>
      <trkpt lat="43.7832" lon="7.13403">
        <ele>980</ele>
        <time>2010-12-19T12:53:01Z</time>
      </trkpt>
      <trkpt lat="43.78309" lon="7.134">
        <ele>979</ele>
        <time>2010-12-19T12:53:04Z</time>
      </trkpt>
      <trkpt lat="43.78298" lon="7.13398">
        <ele>978</ele>
        <time>2010-12-19T12:53:06Z</time>
      </trkpt>
      <trkpt lat="43.78288" lon="7.13397">
        <ele>978</ele>
        <time>2010-12-19T12:53:08Z</time>
      </trkpt>
      <trkpt lat="43.78278" lon="7.13396">
        <ele>978</ele>
        <time>2010-12-19T12:53:11Z</time>
      </trkpt>
      <trkpt lat="43.78268" lon="7.13394">
        <ele>978</ele>
        <time>2010-12-19T12:53:14Z</time>
      </trkpt>
      <trkpt lat="43.78259" lon="7.13395">
        <ele>978</ele>
        <time>2010-12-19T12:53:17Z</time>
      </trkpt>
      <trkpt lat="43.78249" lon="7.13397">
        <ele>977</ele>
        <time>2010-12-19T12:53:20Z</time>
      </trkpt>
      <trkpt lat="43.78239" lon="7.134">
        <ele>977</ele>
        <time>2010-12-19T12:53:23Z</time>
      </trkpt>
      <trkpt lat="43.78229" lon="7.13404">
        <ele>976</ele>
        <time>2010-12-19T12:53:27Z</time>
      </trkpt>
      <trkpt lat="43.78219" lon="7.13407">
        <ele>975</ele>
        <time>2010-12-19T12:53:30Z</time>
      </trkpt>
      <trkpt lat="43.78211" lon="7.1341">
        <ele>974</ele>
        <time>2010-12-19T12:53:33Z</time>
      </trkpt>
      <trkpt lat="43.78201" lon="7.13418">
        <ele>973</ele>
        <time>2010-12-19T12:53:37Z</time>
      </trkpt>
      <trkpt lat="43.78191" lon="7.13419">
        <ele>971</ele>
        <time>2010-12-19T12:53:41Z</time>
      </trkpt>
      <trkpt lat="43.7818" lon="7.13421">
        <ele>971</ele>
        <time>2010-12-19T12:53:44Z</time>
      </trkpt>
      <trkpt lat="43.78171" lon="7.13425">
        <ele>970</ele>
        <time>2010-12-19T12:53:46Z</time>
      </trkpt>
      <trkpt lat="43.78163" lon="7.13433">
        <ele>968</ele>
        <time>2010-12-19T12:53:49Z</time>
      </trkpt>
      <trkpt lat="43.78154" lon="7.13442">
        <ele>968</ele>
        <time>2010-12-19T12:53:52Z</time>
      </trkpt>
      <trkpt lat="43.78149" lon="7.13453">
        <ele>967</ele>
        <time>2010-12-19T12:53:55Z</time>
      </trkpt>
      <trkpt lat="43.78145" lon="7.13465">
        <ele>964</ele>
        <time>2010-12-19T12:54:03Z</time>
      </trkpt>
      <trkpt lat="43.78136" lon="7.13464">
        <ele>963</ele>
        <time>2010-12-19T12:54:07Z</time>
      </trkpt>
      <trkpt lat="43.78126" lon="7.1347">
        <ele>956</ele>
        <time>2010-12-19T12:54:24Z</time>
      </trkpt>
      <trkpt lat="43.78123" lon="7.13483">
        <ele>955</ele>
        <time>2010-12-19T12:54:28Z</time>
      </trkpt>
      <trkpt lat="43.78113" lon="7.13491">
        <ele>955</ele>
        <time>2010-12-19T12:54:31Z</time>
      </trkpt>
      <trkpt lat="43.78104" lon="7.13495">
        <ele>954</ele>
        <time>2010-12-19T12:54:34Z</time>
      </trkpt>
      <trkpt lat="43.78095" lon="7.135">
        <ele>954</ele>
        <time>2010-12-19T12:54:36Z</time>
      </trkpt>
      <trkpt lat="43.78085" lon="7.13507">
        <ele>953</ele>
        <time>2010-12-19T12:54:39Z</time>
      </trkpt>
      <trkpt lat="43.78076" lon="7.13513">
        <ele>953</ele>
        <time>2010-12-19T12:54:42Z</time>
      </trkpt>
      <trkpt lat="43.78066" lon="7.13516">
        <ele>952</ele>
        <time>2010-12-19T12:54:45Z</time>
      </trkpt>
      <trkpt lat="43.78056" lon="7.13517">
        <ele>951</ele>
        <time>2010-12-19T12:54:48Z</time>
      </trkpt>
      <trkpt lat="43.78046" lon="7.13514">
        <ele>951</ele>
        <time>2010-12-19T12:54:51Z</time>
      </trkpt>
      <trkpt lat="43.78034" lon="7.13514">
        <ele>951</ele>
        <time>2010-12-19T12:54:54Z</time>
      </trkpt>
      <trkpt lat="43.78024" lon="7.13516">
        <ele>951</ele>
        <time>2010-12-19T12:54:57Z</time>
      </trkpt>
      <trkpt lat="43.78014" lon="7.1352">
        <ele>950</ele>
        <time>2010-12-19T12:54:59Z</time>
      </trkpt>
      <trkpt lat="43.78005" lon="7.1353">
        <ele>950</ele>
        <time>2010-12-19T12:55:01Z</time>
      </trkpt>
      <trkpt lat="43.77997" lon="7.13539">
        <ele>950</ele>
        <time>2010-12-19T12:55:04Z</time>
      </trkpt>
      <trkpt lat="43.77991" lon="7.13551">
        <ele>950</ele>
        <time>2010-12-19T12:55:07Z</time>
      </trkpt>
      <trkpt lat="43.77983" lon="7.13559">
        <ele>949</ele>
        <time>2010-12-19T12:55:11Z</time>
      </trkpt>
      <trkpt lat="43.77975" lon="7.13568">
        <ele>948</ele>
        <time>2010-12-19T12:55:16Z</time>
      </trkpt>
      <trkpt lat="43.77969" lon="7.13579">
        <ele>948</ele>
        <time>2010-12-19T12:55:20Z</time>
      </trkpt>
      <trkpt lat="43.77962" lon="7.1359">
        <ele>948</ele>
        <time>2010-12-19T12:55:24Z</time>
      </trkpt>
      <trkpt lat="43.7796" lon="7.13599">
        <ele>948</ele>
        <time>2010-12-19T12:55:27Z</time>
      </trkpt>
      <trkpt lat="43.77958" lon="7.13613">
        <ele>947</ele>
        <time>2010-12-19T12:55:31Z</time>
      </trkpt>
      <trkpt lat="43.77958" lon="7.13627">
        <ele>947</ele>
        <time>2010-12-19T12:55:36Z</time>
      </trkpt>
      <trkpt lat="43.77961" lon="7.1364">
        <ele>945</ele>
        <time>2010-12-19T12:55:40Z</time>
      </trkpt>
      <trkpt lat="43.77956" lon="7.13653">
        <ele>945</ele>
        <time>2010-12-19T12:55:44Z</time>
      </trkpt>
      <trkpt lat="43.7796" lon="7.13665">
        <ele>945</ele>
        <time>2010-12-19T12:55:47Z</time>
      </trkpt>
      <trkpt lat="43.77959" lon="7.13678">
        <ele>944</ele>
        <time>2010-12-19T12:55:52Z</time>
      </trkpt>
      <trkpt lat="43.77949" lon="7.1368">
        <ele>941</ele>
        <time>2010-12-19T12:55:58Z</time>
      </trkpt>
      <trkpt lat="43.7793" lon="7.13668">
        <ele>945</ele>
        <time>2010-12-19T12:56:09Z</time>
      </trkpt>
      <trkpt lat="43.7793" lon="7.13668">
        <ele>945</ele>
        <time>2010-12-19T12:56:09Z</time>
      </trkpt>
      <trkpt lat="43.7792" lon="7.13667">
        <ele>947</ele>
        <time>2010-12-19T12:56:11Z</time>
      </trkpt>
      <trkpt lat="43.77908" lon="7.13668">
        <ele>948</ele>
        <time>2010-12-19T12:56:14Z</time>
      </trkpt>
      <trkpt lat="43.77899" lon="7.1367">
        <ele>949</ele>
        <time>2010-12-19T12:56:17Z</time>
      </trkpt>
      <trkpt lat="43.77892" lon="7.13671">
        <ele>948</ele>
        <time>2010-12-19T12:56:18Z</time>
      </trkpt>
      <trkpt lat="43.77882" lon="7.13672">
        <ele>948</ele>
        <time>2010-12-19T12:56:20Z</time>
      </trkpt>
      <trkpt lat="43.77872" lon="7.13677">
        <ele>947</ele>
        <time>2010-12-19T12:56:22Z</time>
      </trkpt>
      <trkpt lat="43.77861" lon="7.13676">
        <ele>944</ele>
        <time>2010-12-19T12:56:25Z</time>
      </trkpt>
      <trkpt lat="43.7785" lon="7.13674">
        <ele>942</ele>
        <time>2010-12-19T12:56:28Z</time>
      </trkpt>
      <trkpt lat="43.77839" lon="7.13667">
        <ele>939</ele>
        <time>2010-12-19T12:56:32Z</time>
      </trkpt>
      <trkpt lat="43.7783" lon="7.1366">
        <ele>938</ele>
        <time>2010-12-19T12:56:36Z</time>
      </trkpt>
      <trkpt lat="43.7783" lon="7.1366">
        <ele>938</ele>
        <time>2010-12-19T12:56:38Z</time>
      </trkpt>
      <trkpt lat="43.77811" lon="7.13667">
        <ele>940</ele>
        <time>2010-12-19T12:56:49Z</time>
      </trkpt>
      <trkpt lat="43.77799" lon="7.13667">
        <ele>939</ele>
        <time>2010-12-19T12:56:51Z</time>
      </trkpt>
      <trkpt lat="43.77787" lon="7.13668">
        <ele>937</ele>
        <time>2010-12-19T12:56:53Z</time>
      </trkpt>
      <trkpt lat="43.77777" lon="7.13671">
        <ele>934</ele>
        <time>2010-12-19T12:56:56Z</time>
      </trkpt>
      <trkpt lat="43.77769" lon="7.13677">
        <ele>930</ele>
        <time>2010-12-19T12:56:59Z</time>
      </trkpt>
      <trkpt lat="43.7776" lon="7.13683">
        <ele>926</ele>
        <time>2010-12-19T12:57:02Z</time>
      </trkpt>
      <trkpt lat="43.77755" lon="7.13685">
        <ele>925</ele>
        <time>2010-12-19T12:57:05Z</time>
      </trkpt>
      <trkpt lat="43.77747" lon="7.1369">
        <ele>921</ele>
        <time>2010-12-19T12:57:09Z</time>
      </trkpt>
      <trkpt lat="43.77744" lon="7.13702">
        <ele>918</ele>
        <time>2010-12-19T12:57:13Z</time>
      </trkpt>
      <trkpt lat="43.77737" lon="7.13722">
        <ele>916</ele>
        <time>2010-12-19T12:57:18Z</time>
      </trkpt>
      <trkpt lat="43.77728" lon="7.13736">
        <ele>918</ele>
        <time>2010-12-19T12:57:24Z</time>
      </trkpt>
      <trkpt lat="43.77722" lon="7.13746">
        <ele>918</ele>
        <time>2010-12-19T12:57:26Z</time>
      </trkpt>
      <trkpt lat="43.77714" lon="7.13756">
        <ele>917</ele>
        <time>2010-12-19T12:57:30Z</time>
      </trkpt>
      <trkpt lat="43.77703" lon="7.13768">
        <ele>919</ele>
        <time>2010-12-19T12:57:37Z</time>
      </trkpt>
      <trkpt lat="43.77703" lon="7.13768">
        <ele>919</ele>
        <time>2010-12-19T12:57:38Z</time>
      </trkpt>
      <trkpt lat="43.77696" lon="7.13778">
        <ele>919</ele>
        <time>2010-12-19T12:57:45Z</time>
      </trkpt>
      <trkpt lat="43.77696" lon="7.13778">
        <ele>919</ele>
        <time>2010-12-19T12:57:46Z</time>
      </trkpt>
      <trkpt lat="43.77686" lon="7.13787">
        <ele>920</ele>
        <time>2010-12-19T12:57:49Z</time>
      </trkpt>
      <trkpt lat="43.77677" lon="7.13794">
        <ele>920</ele>
        <time>2010-12-19T12:57:51Z</time>
      </trkpt>
      <trkpt lat="43.77666" lon="7.13804">
        <ele>920</ele>
        <time>2010-12-19T12:57:54Z</time>
      </trkpt>
      <trkpt lat="43.77659" lon="7.13813">
        <ele>918</ele>
        <time>2010-12-19T12:57:56Z</time>
      </trkpt>
      <trkpt lat="43.7765" lon="7.13819">
        <ele>914</ele>
        <time>2010-12-19T12:58:00Z</time>
      </trkpt>
      <trkpt lat="43.77647" lon="7.13817">
        <ele>913</ele>
        <time>2010-12-19T12:58:02Z</time>
      </trkpt>
      <trkpt lat="43.77637" lon="7.13816">
        <ele>909</ele>
        <time>2010-12-19T12:58:10Z</time>
      </trkpt>
      <trkpt lat="43.77628" lon="7.13824">
        <ele>906</ele>
        <time>2010-12-19T12:58:13Z</time>
      </trkpt>
      <trkpt lat="43.77623" lon="7.13828">
        <ele>905</ele>
        <time>2010-12-19T12:58:15Z</time>
      </trkpt>
      <trkpt lat="43.77614" lon="7.13834">
        <ele>905</ele>
        <time>2010-12-19T12:58:18Z</time>
      </trkpt>
      <trkpt lat="43.77604" lon="7.1384">
        <ele>904</ele>
        <time>2010-12-19T12:58:21Z</time>
      </trkpt>
      <trkpt lat="43.77597" lon="7.13843">
        <ele>903</ele>
        <time>2010-12-19T12:58:23Z</time>
      </trkpt>
      <trkpt lat="43.77587" lon="7.13849">
        <ele>900</ele>
        <time>2010-12-19T12:58:28Z</time>
      </trkpt>
      <trkpt lat="43.77578" lon="7.13846">
        <ele>896</ele>
        <time>2010-12-19T12:58:33Z</time>
      </trkpt>
      <trkpt lat="43.77566" lon="7.13849">
        <ele>895</ele>
        <time>2010-12-19T12:58:37Z</time>
      </trkpt>
      <trkpt lat="43.77555" lon="7.13854">
        <ele>892</ele>
        <time>2010-12-19T12:58:40Z</time>
      </trkpt>
      <trkpt lat="43.77547" lon="7.1386">
        <ele>890</ele>
        <time>2010-12-19T12:58:43Z</time>
      </trkpt>
      <trkpt lat="43.77538" lon="7.1387">
        <ele>887</ele>
        <time>2010-12-19T12:58:46Z</time>
      </trkpt>
      <trkpt lat="43.77532" lon="7.13878">
        <ele>883</ele>
        <time>2010-12-19T12:58:49Z</time>
      </trkpt>
      <trkpt lat="43.77523" lon="7.13872">
        <ele>879</ele>
        <time>2010-12-19T12:58:53Z</time>
      </trkpt>
      <trkpt lat="43.77516" lon="7.1388">
        <ele>876</ele>
        <time>2010-12-19T12:58:57Z</time>
      </trkpt>
      <trkpt lat="43.77512" lon="7.13892">
        <ele>874</ele>
        <time>2010-12-19T12:59:00Z</time>
      </trkpt>
      <trkpt lat="43.77508" lon="7.13906">
        <ele>872</ele>
        <time>2010-12-19T12:59:02Z</time>
      </trkpt>
      <trkpt lat="43.77504" lon="7.13921">
        <ele>871</ele>
        <time>2010-12-19T12:59:04Z</time>
      </trkpt>
      <trkpt lat="43.77498" lon="7.13937">
        <ele>870</ele>
        <time>2010-12-19T12:59:06Z</time>
      </trkpt>
      <trkpt lat="43.77493" lon="7.13949">
        <ele>869</ele>
        <time>2010-12-19T12:59:08Z</time>
      </trkpt>
      <trkpt lat="43.77488" lon="7.13961">
        <ele>869</ele>
        <time>2010-12-19T12:59:09Z</time>
      </trkpt>
      <trkpt lat="43.77482" lon="7.13971">
        <ele>868</ele>
        <time>2010-12-19T12:59:11Z</time>
      </trkpt>
      <trkpt lat="43.77473" lon="7.13984">
        <ele>868</ele>
        <time>2010-12-19T12:59:13Z</time>
      </trkpt>
      <trkpt lat="43.77462" lon="7.13991">
        <ele>867</ele>
        <time>2010-12-19T12:59:15Z</time>
      </trkpt>
      <trkpt lat="43.77451" lon="7.13996">
        <ele>866</ele>
        <time>2010-12-19T12:59:18Z</time>
      </trkpt>
      <trkpt lat="43.7744" lon="7.14001">
        <ele>864</ele>
        <time>2010-12-19T12:59:20Z</time>
      </trkpt>
      <trkpt lat="43.77431" lon="7.14007">
        <ele>863</ele>
        <time>2010-12-19T12:59:22Z</time>
      </trkpt>
      <trkpt lat="43.77422" lon="7.14013">
        <ele>861</ele>
        <time>2010-12-19T12:59:25Z</time>
      </trkpt>
      <trkpt lat="43.77412" lon="7.14019">
        <ele>861</ele>
        <time>2010-12-19T12:59:27Z</time>
      </trkpt>
      <trkpt lat="43.77404" lon="7.14024">
        <ele>859</ele>
        <time>2010-12-19T12:59:29Z</time>
      </trkpt>
      <trkpt lat="43.77394" lon="7.14031">
        <ele>859</ele>
        <time>2010-12-19T12:59:32Z</time>
      </trkpt>
      <trkpt lat="43.77392" lon="7.14033">
        <ele>859</ele>
        <time>2010-12-19T12:59:33Z</time>
      </trkpt>
      <trkpt lat="43.77384" lon="7.14042">
        <ele>853</ele>
        <time>2010-12-19T12:59:57Z</time>
      </trkpt>
      <trkpt lat="43.77382" lon="7.14045">
        <ele>853</ele>
        <time>2010-12-19T12:59:58Z</time>
      </trkpt>
      <trkpt lat="43.77372" lon="7.14054">
        <ele>852</ele>
        <time>2010-12-19T13:00:01Z</time>
      </trkpt>
      <trkpt lat="43.77363" lon="7.14064">
        <ele>851</ele>
        <time>2010-12-19T13:00:04Z</time>
      </trkpt>
      <trkpt lat="43.77357" lon="7.14072">
        <ele>851</ele>
        <time>2010-12-19T13:00:06Z</time>
      </trkpt>
      <trkpt lat="43.77348" lon="7.14081">
        <ele>850</ele>
        <time>2010-12-19T13:00:09Z</time>
      </trkpt>
      <trkpt lat="43.77341" lon="7.1409">
        <ele>850</ele>
        <time>2010-12-19T13:00:12Z</time>
      </trkpt>
      <trkpt lat="43.77331" lon="7.14101">
        <ele>848</ele>
        <time>2010-12-19T13:00:15Z</time>
      </trkpt>
      <trkpt lat="43.77323" lon="7.14112">
        <ele>848</ele>
        <time>2010-12-19T13:00:18Z</time>
      </trkpt>
      <trkpt lat="43.77316" lon="7.14125">
        <ele>847</ele>
        <time>2010-12-19T13:00:20Z</time>
      </trkpt>
      <trkpt lat="43.77311" lon="7.14139">
        <ele>845</ele>
        <time>2010-12-19T13:00:22Z</time>
      </trkpt>
      <trkpt lat="43.77307" lon="7.14152">
        <ele>844</ele>
        <time>2010-12-19T13:00:25Z</time>
      </trkpt>
      <trkpt lat="43.77302" lon="7.14167">
        <ele>843</ele>
        <time>2010-12-19T13:00:27Z</time>
      </trkpt>
      <trkpt lat="43.77295" lon="7.1418">
        <ele>842</ele>
        <time>2010-12-19T13:00:29Z</time>
      </trkpt>
      <trkpt lat="43.77286" lon="7.1419">
        <ele>842</ele>
        <time>2010-12-19T13:00:32Z</time>
      </trkpt>
      <trkpt lat="43.77277" lon="7.142">
        <ele>842</ele>
        <time>2010-12-19T13:00:34Z</time>
      </trkpt>
      <trkpt lat="43.7727" lon="7.14212">
        <ele>840</ele>
        <time>2010-12-19T13:00:36Z</time>
      </trkpt>
      <trkpt lat="43.77263" lon="7.14225">
        <ele>839</ele>
        <time>2010-12-19T13:00:38Z</time>
      </trkpt>
      <trkpt lat="43.77257" lon="7.14238">
        <ele>838</ele>
        <time>2010-12-19T13:00:41Z</time>
      </trkpt>
      <trkpt lat="43.77253" lon="7.14251">
        <ele>837</ele>
        <time>2010-12-19T13:00:43Z</time>
      </trkpt>
      <trkpt lat="43.77244" lon="7.14258">
        <ele>835</ele>
        <time>2010-12-19T13:00:47Z</time>
      </trkpt>
      <trkpt lat="43.77233" lon="7.14256">
        <ele>834</ele>
        <time>2010-12-19T13:00:50Z</time>
      </trkpt>
      <trkpt lat="43.7722" lon="7.14261">
        <ele>833</ele>
        <time>2010-12-19T13:00:52Z</time>
      </trkpt>
      <trkpt lat="43.7721" lon="7.14269">
        <ele>833</ele>
        <time>2010-12-19T13:00:54Z</time>
      </trkpt>
      <trkpt lat="43.77199" lon="7.14277">
        <ele>833</ele>
        <time>2010-12-19T13:00:57Z</time>
      </trkpt>
      <trkpt lat="43.77189" lon="7.14288">
        <ele>833</ele>
        <time>2010-12-19T13:00:59Z</time>
      </trkpt>
      <trkpt lat="43.77182" lon="7.143">
        <ele>832</ele>
        <time>2010-12-19T13:01:01Z</time>
      </trkpt>
      <trkpt lat="43.77175" lon="7.14311">
        <ele>831</ele>
        <time>2010-12-19T13:01:04Z</time>
      </trkpt>
      <trkpt lat="43.77167" lon="7.14323">
        <ele>830</ele>
        <time>2010-12-19T13:01:06Z</time>
      </trkpt>
      <trkpt lat="43.77158" lon="7.14334">
        <ele>830</ele>
        <time>2010-12-19T13:01:08Z</time>
      </trkpt>
      <trkpt lat="43.77155" lon="7.14337">
        <ele>830</ele>
        <time>2010-12-19T13:01:09Z</time>
      </trkpt>
      <trkpt lat="43.77145" lon="7.14347">
        <ele>830</ele>
        <time>2010-12-19T13:01:11Z</time>
      </trkpt>
      <trkpt lat="43.77136" lon="7.14359">
        <ele>829</ele>
        <time>2010-12-19T13:01:13Z</time>
      </trkpt>
      <trkpt lat="43.77126" lon="7.14371">
        <ele>828</ele>
        <time>2010-12-19T13:01:15Z</time>
      </trkpt>
      <trkpt lat="43.77116" lon="7.14383">
        <ele>827</ele>
        <time>2010-12-19T13:01:18Z</time>
      </trkpt>
      <trkpt lat="43.77107" lon="7.14394">
        <ele>826</ele>
        <time>2010-12-19T13:01:20Z</time>
      </trkpt>
      <trkpt lat="43.77098" lon="7.14404">
        <ele>825</ele>
        <time>2010-12-19T13:01:22Z</time>
      </trkpt>
      <trkpt lat="43.77087" lon="7.14411">
        <ele>825</ele>
        <time>2010-12-19T13:01:24Z</time>
      </trkpt>
      <trkpt lat="43.77083" lon="7.14414">
        <ele>824</ele>
        <time>2010-12-19T13:01:25Z</time>
      </trkpt>
      <trkpt lat="43.77075" lon="7.14419">
        <ele>824</ele>
        <time>2010-12-19T13:01:27Z</time>
      </trkpt>
      <trkpt lat="43.77066" lon="7.14425">
        <ele>823</ele>
        <time>2010-12-19T13:01:28Z</time>
      </trkpt>
      <trkpt lat="43.77058" lon="7.14432">
        <ele>824</ele>
        <time>2010-12-19T13:01:29Z</time>
      </trkpt>
      <trkpt lat="43.7705" lon="7.1444">
        <ele>823</ele>
        <time>2010-12-19T13:01:31Z</time>
      </trkpt>
      <trkpt lat="43.77042" lon="7.14446">
        <ele>823</ele>
        <time>2010-12-19T13:01:32Z</time>
      </trkpt>
      <trkpt lat="43.77034" lon="7.14452">
        <ele>821</ele>
        <time>2010-12-19T13:01:34Z</time>
      </trkpt>
      <trkpt lat="43.77023" lon="7.1446">
        <ele>820</ele>
        <time>2010-12-19T13:01:36Z</time>
      </trkpt>
      <trkpt lat="43.77013" lon="7.14466">
        <ele>818</ele>
        <time>2010-12-19T13:01:38Z</time>
      </trkpt>
      <trkpt lat="43.77004" lon="7.14472">
        <ele>817</ele>
        <time>2010-12-19T13:01:41Z</time>
      </trkpt>
      <trkpt lat="43.76998" lon="7.14474">
        <ele>817</ele>
        <time>2010-12-19T13:01:42Z</time>
      </trkpt>
      <trkpt lat="43.76987" lon="7.14478">
        <ele>816</ele>
        <time>2010-12-19T13:01:44Z</time>
      </trkpt>
      <trkpt lat="43.76975" lon="7.1448">
        <ele>816</ele>
        <time>2010-12-19T13:01:47Z</time>
      </trkpt>
      <trkpt lat="43.76965" lon="7.1448">
        <ele>815</ele>
        <time>2010-12-19T13:01:49Z</time>
      </trkpt>
      <trkpt lat="43.76951" lon="7.14475">
        <ele>803</ele>
        <time>2010-12-19T13:02:27Z</time>
      </trkpt>
      <trkpt lat="43.7694" lon="7.14476">
        <ele>803</ele>
        <time>2010-12-19T13:02:29Z</time>
      </trkpt>
      <trkpt lat="43.7693" lon="7.14479">
        <ele>802</ele>
        <time>2010-12-19T13:02:31Z</time>
      </trkpt>
      <trkpt lat="43.76916" lon="7.14483">
        <ele>800</ele>
        <time>2010-12-19T13:02:34Z</time>
      </trkpt>
      <trkpt lat="43.76906" lon="7.14486">
        <ele>799</ele>
        <time>2010-12-19T13:02:36Z</time>
      </trkpt>
      <trkpt lat="43.76893" lon="7.14488">
        <ele>797</ele>
        <time>2010-12-19T13:02:38Z</time>
      </trkpt>
      <trkpt lat="43.76887" lon="7.14489">
        <ele>797</ele>
        <time>2010-12-19T13:02:40Z</time>
      </trkpt>
      <trkpt lat="43.76876" lon="7.14488">
        <ele>796</ele>
        <time>2010-12-19T13:02:42Z</time>
      </trkpt>
      <trkpt lat="43.76865" lon="7.14488">
        <ele>796</ele>
        <time>2010-12-19T13:02:45Z</time>
      </trkpt>
      <trkpt lat="43.76856" lon="7.14486">
        <ele>795</ele>
        <time>2010-12-19T13:02:47Z</time>
      </trkpt>
      <trkpt lat="43.76853" lon="7.14485">
        <ele>794</ele>
        <time>2010-12-19T13:02:49Z</time>
      </trkpt>
      <trkpt lat="43.76842" lon="7.14487">
        <ele>791</ele>
        <time>2010-12-19T13:03:21Z</time>
      </trkpt>
      <trkpt lat="43.76832" lon="7.14484">
        <ele>790</ele>
        <time>2010-12-19T13:03:24Z</time>
      </trkpt>
      <trkpt lat="43.76821" lon="7.14482">
        <ele>789</ele>
        <time>2010-12-19T13:03:27Z</time>
      </trkpt>
      <trkpt lat="43.7681" lon="7.14482">
        <ele>788</ele>
        <time>2010-12-19T13:03:30Z</time>
      </trkpt>
      <trkpt lat="43.76801" lon="7.14481">
        <ele>787</ele>
        <time>2010-12-19T13:03:33Z</time>
      </trkpt>
      <trkpt lat="43.7679" lon="7.1448">
        <ele>786</ele>
        <time>2010-12-19T13:03:36Z</time>
      </trkpt>
      <trkpt lat="43.76779" lon="7.14476">
        <ele>786</ele>
        <time>2010-12-19T13:03:39Z</time>
      </trkpt>
      <trkpt lat="43.76769" lon="7.1447">
        <ele>784</ele>
        <time>2010-12-19T13:03:42Z</time>
      </trkpt>
      <trkpt lat="43.76759" lon="7.14467">
        <ele>783</ele>
        <time>2010-12-19T13:03:46Z</time>
      </trkpt>
      <trkpt lat="43.76778" lon="7.14478">
        <ele>759</ele>
        <time>2010-12-19T13:12:32Z</time>
      </trkpt>
      <trkpt lat="43.76778" lon="7.14478">
        <ele>759</ele>
        <time>2010-12-19T13:12:32Z</time>
      </trkpt>
      <trkpt lat="43.76778" lon="7.14478">
        <ele>759</ele>
        <time>2010-12-19T13:12:35Z</time>
      </trkpt>
      <trkpt lat="43.76778" lon="7.14478">
        <ele>759</ele>
        <time>2010-12-19T13:12:40Z</time>
      </trkpt>
      <trkpt lat="43.76778" lon="7.14478">
        <ele>759</ele>
        <time>2010-12-19T13:12:43Z</time>
      </trkpt>
      <trkpt lat="43.76767" lon="7.14463">
        <ele>768</ele>
        <time>2010-12-19T13:12:52Z</time>
      </trkpt>
      <trkpt lat="43.76767" lon="7.14463">
        <ele>768</ele>
        <time>2010-12-19T13:12:54Z</time>
      </trkpt>
      <trkpt lat="43.76771" lon="7.14462">
        <ele>762</ele>
        <time>2010-12-19T13:13:22Z</time>
      </trkpt>
      <trkpt lat="43.76779" lon="7.14468">
        <ele>766</ele>
        <time>2010-12-19T13:13:41Z</time>
      </trkpt>
      <trkpt lat="43.76789" lon="7.1447">
        <ele>766</ele>
        <time>2010-12-19T13:13:48Z</time>
      </trkpt>
      <trkpt lat="43.76799" lon="7.14474">
        <ele>767</ele>
        <time>2010-12-19T13:13:56Z</time>
      </trkpt>
      <trkpt lat="43.76808" lon="7.14476">
        <ele>768</ele>
        <time>2010-12-19T13:14:04Z</time>
      </trkpt>
      <trkpt lat="43.76811" lon="7.14477">
        <ele>768</ele>
        <time>2010-12-19T13:14:07Z</time>
      </trkpt>
      <trkpt lat="43.76821" lon="7.14477">
        <ele>770</ele>
        <time>2010-12-19T13:14:17Z</time>
      </trkpt>
      <trkpt lat="43.76829" lon="7.14479">
        <ele>772</ele>
        <time>2010-12-19T13:14:26Z</time>
      </trkpt>
      <trkpt lat="43.76838" lon="7.14481">
        <ele>773</ele>
        <time>2010-12-19T13:14:36Z</time>
      </trkpt>
      <trkpt lat="43.76848" lon="7.14481">
        <ele>775</ele>
        <time>2010-12-19T13:14:45Z</time>
      </trkpt>
      <trkpt lat="43.76849" lon="7.14481">
        <ele>775</ele>
        <time>2010-12-19T13:14:46Z</time>
      </trkpt>
      <trkpt lat="43.76858" lon="7.14482">
        <ele>777</ele>
        <time>2010-12-19T13:14:56Z</time>
      </trkpt>
      <trkpt lat="43.76867" lon="7.14485">
        <ele>778</ele>
        <time>2010-12-19T13:15:04Z</time>
      </trkpt>
      <trkpt lat="43.76872" lon="7.14485">
        <ele>779</ele>
        <time>2010-12-19T13:15:09Z</time>
      </trkpt>
      <trkpt lat="43.76881" lon="7.14486">
        <ele>781</ele>
        <time>2010-12-19T13:15:16Z</time>
      </trkpt>
      <trkpt lat="43.7689" lon="7.14485">
        <ele>781</ele>
        <time>2010-12-19T13:15:24Z</time>
      </trkpt>
      <trkpt lat="43.76893" lon="7.14485">
        <ele>782</ele>
        <time>2010-12-19T13:15:26Z</time>
      </trkpt>
      <trkpt lat="43.76902" lon="7.14484">
        <ele>782</ele>
        <time>2010-12-19T13:15:34Z</time>
      </trkpt>
      <trkpt lat="43.76911" lon="7.14481">
        <ele>784</ele>
        <time>2010-12-19T13:15:42Z</time>
      </trkpt>
      <trkpt lat="43.7692" lon="7.14479">
        <ele>784</ele>
        <time>2010-12-19T13:15:50Z</time>
      </trkpt>
      <trkpt lat="43.76929" lon="7.14478">
        <ele>785</ele>
        <time>2010-12-19T13:15:59Z</time>
      </trkpt>
      <trkpt lat="43.76934" lon="7.14478">
        <ele>786</ele>
        <time>2010-12-19T13:16:04Z</time>
      </trkpt>
      <trkpt lat="43.76943" lon="7.14476">
        <ele>788</ele>
        <time>2010-12-19T13:16:12Z</time>
      </trkpt>
      <trkpt lat="43.76944" lon="7.14476">
        <ele>788</ele>
        <time>2010-12-19T13:16:12Z</time>
      </trkpt>
      <trkpt lat="43.76953" lon="7.14472">
        <ele>790</ele>
        <time>2010-12-19T13:16:21Z</time>
      </trkpt>
      <trkpt lat="43.76954" lon="7.14471">
        <ele>790</ele>
        <time>2010-12-19T13:16:23Z</time>
      </trkpt>
      <trkpt lat="43.76964" lon="7.14475">
        <ele>798</ele>
        <time>2010-12-19T13:18:21Z</time>
      </trkpt>
      <trkpt lat="43.76968" lon="7.14487">
        <ele>796</ele>
        <time>2010-12-19T13:18:28Z</time>
      </trkpt>
      <trkpt lat="43.76965" lon="7.14495">
        <ele>795</ele>
        <time>2010-12-19T13:18:36Z</time>
      </trkpt>
      <trkpt lat="43.76957" lon="7.14503">
        <ele>796</ele>
        <time>2010-12-19T13:19:08Z</time>
      </trkpt>
      <trkpt lat="43.76947" lon="7.14508">
        <ele>796</ele>
        <time>2010-12-19T13:19:12Z</time>
      </trkpt>
      <trkpt lat="43.76938" lon="7.14515">
        <ele>796</ele>
        <time>2010-12-19T13:19:15Z</time>
      </trkpt>
      <trkpt lat="43.76936" lon="7.14518">
        <ele>796</ele>
        <time>2010-12-19T13:19:17Z</time>
      </trkpt>
      <trkpt lat="43.76927" lon="7.14525">
        <ele>797</ele>
        <time>2010-12-19T13:19:23Z</time>
      </trkpt>
      <trkpt lat="43.76918" lon="7.14527">
        <ele>798</ele>
        <time>2010-12-19T13:19:29Z</time>
      </trkpt>
      <trkpt lat="43.76909" lon="7.14525">
        <ele>798</ele>
        <time>2010-12-19T13:19:34Z</time>
      </trkpt>
      <trkpt lat="43.769" lon="7.14522">
        <ele>798</ele>
        <time>2010-12-19T13:19:38Z</time>
      </trkpt>
      <trkpt lat="43.76894" lon="7.14522">
        <ele>797</ele>
        <time>2010-12-19T13:19:41Z</time>
      </trkpt>
      <trkpt lat="43.76884" lon="7.14525">
        <ele>794</ele>
        <time>2010-12-19T13:20:19Z</time>
      </trkpt>
      <trkpt lat="43.76878" lon="7.14526">
        <ele>794</ele>
        <time>2010-12-19T13:20:23Z</time>
      </trkpt>
      <trkpt lat="43.76868" lon="7.14529">
        <ele>791</ele>
        <time>2010-12-19T13:20:28Z</time>
      </trkpt>
      <trkpt lat="43.76866" lon="7.14529">
        <ele>791</ele>
        <time>2010-12-19T13:20:32Z</time>
      </trkpt>
      <trkpt lat="43.76875" lon="7.14534">
        <ele>794</ele>
        <time>2010-12-19T13:22:09Z</time>
      </trkpt>
      <trkpt lat="43.76879" lon="7.14536">
        <ele>794</ele>
        <time>2010-12-19T13:22:19Z</time>
      </trkpt>
      <trkpt lat="43.76889" lon="7.14539">
        <ele>797</ele>
        <time>2010-12-19T13:22:37Z</time>
      </trkpt>
      <trkpt lat="43.76894" lon="7.14542">
        <ele>797</ele>
        <time>2010-12-19T13:22:47Z</time>
      </trkpt>
      <trkpt lat="43.76903" lon="7.14545">
        <ele>798</ele>
        <time>2010-12-19T13:23:01Z</time>
      </trkpt>
      <trkpt lat="43.76912" lon="7.14546">
        <ele>799</ele>
        <time>2010-12-19T13:23:17Z</time>
      </trkpt>
      <trkpt lat="43.76921" lon="7.14545">
        <ele>800</ele>
        <time>2010-12-19T13:23:24Z</time>
      </trkpt>
      <trkpt lat="43.76923" lon="7.14533">
        <ele>800</ele>
        <time>2010-12-19T13:23:46Z</time>
      </trkpt>
      <trkpt lat="43.76922" lon="7.14531">
        <ele>801</ele>
        <time>2010-12-19T13:23:50Z</time>
      </trkpt>
      <trkpt lat="43.76913" lon="7.14525">
        <ele>803</ele>
        <time>2010-12-19T13:24:04Z</time>
      </trkpt>
      <trkpt lat="43.76903" lon="7.14524">
        <ele>803</ele>
        <time>2010-12-19T13:24:07Z</time>
      </trkpt>
      <trkpt lat="43.76893" lon="7.14525">
        <ele>803</ele>
        <time>2010-12-19T13:24:11Z</time>
      </trkpt>
      <trkpt lat="43.76883" lon="7.14528">
        <ele>801</ele>
        <time>2010-12-19T13:24:16Z</time>
      </trkpt>
      <trkpt lat="43.76881" lon="7.14529">
        <ele>801</ele>
        <time>2010-12-19T13:24:16Z</time>
      </trkpt>
      <trkpt lat="43.76872" lon="7.14529">
        <ele>801</ele>
        <time>2010-12-19T13:24:20Z</time>
      </trkpt>
      <trkpt lat="43.76862" lon="7.14531">
        <ele>801</ele>
        <time>2010-12-19T13:24:24Z</time>
      </trkpt>
      <trkpt lat="43.7686" lon="7.14532">
        <ele>801</ele>
        <time>2010-12-19T13:24:25Z</time>
      </trkpt>
      <trkpt lat="43.76849" lon="7.14533">
        <ele>802</ele>
        <time>2010-12-19T13:24:32Z</time>
      </trkpt>
      <trkpt lat="43.7684" lon="7.14532">
        <ele>801</ele>
        <time>2010-12-19T13:24:47Z</time>
      </trkpt>
      <trkpt lat="43.76833" lon="7.14528">
        <ele>796</ele>
        <time>2010-12-19T13:25:21Z</time>
      </trkpt>
      <trkpt lat="43.76824" lon="7.14533">
        <ele>799</ele>
        <time>2010-12-19T13:25:51Z</time>
      </trkpt>
      <trkpt lat="43.76815" lon="7.14537">
        <ele>801</ele>
        <time>2010-12-19T13:26:01Z</time>
      </trkpt>
      <trkpt lat="43.76807" lon="7.14543">
        <ele>800</ele>
        <time>2010-12-19T13:26:10Z</time>
      </trkpt>
      <trkpt lat="43.76803" lon="7.1455">
        <ele>802</ele>
        <time>2010-12-19T13:26:16Z</time>
      </trkpt>
      <trkpt lat="43.76797" lon="7.14559">
        <ele>801</ele>
        <time>2010-12-19T13:26:29Z</time>
      </trkpt>
      <trkpt lat="43.7679" lon="7.14568">
        <ele>802</ele>
        <time>2010-12-19T13:26:44Z</time>
      </trkpt>
      <trkpt lat="43.76786" lon="7.14572">
        <ele>805</ele>
        <time>2010-12-19T13:27:06Z</time>
      </trkpt>
      <trkpt lat="43.76777" lon="7.14574">
        <ele>805</ele>
        <time>2010-12-19T13:27:15Z</time>
      </trkpt>
      <trkpt lat="43.76774" lon="7.14573">
        <ele>805</ele>
        <time>2010-12-19T13:27:20Z</time>
      </trkpt>
      <trkpt lat="43.76765" lon="7.14572">
        <ele>806</ele>
        <time>2010-12-19T13:27:40Z</time>
      </trkpt>
      <trkpt lat="43.76761" lon="7.14571">
        <ele>806</ele>
        <time>2010-12-19T13:27:43Z</time>
      </trkpt>
      <trkpt lat="43.76751" lon="7.14569">
        <ele>807</ele>
        <time>2010-12-19T13:27:49Z</time>
      </trkpt>
      <trkpt lat="43.76742" lon="7.14568">
        <ele>807</ele>
        <time>2010-12-19T13:28:00Z</time>
      </trkpt>
      <trkpt lat="43.76734" lon="7.14566">
        <ele>807</ele>
        <time>2010-12-19T13:28:07Z</time>
      </trkpt>
      <trkpt lat="43.76725" lon="7.14564">
        <ele>804</ele>
        <time>2010-12-19T13:28:30Z</time>
      </trkpt>
      <trkpt lat="43.76719" lon="7.14564">
        <ele>801</ele>
        <time>2010-12-19T13:30:11Z</time>
      </trkpt>
      <trkpt lat="43.76719" lon="7.14564">
        <ele>801</ele>
        <time>2010-12-19T13:30:11Z</time>
      </trkpt>
      <trkpt lat="43.76718" lon="7.14566">
        <ele>806</ele>
        <time>2010-12-19T13:30:20Z</time>
      </trkpt>
      <trkpt lat="43.76718" lon="7.14566">
        <ele>806</ele>
        <time>2010-12-19T13:30:21Z</time>
      </trkpt>
      <trkpt lat="43.76712" lon="7.14575">
        <ele>803</ele>
        <time>2010-12-19T13:31:08Z</time>
      </trkpt>
      <trkpt lat="43.7671" lon="7.14588">
        <ele>805</ele>
        <time>2010-12-19T13:31:17Z</time>
      </trkpt>
      <trkpt lat="43.7671" lon="7.14601">
        <ele>808</ele>
        <time>2010-12-19T13:31:31Z</time>
      </trkpt>
      <trkpt lat="43.76709" lon="7.14604">
        <ele>809</ele>
        <time>2010-12-19T13:31:36Z</time>
      </trkpt>
      <trkpt lat="43.76705" lon="7.14615">
        <ele>812</ele>
        <time>2010-12-19T13:31:55Z</time>
      </trkpt>
      <trkpt lat="43.76702" lon="7.14627">
        <ele>818</ele>
        <time>2010-12-19T13:32:18Z</time>
      </trkpt>
      <trkpt lat="43.76702" lon="7.1464">
        <ele>818</ele>
        <time>2010-12-19T13:32:40Z</time>
      </trkpt>
      <trkpt lat="43.76705" lon="7.1465">
        <ele>824</ele>
        <time>2010-12-19T13:33:10Z</time>
      </trkpt>
      <trkpt lat="43.76699" lon="7.1466">
        <ele>828</ele>
        <time>2010-12-19T13:33:26Z</time>
      </trkpt>
      <trkpt lat="43.76699" lon="7.1466">
        <ele>828</ele>
        <time>2010-12-19T13:33:27Z</time>
      </trkpt>
      <trkpt lat="43.76696" lon="7.14673">
        <ele>833</ele>
        <time>2010-12-19T13:33:53Z</time>
      </trkpt>
      <trkpt lat="43.767" lon="7.14685">
        <ele>837</ele>
        <time>2010-12-19T13:34:19Z</time>
      </trkpt>
      <trkpt lat="43.767" lon="7.14688">
        <ele>844</ele>
        <time>2010-12-19T13:34:44Z</time>
      </trkpt>
      <trkpt lat="43.76691" lon="7.14688">
        <ele>849</ele>
        <time>2010-12-19T13:35:50Z</time>
      </trkpt>
      <trkpt lat="43.76681" lon="7.14693">
        <ele>849</ele>
        <time>2010-12-19T13:35:55Z</time>
      </trkpt>
      <trkpt lat="43.76672" lon="7.14698">
        <ele>849</ele>
        <time>2010-12-19T13:36:00Z</time>
      </trkpt>
      <trkpt lat="43.76664" lon="7.14705">
        <ele>851</ele>
        <time>2010-12-19T13:36:10Z</time>
      </trkpt>
      <trkpt lat="43.76654" lon="7.1471">
        <ele>851</ele>
        <time>2010-12-19T13:36:16Z</time>
      </trkpt>
      <trkpt lat="43.76646" lon="7.14717">
        <ele>852</ele>
        <time>2010-12-19T13:36:20Z</time>
      </trkpt>
      <trkpt lat="43.76638" lon="7.14725">
        <ele>854</ele>
        <time>2010-12-19T13:36:25Z</time>
      </trkpt>
      <trkpt lat="43.76632" lon="7.14728">
        <ele>854</ele>
        <time>2010-12-19T13:36:27Z</time>
      </trkpt>
      <trkpt lat="43.76624" lon="7.14735">
        <ele>855</ele>
        <time>2010-12-19T13:36:31Z</time>
      </trkpt>
      <trkpt lat="43.76617" lon="7.14743">
        <ele>855</ele>
        <time>2010-12-19T13:36:38Z</time>
      </trkpt>
      <trkpt lat="43.7661" lon="7.14752">
        <ele>856</ele>
        <time>2010-12-19T13:36:51Z</time>
      </trkpt>
      <trkpt lat="43.76602" lon="7.14759">
        <ele>857</ele>
        <time>2010-12-19T13:36:56Z</time>
      </trkpt>
      <trkpt lat="43.76592" lon="7.14764">
        <ele>857</ele>
        <time>2010-12-19T13:37:00Z</time>
      </trkpt>
      <trkpt lat="43.76583" lon="7.14764">
        <ele>858</ele>
        <time>2010-12-19T13:37:02Z</time>
      </trkpt>
      <trkpt lat="43.76573" lon="7.14764">
        <ele>859</ele>
        <time>2010-12-19T13:37:05Z</time>
      </trkpt>
      <trkpt lat="43.7657" lon="7.14764">
        <ele>859</ele>
        <time>2010-12-19T13:37:08Z</time>
      </trkpt>
      <trkpt lat="43.7656" lon="7.14765">
        <ele>860</ele>
        <time>2010-12-19T13:37:12Z</time>
      </trkpt>
      <trkpt lat="43.76551" lon="7.14768">
        <ele>861</ele>
        <time>2010-12-19T13:37:20Z</time>
      </trkpt>
      <trkpt lat="43.76543" lon="7.14773">
        <ele>861</ele>
        <time>2010-12-19T13:37:31Z</time>
      </trkpt>
      <trkpt lat="43.76535" lon="7.14781">
        <ele>861</ele>
        <time>2010-12-19T13:37:36Z</time>
      </trkpt>
      <trkpt lat="43.76528" lon="7.14789">
        <ele>861</ele>
        <time>2010-12-19T13:37:40Z</time>
      </trkpt>
      <trkpt lat="43.7652" lon="7.14798">
        <ele>862</ele>
        <time>2010-12-19T13:37:45Z</time>
      </trkpt>
      <trkpt lat="43.76512" lon="7.14805">
        <ele>863</ele>
        <time>2010-12-19T13:37:50Z</time>
      </trkpt>
      <trkpt lat="43.76504" lon="7.14812">
        <ele>863</ele>
        <time>2010-12-19T13:37:55Z</time>
      </trkpt>
      <trkpt lat="43.76496" lon="7.1482">
        <ele>863</ele>
        <time>2010-12-19T13:37:59Z</time>
      </trkpt>
      <trkpt lat="43.76493" lon="7.14825">
        <ele>863</ele>
        <time>2010-12-19T13:38:01Z</time>
      </trkpt>
      <trkpt lat="43.76484" lon="7.14832">
        <ele>864</ele>
        <time>2010-12-19T13:38:06Z</time>
      </trkpt>
      <trkpt lat="43.76475" lon="7.14835">
        <ele>864</ele>
        <time>2010-12-19T13:38:10Z</time>
      </trkpt>
      <trkpt lat="43.76466" lon="7.14842">
        <ele>865</ele>
        <time>2010-12-19T13:38:14Z</time>
      </trkpt>
      <trkpt lat="43.76457" lon="7.14848">
        <ele>865</ele>
        <time>2010-12-19T13:38:20Z</time>
      </trkpt>
      <trkpt lat="43.76449" lon="7.14857">
        <ele>865</ele>
        <time>2010-12-19T13:38:25Z</time>
      </trkpt>
      <trkpt lat="43.76442" lon="7.14864">
        <ele>866</ele>
        <time>2010-12-19T13:38:28Z</time>
      </trkpt>
      <trkpt lat="43.76435" lon="7.14872">
        <ele>867</ele>
        <time>2010-12-19T13:38:32Z</time>
      </trkpt>
      <trkpt lat="43.76425" lon="7.14878">
        <ele>867</ele>
        <time>2010-12-19T13:38:36Z</time>
      </trkpt>
      <trkpt lat="43.76415" lon="7.14885">
        <ele>867</ele>
        <time>2010-12-19T13:38:39Z</time>
      </trkpt>
      <trkpt lat="43.76407" lon="7.1489">
        <ele>868</ele>
        <time>2010-12-19T13:38:43Z</time>
      </trkpt>
      <trkpt lat="43.76398" lon="7.14894">
        <ele>868</ele>
        <time>2010-12-19T13:38:48Z</time>
      </trkpt>
      <trkpt lat="43.764" lon="7.14899">
        <ele>877</ele>
        <time>2010-12-19T13:39:55Z</time>
      </trkpt>
      <trkpt lat="43.764" lon="7.14899">
        <ele>877</ele>
        <time>2010-12-19T13:39:55Z</time>
      </trkpt>
      <trkpt lat="43.764" lon="7.14899">
        <ele>877</ele>
        <time>2010-12-19T13:39:55Z</time>
      </trkpt>
      <trkpt lat="43.76397" lon="7.14914">
        <ele>872</ele>
        <time>2010-12-19T13:40:23Z</time>
      </trkpt>
      <trkpt lat="43.76395" lon="7.14928">
        <ele>872</ele>
        <time>2010-12-19T13:40:28Z</time>
      </trkpt>
      <trkpt lat="43.7639" lon="7.1494">
        <ele>871</ele>
        <time>2010-12-19T13:40:33Z</time>
      </trkpt>
      <trkpt lat="43.76385" lon="7.14954">
        <ele>872</ele>
        <time>2010-12-19T13:40:36Z</time>
      </trkpt>
      <trkpt lat="43.76381" lon="7.14968">
        <ele>872</ele>
        <time>2010-12-19T13:40:38Z</time>
      </trkpt>
      <trkpt lat="43.76377" lon="7.14984">
        <ele>872</ele>
        <time>2010-12-19T13:40:40Z</time>
      </trkpt>
      <trkpt lat="43.76371" lon="7.15">
        <ele>871</ele>
        <time>2010-12-19T13:40:43Z</time>
      </trkpt>
      <trkpt lat="43.76365" lon="7.15015">
        <ele>872</ele>
        <time>2010-12-19T13:40:45Z</time>
      </trkpt>
      <trkpt lat="43.76358" lon="7.15027">
        <ele>872</ele>
        <time>2010-12-19T13:40:47Z</time>
      </trkpt>
      <trkpt lat="43.76351" lon="7.15035">
        <ele>870</ele>
        <time>2010-12-19T13:40:49Z</time>
      </trkpt>
      <trkpt lat="43.76349" lon="7.1504">
        <ele>870</ele>
        <time>2010-12-19T13:40:50Z</time>
      </trkpt>
      <trkpt lat="43.76343" lon="7.1505">
        <ele>870</ele>
        <time>2010-12-19T13:40:52Z</time>
      </trkpt>
      <trkpt lat="43.76338" lon="7.15061">
        <ele>870</ele>
        <time>2010-12-19T13:40:53Z</time>
      </trkpt>
      <trkpt lat="43.76332" lon="7.15072">
        <ele>869</ele>
        <time>2010-12-19T13:40:55Z</time>
      </trkpt>
      <trkpt lat="43.76327" lon="7.15084">
        <ele>869</ele>
        <time>2010-12-19T13:40:56Z</time>
      </trkpt>
      <trkpt lat="43.76323" lon="7.15095">
        <ele>869</ele>
        <time>2010-12-19T13:40:58Z</time>
      </trkpt>
      <trkpt lat="43.76315" lon="7.15111">
        <ele>869</ele>
        <time>2010-12-19T13:41:00Z</time>
      </trkpt>
      <trkpt lat="43.76306" lon="7.15123">
        <ele>868</ele>
        <time>2010-12-19T13:41:02Z</time>
      </trkpt>
      <trkpt lat="43.76296" lon="7.15135">
        <ele>866</ele>
        <time>2010-12-19T13:41:04Z</time>
      </trkpt>
      <trkpt lat="43.76286" lon="7.15146">
        <ele>864</ele>
        <time>2010-12-19T13:41:06Z</time>
      </trkpt>
      <trkpt lat="43.76278" lon="7.15157">
        <ele>861</ele>
        <time>2010-12-19T13:41:08Z</time>
      </trkpt>
      <trkpt lat="43.76281" lon="7.15169">
        <ele>858</ele>
        <time>2010-12-19T13:41:11Z</time>
      </trkpt>
      <trkpt lat="43.76284" lon="7.15181">
        <ele>852</ele>
        <time>2010-12-19T13:41:15Z</time>
      </trkpt>
      <trkpt lat="43.76284" lon="7.15194">
        <ele>846</ele>
        <time>2010-12-19T13:41:19Z</time>
      </trkpt>
      <trkpt lat="43.76282" lon="7.15206">
        <ele>843</ele>
        <time>2010-12-19T13:41:22Z</time>
      </trkpt>
      <trkpt lat="43.76275" lon="7.15219">
        <ele>838</ele>
        <time>2010-12-19T13:41:29Z</time>
      </trkpt>
      <trkpt lat="43.76269" lon="7.15232">
        <ele>836</ele>
        <time>2010-12-19T13:41:31Z</time>
      </trkpt>
      <trkpt lat="43.76263" lon="7.15245">
        <ele>834</ele>
        <time>2010-12-19T13:41:34Z</time>
      </trkpt>
      <trkpt lat="43.76258" lon="7.15257">
        <ele>832</ele>
        <time>2010-12-19T13:41:36Z</time>
      </trkpt>
      <trkpt lat="43.7625" lon="7.15269">
        <ele>828</ele>
        <time>2010-12-19T13:41:39Z</time>
      </trkpt>
      <trkpt lat="43.76241" lon="7.15279">
        <ele>825</ele>
        <time>2010-12-19T13:41:42Z</time>
      </trkpt>
      <trkpt lat="43.76234" lon="7.15288">
        <ele>822</ele>
        <time>2010-12-19T13:41:44Z</time>
      </trkpt>
      <trkpt lat="43.76227" lon="7.15299">
        <ele>820</ele>
        <time>2010-12-19T13:41:48Z</time>
      </trkpt>
      <trkpt lat="43.76221" lon="7.15309">
        <ele>817</ele>
        <time>2010-12-19T13:41:51Z</time>
      </trkpt>
      <trkpt lat="43.76215" lon="7.1532">
        <ele>816</ele>
        <time>2010-12-19T13:41:54Z</time>
      </trkpt>
      <trkpt lat="43.76214" lon="7.15333">
        <ele>814</ele>
        <time>2010-12-19T13:41:56Z</time>
      </trkpt>
      <trkpt lat="43.76207" lon="7.15342">
        <ele>811</ele>
        <time>2010-12-19T13:41:59Z</time>
      </trkpt>
      <trkpt lat="43.76196" lon="7.15343">
        <ele>801</ele>
        <time>2010-12-19T13:42:18Z</time>
      </trkpt>
      <trkpt lat="43.76186" lon="7.15344">
        <ele>800</ele>
        <time>2010-12-19T13:42:21Z</time>
      </trkpt>
      <trkpt lat="43.76175" lon="7.15337">
        <ele>799</ele>
        <time>2010-12-19T13:42:24Z</time>
      </trkpt>
      <trkpt lat="43.76166" lon="7.15333">
        <ele>798</ele>
        <time>2010-12-19T13:42:27Z</time>
      </trkpt>
      <trkpt lat="43.76155" lon="7.15334">
        <ele>795</ele>
        <time>2010-12-19T13:42:31Z</time>
      </trkpt>
      <trkpt lat="43.76145" lon="7.15335">
        <ele>793</ele>
        <time>2010-12-19T13:42:36Z</time>
      </trkpt>
      <trkpt lat="43.76136" lon="7.15338">
        <ele>792</ele>
        <time>2010-12-19T13:42:39Z</time>
      </trkpt>
      <trkpt lat="43.76126" lon="7.15342">
        <ele>789</ele>
        <time>2010-12-19T13:42:43Z</time>
      </trkpt>
      <trkpt lat="43.76117" lon="7.15348">
        <ele>787</ele>
        <time>2010-12-19T13:42:47Z</time>
      </trkpt>
      <trkpt lat="43.76115" lon="7.15349">
        <ele>787</ele>
        <time>2010-12-19T13:42:48Z</time>
      </trkpt>
      <trkpt lat="43.76106" lon="7.1535">
        <ele>785</ele>
        <time>2010-12-19T13:42:51Z</time>
      </trkpt>
      <trkpt lat="43.76095" lon="7.15353">
        <ele>785</ele>
        <time>2010-12-19T13:42:53Z</time>
      </trkpt>
      <trkpt lat="43.76084" lon="7.15357">
        <ele>784</ele>
        <time>2010-12-19T13:42:55Z</time>
      </trkpt>
      <trkpt lat="43.76073" lon="7.15362">
        <ele>783</ele>
        <time>2010-12-19T13:42:58Z</time>
      </trkpt>
      <trkpt lat="43.76062" lon="7.15368">
        <ele>781</ele>
        <time>2010-12-19T13:43:00Z</time>
      </trkpt>
      <trkpt lat="43.76052" lon="7.15371">
        <ele>779</ele>
        <time>2010-12-19T13:43:03Z</time>
      </trkpt>
      <trkpt lat="43.76043" lon="7.15373">
        <ele>778</ele>
        <time>2010-12-19T13:43:05Z</time>
      </trkpt>
      <trkpt lat="43.7604" lon="7.15374">
        <ele>778</ele>
        <time>2010-12-19T13:43:06Z</time>
      </trkpt>
      <trkpt lat="43.7603" lon="7.15378">
        <ele>776</ele>
        <time>2010-12-19T13:43:09Z</time>
      </trkpt>
      <trkpt lat="43.76021" lon="7.15384">
        <ele>775</ele>
        <time>2010-12-19T13:43:12Z</time>
      </trkpt>
      <trkpt lat="43.76015" lon="7.15389">
        <ele>773</ele>
        <time>2010-12-19T13:43:14Z</time>
      </trkpt>
      <trkpt lat="43.76006" lon="7.15395">
        <ele>772</ele>
        <time>2010-12-19T13:43:17Z</time>
      </trkpt>
      <trkpt lat="43.75997" lon="7.15401">
        <ele>769</ele>
        <time>2010-12-19T13:43:20Z</time>
      </trkpt>
      <trkpt lat="43.75988" lon="7.15407">
        <ele>767</ele>
        <time>2010-12-19T13:43:24Z</time>
      </trkpt>
      <trkpt lat="43.75979" lon="7.15412">
        <ele>766</ele>
        <time>2010-12-19T13:43:27Z</time>
      </trkpt>
      <trkpt lat="43.7597" lon="7.15418">
        <ele>764</ele>
        <time>2010-12-19T13:43:30Z</time>
      </trkpt>
      <trkpt lat="43.75961" lon="7.15424">
        <ele>762</ele>
        <time>2010-12-19T13:43:32Z</time>
      </trkpt>
      <trkpt lat="43.75952" lon="7.15432">
        <ele>760</ele>
        <time>2010-12-19T13:43:34Z</time>
      </trkpt>
      <trkpt lat="43.75945" lon="7.15441">
        <ele>758</ele>
        <time>2010-12-19T13:43:36Z</time>
      </trkpt>
      <trkpt lat="43.75937" lon="7.1545">
        <ele>758</ele>
        <time>2010-12-19T13:43:39Z</time>
      </trkpt>
      <trkpt lat="43.7593" lon="7.15459">
        <ele>757</ele>
        <time>2010-12-19T13:43:41Z</time>
      </trkpt>
      <trkpt lat="43.75923" lon="7.15468">
        <ele>756</ele>
        <time>2010-12-19T13:43:43Z</time>
      </trkpt>
      <trkpt lat="43.75915" lon="7.15478">
        <ele>754</ele>
        <time>2010-12-19T13:43:46Z</time>
      </trkpt>
      <trkpt lat="43.75907" lon="7.15486">
        <ele>751</ele>
        <time>2010-12-19T13:43:49Z</time>
      </trkpt>
      <trkpt lat="43.75906" lon="7.15487">
        <ele>751</ele>
        <time>2010-12-19T13:43:52Z</time>
      </trkpt>
      <trkpt lat="43.75899" lon="7.15496">
        <ele>724</ele>
        <time>2010-12-19T13:44:46Z</time>
      </trkpt>
      <trkpt lat="43.75897" lon="7.15499">
        <ele>724</ele>
        <time>2010-12-19T13:44:48Z</time>
      </trkpt>
      <trkpt lat="43.75891" lon="7.15509">
        <ele>724</ele>
        <time>2010-12-19T13:44:58Z</time>
      </trkpt>
      <trkpt lat="43.75887" lon="7.15524">
        <ele>722</ele>
        <time>2010-12-19T13:45:01Z</time>
      </trkpt>
      <trkpt lat="43.75884" lon="7.15537">
        <ele>722</ele>
        <time>2010-12-19T13:45:04Z</time>
      </trkpt>
      <trkpt lat="43.75879" lon="7.15555">
        <ele>722</ele>
        <time>2010-12-19T13:45:06Z</time>
      </trkpt>
      <trkpt lat="43.75875" lon="7.15567">
        <ele>722</ele>
        <time>2010-12-19T13:45:07Z</time>
      </trkpt>
      <trkpt lat="43.75872" lon="7.15583">
        <ele>723</ele>
        <time>2010-12-19T13:45:09Z</time>
      </trkpt>
      <trkpt lat="43.75868" lon="7.15599">
        <ele>722</ele>
        <time>2010-12-19T13:45:12Z</time>
      </trkpt>
      <trkpt lat="43.75865" lon="7.15614">
        <ele>722</ele>
        <time>2010-12-19T13:45:14Z</time>
      </trkpt>
      <trkpt lat="43.75863" lon="7.1563">
        <ele>721</ele>
        <time>2010-12-19T13:45:16Z</time>
      </trkpt>
      <trkpt lat="43.75862" lon="7.15646">
        <ele>721</ele>
        <time>2010-12-19T13:45:19Z</time>
      </trkpt>
      <trkpt lat="43.7586" lon="7.15658">
        <ele>721</ele>
        <time>2010-12-19T13:45:21Z</time>
      </trkpt>
      <trkpt lat="43.75859" lon="7.15673">
        <ele>720</ele>
        <time>2010-12-19T13:45:23Z</time>
      </trkpt>
      <trkpt lat="43.75859" lon="7.15691">
        <ele>720</ele>
        <time>2010-12-19T13:45:25Z</time>
      </trkpt>
      <trkpt lat="43.75859" lon="7.15704">
        <ele>719</ele>
        <time>2010-12-19T13:45:28Z</time>
      </trkpt>
      <trkpt lat="43.75858" lon="7.15716">
        <ele>717</ele>
        <time>2010-12-19T13:45:31Z</time>
      </trkpt>
      <trkpt lat="43.75857" lon="7.15729">
        <ele>716</ele>
        <time>2010-12-19T13:45:35Z</time>
      </trkpt>
      <trkpt lat="43.75856" lon="7.15743">
        <ele>715</ele>
        <time>2010-12-19T13:45:38Z</time>
      </trkpt>
      <trkpt lat="43.75857" lon="7.15757">
        <ele>713</ele>
        <time>2010-12-19T13:45:41Z</time>
      </trkpt>
      <trkpt lat="43.7586" lon="7.15772">
        <ele>713</ele>
        <time>2010-12-19T13:45:44Z</time>
      </trkpt>
      <trkpt lat="43.75865" lon="7.15787">
        <ele>712</ele>
        <time>2010-12-19T13:45:47Z</time>
      </trkpt>
      <trkpt lat="43.75869" lon="7.15802">
        <ele>711</ele>
        <time>2010-12-19T13:45:50Z</time>
      </trkpt>
      <trkpt lat="43.75873" lon="7.15813">
        <ele>711</ele>
        <time>2010-12-19T13:45:52Z</time>
      </trkpt>
      <trkpt lat="43.75879" lon="7.15825">
        <ele>709</ele>
        <time>2010-12-19T13:45:54Z</time>
      </trkpt>
      <trkpt lat="43.75887" lon="7.15836">
        <ele>708</ele>
        <time>2010-12-19T13:45:57Z</time>
      </trkpt>
      <trkpt lat="43.7589" lon="7.15838">
        <ele>708</ele>
        <time>2010-12-19T13:45:57Z</time>
      </trkpt>
      <trkpt lat="43.75898" lon="7.15843">
        <ele>707</ele>
        <time>2010-12-19T13:46:00Z</time>
      </trkpt>
      <trkpt lat="43.75907" lon="7.15849">
        <ele>707</ele>
        <time>2010-12-19T13:46:03Z</time>
      </trkpt>
      <trkpt lat="43.75916" lon="7.1586">
        <ele>706</ele>
        <time>2010-12-19T13:46:05Z</time>
      </trkpt>
      <trkpt lat="43.75923" lon="7.15869">
        <ele>706</ele>
        <time>2010-12-19T13:46:07Z</time>
      </trkpt>
      <trkpt lat="43.75916" lon="7.15879">
        <ele>705</ele>
        <time>2010-12-19T13:46:16Z</time>
      </trkpt>
      <trkpt lat="43.75905" lon="7.15878">
        <ele>702</ele>
        <time>2010-12-19T13:46:19Z</time>
      </trkpt>
      <trkpt lat="43.75901" lon="7.15879">
        <ele>701</ele>
        <time>2010-12-19T13:46:21Z</time>
      </trkpt>
      <trkpt lat="43.75908" lon="7.1589">
        <ele>696</ele>
        <time>2010-12-19T13:46:27Z</time>
      </trkpt>
      <trkpt lat="43.75917" lon="7.15898">
        <ele>693</ele>
        <time>2010-12-19T13:46:30Z</time>
      </trkpt>
      <trkpt lat="43.75925" lon="7.15904">
        <ele>691</ele>
        <time>2010-12-19T13:46:33Z</time>
      </trkpt>
      <trkpt lat="43.75935" lon="7.15912">
        <ele>684</ele>
        <time>2010-12-19T13:46:45Z</time>
      </trkpt>
      <trkpt lat="43.75939" lon="7.15915">
        <ele>684</ele>
        <time>2010-12-19T13:46:46Z</time>
      </trkpt>
      <trkpt lat="43.75948" lon="7.15924">
        <ele>683</ele>
        <time>2010-12-19T13:46:49Z</time>
      </trkpt>
      <trkpt lat="43.75957" lon="7.15932">
        <ele>682</ele>
        <time>2010-12-19T13:46:52Z</time>
      </trkpt>
      <trkpt lat="43.75962" lon="7.15943">
        <ele>681</ele>
        <time>2010-12-19T13:46:56Z</time>
      </trkpt>
      <trkpt lat="43.7595" lon="7.15947">
        <ele>680</ele>
        <time>2010-12-19T13:46:59Z</time>
      </trkpt>
      <trkpt lat="43.75938" lon="7.15948">
        <ele>679</ele>
        <time>2010-12-19T13:47:01Z</time>
      </trkpt>
      <trkpt lat="43.75927" lon="7.15949">
        <ele>680</ele>
        <time>2010-12-19T13:47:04Z</time>
      </trkpt>
      <trkpt lat="43.75917" lon="7.1595">
        <ele>679</ele>
        <time>2010-12-19T13:47:06Z</time>
      </trkpt>
      <trkpt lat="43.75915" lon="7.1595">
        <ele>678</ele>
        <time>2010-12-19T13:47:11Z</time>
      </trkpt>
      <trkpt lat="43.75923" lon="7.15962">
        <ele>674</ele>
        <time>2010-12-19T13:47:14Z</time>
      </trkpt>
      <trkpt lat="43.75931" lon="7.15973">
        <ele>673</ele>
        <time>2010-12-19T13:47:17Z</time>
      </trkpt>
      <trkpt lat="43.75939" lon="7.15985">
        <ele>672</ele>
        <time>2010-12-19T13:47:19Z</time>
      </trkpt>
      <trkpt lat="43.75947" lon="7.15995">
        <ele>670</ele>
        <time>2010-12-19T13:47:21Z</time>
      </trkpt>
      <trkpt lat="43.75951" lon="7.16">
        <ele>670</ele>
        <time>2010-12-19T13:47:22Z</time>
      </trkpt>
      <trkpt lat="43.75957" lon="7.16011">
        <ele>669</ele>
        <time>2010-12-19T13:47:25Z</time>
      </trkpt>
      <trkpt lat="43.75964" lon="7.16021">
        <ele>668</ele>
        <time>2010-12-19T13:47:29Z</time>
      </trkpt>
      <trkpt lat="43.75973" lon="7.1603">
        <ele>666</ele>
        <time>2010-12-19T13:47:33Z</time>
      </trkpt>
      <trkpt lat="43.75982" lon="7.16037">
        <ele>663</ele>
        <time>2010-12-19T13:47:37Z</time>
      </trkpt>
      <trkpt lat="43.7599" lon="7.16043">
        <ele>661</ele>
        <time>2010-12-19T13:47:40Z</time>
      </trkpt>
      <trkpt lat="43.75994" lon="7.16049">
        <ele>659</ele>
        <time>2010-12-19T13:47:42Z</time>
      </trkpt>
      <trkpt lat="43.75984" lon="7.16055">
        <ele>655</ele>
        <time>2010-12-19T13:47:46Z</time>
      </trkpt>
      <trkpt lat="43.75975" lon="7.16055">
        <ele>652</ele>
        <time>2010-12-19T13:47:50Z</time>
      </trkpt>
      <trkpt lat="43.75966" lon="7.16052">
        <ele>651</ele>
        <time>2010-12-19T13:47:53Z</time>
      </trkpt>
      <trkpt lat="43.75955" lon="7.16051">
        <ele>649</ele>
        <time>2010-12-19T13:47:55Z</time>
      </trkpt>
      <trkpt lat="43.75943" lon="7.16049">
        <ele>648</ele>
        <time>2010-12-19T13:47:57Z</time>
      </trkpt>
      <trkpt lat="43.75934" lon="7.16046">
        <ele>645</ele>
        <time>2010-12-19T13:48:01Z</time>
      </trkpt>
      <trkpt lat="43.75942" lon="7.16054">
        <ele>642</ele>
        <time>2010-12-19T13:48:05Z</time>
      </trkpt>
      <trkpt lat="43.7595" lon="7.16062">
        <ele>640</ele>
        <time>2010-12-19T13:48:08Z</time>
      </trkpt>
      <trkpt lat="43.75956" lon="7.16068">
        <ele>639</ele>
        <time>2010-12-19T13:48:09Z</time>
      </trkpt>
      <trkpt lat="43.75963" lon="7.16077">
        <ele>637</ele>
        <time>2010-12-19T13:48:12Z</time>
      </trkpt>
      <trkpt lat="43.75971" lon="7.16086">
        <ele>636</ele>
        <time>2010-12-19T13:48:15Z</time>
      </trkpt>
      <trkpt lat="43.75962" lon="7.16092">
        <ele>634</ele>
        <time>2010-12-19T13:48:20Z</time>
      </trkpt>
      <trkpt lat="43.75952" lon="7.16093">
        <ele>631</ele>
        <time>2010-12-19T13:48:23Z</time>
      </trkpt>
      <trkpt lat="43.75943" lon="7.16094">
        <ele>629</ele>
        <time>2010-12-19T13:48:26Z</time>
      </trkpt>
      <trkpt lat="43.75933" lon="7.16094">
        <ele>627</ele>
        <time>2010-12-19T13:48:29Z</time>
      </trkpt>
      <trkpt lat="43.75927" lon="7.16097">
        <ele>623</ele>
        <time>2010-12-19T13:48:33Z</time>
      </trkpt>
      <trkpt lat="43.75934" lon="7.16108">
        <ele>620</ele>
        <time>2010-12-19T13:48:38Z</time>
      </trkpt>
      <trkpt lat="43.75941" lon="7.16118">
        <ele>617</ele>
        <time>2010-12-19T13:48:43Z</time>
      </trkpt>
      <trkpt lat="43.75948" lon="7.16129">
        <ele>614</ele>
        <time>2010-12-19T13:48:47Z</time>
      </trkpt>
      <trkpt lat="43.75955" lon="7.16137">
        <ele>611</ele>
        <time>2010-12-19T13:48:50Z</time>
      </trkpt>
      <trkpt lat="43.75946" lon="7.16143">
        <ele>609</ele>
        <time>2010-12-19T13:48:54Z</time>
      </trkpt>
      <trkpt lat="43.75936" lon="7.16144">
        <ele>608</ele>
        <time>2010-12-19T13:48:57Z</time>
      </trkpt>
      <trkpt lat="43.75933" lon="7.16143">
        <ele>608</ele>
        <time>2010-12-19T13:48:58Z</time>
      </trkpt>
      <trkpt lat="43.75924" lon="7.16139">
        <ele>601</ele>
        <time>2010-12-19T13:49:57Z</time>
      </trkpt>
      <trkpt lat="43.75926" lon="7.16152">
        <ele>600</ele>
        <time>2010-12-19T13:50:03Z</time>
      </trkpt>
      <trkpt lat="43.75935" lon="7.16163">
        <ele>600</ele>
        <time>2010-12-19T13:50:06Z</time>
      </trkpt>
      <trkpt lat="43.75944" lon="7.16172">
        <ele>600</ele>
        <time>2010-12-19T13:50:09Z</time>
      </trkpt>
      <trkpt lat="43.75951" lon="7.16181">
        <ele>599</ele>
        <time>2010-12-19T13:50:12Z</time>
      </trkpt>
      <trkpt lat="43.7595" lon="7.16195">
        <ele>596</ele>
        <time>2010-12-19T13:50:21Z</time>
      </trkpt>
      <trkpt lat="43.75954" lon="7.16201">
        <ele>595</ele>
        <time>2010-12-19T13:50:23Z</time>
      </trkpt>
      <trkpt lat="43.75963" lon="7.16212">
        <ele>593</ele>
        <time>2010-12-19T13:50:26Z</time>
      </trkpt>
      <trkpt lat="43.75972" lon="7.16222">
        <ele>591</ele>
        <time>2010-12-19T13:50:29Z</time>
      </trkpt>
      <trkpt lat="43.75979" lon="7.1623">
        <ele>590</ele>
        <time>2010-12-19T13:50:32Z</time>
      </trkpt>
      <trkpt lat="43.75989" lon="7.1624">
        <ele>588</ele>
        <time>2010-12-19T13:50:35Z</time>
      </trkpt>
      <trkpt lat="43.75996" lon="7.16248">
        <ele>587</ele>
        <time>2010-12-19T13:50:37Z</time>
      </trkpt>
      <trkpt lat="43.76005" lon="7.16257">
        <ele>585</ele>
        <time>2010-12-19T13:50:39Z</time>
      </trkpt>
      <trkpt lat="43.76012" lon="7.16266">
        <ele>584</ele>
        <time>2010-12-19T13:50:41Z</time>
      </trkpt>
      <trkpt lat="43.76018" lon="7.16277">
        <ele>581</ele>
        <time>2010-12-19T13:50:46Z</time>
      </trkpt>
      <trkpt lat="43.76004" lon="7.16271">
        <ele>574</ele>
        <time>2010-12-19T13:51:12Z</time>
      </trkpt>
      <trkpt lat="43.75993" lon="7.16268">
        <ele>573</ele>
        <time>2010-12-19T13:51:15Z</time>
      </trkpt>
      <trkpt lat="43.75983" lon="7.16266">
        <ele>572</ele>
        <time>2010-12-19T13:51:18Z</time>
      </trkpt>
      <trkpt lat="43.75977" lon="7.16265">
        <ele>572</ele>
        <time>2010-12-19T13:51:20Z</time>
      </trkpt>
      <trkpt lat="43.75968" lon="7.16264">
        <ele>570</ele>
        <time>2010-12-19T13:51:22Z</time>
      </trkpt>
      <trkpt lat="43.75968" lon="7.16277">
        <ele>567</ele>
        <time>2010-12-19T13:51:27Z</time>
      </trkpt>
      <trkpt lat="43.75973" lon="7.16289">
        <ele>565</ele>
        <time>2010-12-19T13:51:31Z</time>
      </trkpt>
      <trkpt lat="43.75968" lon="7.16306">
        <ele>562</ele>
        <time>2010-12-19T13:51:47Z</time>
      </trkpt>
      <trkpt lat="43.75959" lon="7.16307">
        <ele>562</ele>
        <time>2010-12-19T13:51:50Z</time>
      </trkpt>
      <trkpt lat="43.75948" lon="7.16308">
        <ele>562</ele>
        <time>2010-12-19T13:51:53Z</time>
      </trkpt>
      <trkpt lat="43.75939" lon="7.16311">
        <ele>559</ele>
        <time>2010-12-19T13:51:57Z</time>
      </trkpt>
      <trkpt lat="43.75939" lon="7.16319">
        <ele>557</ele>
        <time>2010-12-19T13:52:00Z</time>
      </trkpt>
      <trkpt lat="43.75943" lon="7.16331">
        <ele>555</ele>
        <time>2010-12-19T13:52:04Z</time>
      </trkpt>
      <trkpt lat="43.75936" lon="7.16339">
        <ele>551</ele>
        <time>2010-12-19T13:52:10Z</time>
      </trkpt>
      <trkpt lat="43.75936" lon="7.16339">
        <ele>551</ele>
        <time>2010-12-19T13:52:14Z</time>
      </trkpt>
      <trkpt lat="43.75926" lon="7.1634">
        <ele>546</ele>
        <time>2010-12-19T13:52:28Z</time>
      </trkpt>
      <trkpt lat="43.75926" lon="7.1634">
        <ele>546</ele>
        <time>2010-12-19T13:52:29Z</time>
      </trkpt>
      <trkpt lat="43.75921" lon="7.16351">
        <ele>537</ele>
        <time>2010-12-19T13:52:56Z</time>
      </trkpt>
      <trkpt lat="43.75914" lon="7.1636">
        <ele>534</ele>
        <time>2010-12-19T13:53:01Z</time>
      </trkpt>
      <trkpt lat="43.75908" lon="7.1637">
        <ele>533</ele>
        <time>2010-12-19T13:53:05Z</time>
      </trkpt>
      <trkpt lat="43.7591" lon="7.16382">
        <ele>532</ele>
        <time>2010-12-19T13:53:08Z</time>
      </trkpt>
      <trkpt lat="43.75911" lon="7.16389">
        <ele>531</ele>
        <time>2010-12-19T13:53:09Z</time>
      </trkpt>
      <trkpt lat="43.75912" lon="7.16403">
        <ele>528</ele>
        <time>2010-12-19T13:53:13Z</time>
      </trkpt>
      <trkpt lat="43.75907" lon="7.16413">
        <ele>525</ele>
        <time>2010-12-19T13:53:17Z</time>
      </trkpt>
      <trkpt lat="43.75903" lon="7.16427">
        <ele>521</ele>
        <time>2010-12-19T13:53:22Z</time>
      </trkpt>
      <trkpt lat="43.75898" lon="7.16441">
        <ele>520</ele>
        <time>2010-12-19T13:53:26Z</time>
      </trkpt>
      <trkpt lat="43.75892" lon="7.16453">
        <ele>517</ele>
        <time>2010-12-19T13:53:30Z</time>
      </trkpt>
      <trkpt lat="43.75883" lon="7.16458">
        <ele>515</ele>
        <time>2010-12-19T13:53:34Z</time>
      </trkpt>
      <trkpt lat="43.7588" lon="7.16461">
        <ele>513</ele>
        <time>2010-12-19T13:53:37Z</time>
      </trkpt>
      <trkpt lat="43.75877" lon="7.16475">
        <ele>502</ele>
        <time>2010-12-19T13:54:03Z</time>
      </trkpt>
      <trkpt lat="43.75875" lon="7.16491">
        <ele>502</ele>
        <time>2010-12-19T13:54:06Z</time>
      </trkpt>
      <trkpt lat="43.75874" lon="7.16503">
        <ele>501</ele>
        <time>2010-12-19T13:54:07Z</time>
      </trkpt>
      <trkpt lat="43.75872" lon="7.16517">
        <ele>500</ele>
        <time>2010-12-19T13:54:09Z</time>
      </trkpt>
      <trkpt lat="43.75871" lon="7.16529">
        <ele>500</ele>
        <time>2010-12-19T13:54:10Z</time>
      </trkpt>
      <trkpt lat="43.7587" lon="7.16546">
        <ele>499</ele>
        <time>2010-12-19T13:54:12Z</time>
      </trkpt>
      <trkpt lat="43.75869" lon="7.16565">
        <ele>498</ele>
        <time>2010-12-19T13:54:15Z</time>
      </trkpt>
      <trkpt lat="43.75869" lon="7.16583">
        <ele>496</ele>
        <time>2010-12-19T13:54:17Z</time>
      </trkpt>
      <trkpt lat="43.75866" lon="7.16601">
        <ele>495</ele>
        <time>2010-12-19T13:54:19Z</time>
      </trkpt>
      <trkpt lat="43.75863" lon="7.16617">
        <ele>493</ele>
        <time>2010-12-19T13:54:21Z</time>
      </trkpt>
      <trkpt lat="43.7586" lon="7.16631">
        <ele>491</ele>
        <time>2010-12-19T13:54:24Z</time>
      </trkpt>
      <trkpt lat="43.75871" lon="7.16632">
        <ele>485</ele>
        <time>2010-12-19T13:54:32Z</time>
      </trkpt>
      <trkpt lat="43.75881" lon="7.16629">
        <ele>481</ele>
        <time>2010-12-19T13:54:36Z</time>
      </trkpt>
      <trkpt lat="43.75891" lon="7.16628">
        <ele>479</ele>
        <time>2010-12-19T13:54:40Z</time>
      </trkpt>
      <trkpt lat="43.75901" lon="7.16628">
        <ele>478</ele>
        <time>2010-12-19T13:54:42Z</time>
      </trkpt>
      <trkpt lat="43.75912" lon="7.16629">
        <ele>477</ele>
        <time>2010-12-19T13:54:46Z</time>
      </trkpt>
      <trkpt lat="43.75922" lon="7.16631">
        <ele>476</ele>
        <time>2010-12-19T13:54:49Z</time>
      </trkpt>
      <trkpt lat="43.75932" lon="7.16635">
        <ele>474</ele>
        <time>2010-12-19T13:54:52Z</time>
      </trkpt>
      <trkpt lat="43.75942" lon="7.16642">
        <ele>474</ele>
        <time>2010-12-19T13:54:56Z</time>
      </trkpt>
      <trkpt lat="43.75951" lon="7.16652">
        <ele>474</ele>
        <time>2010-12-19T13:55:00Z</time>
      </trkpt>
      <trkpt lat="43.75958" lon="7.16663">
        <ele>473</ele>
        <time>2010-12-19T13:55:03Z</time>
      </trkpt>
      <trkpt lat="43.75965" lon="7.16673">
        <ele>473</ele>
        <time>2010-12-19T13:55:05Z</time>
      </trkpt>
      <trkpt lat="43.75971" lon="7.16685">
        <ele>472</ele>
        <time>2010-12-19T13:55:07Z</time>
      </trkpt>
      <trkpt lat="43.75975" lon="7.16697">
        <ele>472</ele>
        <time>2010-12-19T13:55:10Z</time>
      </trkpt>
      <trkpt lat="43.7598" lon="7.16709">
        <ele>472</ele>
        <time>2010-12-19T13:55:13Z</time>
      </trkpt>
      <trkpt lat="43.75984" lon="7.16721">
        <ele>470</ele>
        <time>2010-12-19T13:55:18Z</time>
      </trkpt>
      <trkpt lat="43.75985" lon="7.16733">
        <ele>468</ele>
        <time>2010-12-19T13:55:25Z</time>
      </trkpt>
      <trkpt lat="43.75981" lon="7.16745">
        <ele>465</ele>
        <time>2010-12-19T13:55:30Z</time>
      </trkpt>
      <trkpt lat="43.75977" lon="7.16744">
        <ele>464</ele>
        <time>2010-12-19T13:55:32Z</time>
      </trkpt>
      <trkpt lat="43.75969" lon="7.16736">
        <ele>462</ele>
        <time>2010-12-19T13:55:37Z</time>
      </trkpt>
      <trkpt lat="43.7596" lon="7.16733">
        <ele>459</ele>
        <time>2010-12-19T13:55:43Z</time>
      </trkpt>
      <trkpt lat="43.75953" lon="7.16743">
        <ele>457</ele>
        <time>2010-12-19T13:55:48Z</time>
      </trkpt>
      <trkpt lat="43.75946" lon="7.16751">
        <ele>454</ele>
        <time>2010-12-19T13:55:53Z</time>
      </trkpt>
      <trkpt lat="43.75944" lon="7.16764">
        <ele>452</ele>
        <time>2010-12-19T13:55:57Z</time>
      </trkpt>
      <trkpt lat="43.75949" lon="7.16776">
        <ele>450</ele>
        <time>2010-12-19T13:56:00Z</time>
      </trkpt>
      <trkpt lat="43.75955" lon="7.16788">
        <ele>449</ele>
        <time>2010-12-19T13:56:04Z</time>
      </trkpt>
      <trkpt lat="43.7596" lon="7.16802">
        <ele>448</ele>
        <time>2010-12-19T13:56:08Z</time>
      </trkpt>
      <trkpt lat="43.75963" lon="7.16816">
        <ele>445</ele>
        <time>2010-12-19T13:56:12Z</time>
      </trkpt>
      <trkpt lat="43.75966" lon="7.16827">
        <ele>443</ele>
        <time>2010-12-19T13:56:16Z</time>
      </trkpt>
      <trkpt lat="43.75972" lon="7.16849">
        <ele>438</ele>
        <time>2010-12-19T13:56:55Z</time>
      </trkpt>
      <trkpt lat="43.75973" lon="7.16863">
        <ele>438</ele>
        <time>2010-12-19T13:57:00Z</time>
      </trkpt>
      <trkpt lat="43.75971" lon="7.16881">
        <ele>437</ele>
        <time>2010-12-19T13:57:06Z</time>
      </trkpt>
      <trkpt lat="43.7597" lon="7.16897">
        <ele>436</ele>
        <time>2010-12-19T13:57:09Z</time>
      </trkpt>
      <trkpt lat="43.75973" lon="7.16911">
        <ele>435</ele>
        <time>2010-12-19T13:57:11Z</time>
      </trkpt>
      <trkpt lat="43.75976" lon="7.16924">
        <ele>435</ele>
        <time>2010-12-19T13:57:13Z</time>
      </trkpt>
      <trkpt lat="43.7598" lon="7.16939">
        <ele>434</ele>
        <time>2010-12-19T13:57:16Z</time>
      </trkpt>
      <trkpt lat="43.75984" lon="7.1695">
        <ele>433</ele>
        <time>2010-12-19T13:57:19Z</time>
      </trkpt>
      <trkpt lat="43.75987" lon="7.16962">
        <ele>432</ele>
        <time>2010-12-19T13:57:21Z</time>
      </trkpt>
      <trkpt lat="43.75988" lon="7.1698">
        <ele>430</ele>
        <time>2010-12-19T13:57:24Z</time>
      </trkpt>
      <trkpt lat="43.75989" lon="7.16999">
        <ele>429</ele>
        <time>2010-12-19T13:57:26Z</time>
      </trkpt>
      <trkpt lat="43.75989" lon="7.17013">
        <ele>428</ele>
        <time>2010-12-19T13:57:28Z</time>
      </trkpt>
      <trkpt lat="43.7599" lon="7.17026">
        <ele>427</ele>
        <time>2010-12-19T13:57:29Z</time>
      </trkpt>
      <trkpt lat="43.75992" lon="7.17042">
        <ele>426</ele>
        <time>2010-12-19T13:57:32Z</time>
      </trkpt>
      <trkpt lat="43.75995" lon="7.17057">
        <ele>424</ele>
        <time>2010-12-19T13:57:35Z</time>
      </trkpt>
      <trkpt lat="43.75993" lon="7.17065">
        <ele>423</ele>
        <time>2010-12-19T13:57:37Z</time>
      </trkpt>
      <trkpt lat="43.75992" lon="7.17081">
        <ele>421</ele>
        <time>2010-12-19T13:57:41Z</time>
      </trkpt>
      <trkpt lat="43.7599" lon="7.17098">
        <ele>420</ele>
        <time>2010-12-19T13:57:43Z</time>
      </trkpt>
      <trkpt lat="43.75987" lon="7.17115">
        <ele>419</ele>
        <time>2010-12-19T13:57:45Z</time>
      </trkpt>
      <trkpt lat="43.75983" lon="7.17133">
        <ele>418</ele>
        <time>2010-12-19T13:57:48Z</time>
      </trkpt>
      <trkpt lat="43.7598" lon="7.17145">
        <ele>417</ele>
        <time>2010-12-19T13:57:49Z</time>
      </trkpt>
      <trkpt lat="43.75975" lon="7.1716">
        <ele>417</ele>
        <time>2010-12-19T13:57:51Z</time>
      </trkpt>
      <trkpt lat="43.75969" lon="7.17175">
        <ele>416</ele>
        <time>2010-12-19T13:57:52Z</time>
      </trkpt>
      <trkpt lat="43.75963" lon="7.17191">
        <ele>416</ele>
        <time>2010-12-19T13:57:54Z</time>
      </trkpt>
      <trkpt lat="43.75957" lon="7.17206">
        <ele>415</ele>
        <time>2010-12-19T13:57:55Z</time>
      </trkpt>
      <trkpt lat="43.75952" lon="7.1722">
        <ele>414</ele>
        <time>2010-12-19T13:57:57Z</time>
      </trkpt>
      <trkpt lat="43.75948" lon="7.17233">
        <ele>413</ele>
        <time>2010-12-19T13:57:58Z</time>
      </trkpt>
      <trkpt lat="43.75948" lon="7.17246">
        <ele>412</ele>
        <time>2010-12-19T13:58:00Z</time>
      </trkpt>
      <trkpt lat="43.7595" lon="7.17259">
        <ele>410</ele>
        <time>2010-12-19T13:58:01Z</time>
      </trkpt>
      <trkpt lat="43.7595" lon="7.17272">
        <ele>409</ele>
        <time>2010-12-19T13:58:03Z</time>
      </trkpt>
      <trkpt lat="43.75949" lon="7.17284">
        <ele>409</ele>
        <time>2010-12-19T13:58:04Z</time>
      </trkpt>
      <trkpt lat="43.75947" lon="7.17296">
        <ele>408</ele>
        <time>2010-12-19T13:58:06Z</time>
      </trkpt>
      <trkpt lat="43.75943" lon="7.17309">
        <ele>407</ele>
        <time>2010-12-19T13:58:08Z</time>
      </trkpt>
      <trkpt lat="43.7594" lon="7.17321">
        <ele>405</ele>
        <time>2010-12-19T13:58:09Z</time>
      </trkpt>
      <trkpt lat="43.75937" lon="7.17333">
        <ele>403</ele>
        <time>2010-12-19T13:58:11Z</time>
      </trkpt>
      <trkpt lat="43.75935" lon="7.17346">
        <ele>401</ele>
        <time>2010-12-19T13:58:12Z</time>
      </trkpt>
      <trkpt lat="43.75927" lon="7.1736">
        <ele>398</ele>
        <time>2010-12-19T13:58:14Z</time>
      </trkpt>
      <trkpt lat="43.75919" lon="7.17366">
        <ele>397</ele>
        <time>2010-12-19T13:58:16Z</time>
      </trkpt>
      <trkpt lat="43.75915" lon="7.17381">
        <ele>394</ele>
        <time>2010-12-19T13:58:18Z</time>
      </trkpt>
      <trkpt lat="43.75924" lon="7.17388">
        <ele>390</ele>
        <time>2010-12-19T13:58:21Z</time>
      </trkpt>
      <trkpt lat="43.75932" lon="7.17382">
        <ele>387</ele>
        <time>2010-12-19T13:58:23Z</time>
      </trkpt>
      <trkpt lat="43.75935" lon="7.17385">
        <ele>383</ele>
        <time>2010-12-19T13:58:27Z</time>
      </trkpt>
      <trkpt lat="43.75932" lon="7.17401">
        <ele>378</ele>
        <time>2010-12-19T13:58:34Z</time>
      </trkpt>
      <trkpt lat="43.75931" lon="7.17414">
        <ele>375</ele>
        <time>2010-12-19T13:58:38Z</time>
      </trkpt>
      <trkpt lat="43.75931" lon="7.17416">
        <ele>374</ele>
        <time>2010-12-19T13:58:45Z</time>
      </trkpt>
      <trkpt lat="43.75931" lon="7.1743">
        <ele>370</ele>
        <time>2010-12-19T13:58:48Z</time>
      </trkpt>
      <trkpt lat="43.75928" lon="7.17445">
        <ele>361</ele>
        <time>2010-12-19T13:59:03Z</time>
      </trkpt>
      <trkpt lat="43.75927" lon="7.17456">
        <ele>360</ele>
        <time>2010-12-19T13:59:05Z</time>
      </trkpt>
      <trkpt lat="43.75919" lon="7.17463">
        <ele>357</ele>
        <time>2010-12-19T13:59:10Z</time>
      </trkpt>
      <trkpt lat="43.7591" lon="7.17461">
        <ele>355</ele>
        <time>2010-12-19T13:59:12Z</time>
      </trkpt>
      <trkpt lat="43.759" lon="7.17457">
        <ele>354</ele>
        <time>2010-12-19T13:59:14Z</time>
      </trkpt>
      <trkpt lat="43.7589" lon="7.17452">
        <ele>347</ele>
        <time>2010-12-19T13:59:32Z</time>
      </trkpt>
      <trkpt lat="43.7589" lon="7.17452">
        <ele>347</ele>
        <time>2010-12-19T13:59:34Z</time>
      </trkpt>
      <trkpt lat="43.75895" lon="7.17464">
        <ele>343</ele>
        <time>2010-12-19T14:00:03Z</time>
      </trkpt>
      <trkpt lat="43.75901" lon="7.17481">
        <ele>342</ele>
        <time>2010-12-19T14:00:05Z</time>
      </trkpt>
      <trkpt lat="43.75906" lon="7.17493">
        <ele>341</ele>
        <time>2010-12-19T14:00:07Z</time>
      </trkpt>
      <trkpt lat="43.75909" lon="7.17499">
        <ele>341</ele>
        <time>2010-12-19T14:00:07Z</time>
      </trkpt>
      <trkpt lat="43.75915" lon="7.1751">
        <ele>341</ele>
        <time>2010-12-19T14:00:09Z</time>
      </trkpt>
      <trkpt lat="43.75923" lon="7.17523">
        <ele>340</ele>
        <time>2010-12-19T14:00:11Z</time>
      </trkpt>
      <trkpt lat="43.7593" lon="7.17533">
        <ele>339</ele>
        <time>2010-12-19T14:00:13Z</time>
      </trkpt>
      <trkpt lat="43.75936" lon="7.17544">
        <ele>339</ele>
        <time>2010-12-19T14:00:16Z</time>
      </trkpt>
      <trkpt lat="43.75944" lon="7.17556">
        <ele>338</ele>
        <time>2010-12-19T14:00:18Z</time>
      </trkpt>
      <trkpt lat="43.75951" lon="7.17566">
        <ele>337</ele>
        <time>2010-12-19T14:00:21Z</time>
      </trkpt>
      <trkpt lat="43.75961" lon="7.17571">
        <ele>334</ele>
        <time>2010-12-19T14:00:27Z</time>
      </trkpt>
      <trkpt lat="43.7597" lon="7.17573">
        <ele>333</ele>
        <time>2010-12-19T14:00:29Z</time>
      </trkpt>
      <trkpt lat="43.75981" lon="7.17576">
        <ele>331</ele>
        <time>2010-12-19T14:00:31Z</time>
      </trkpt>
      <trkpt lat="43.7599" lon="7.1758">
        <ele>330</ele>
        <time>2010-12-19T14:00:34Z</time>
      </trkpt>
      <trkpt lat="43.75986" lon="7.17593">
        <ele>327</ele>
        <time>2010-12-19T14:00:37Z</time>
      </trkpt>
      <trkpt lat="43.75977" lon="7.17592">
        <ele>325</ele>
        <time>2010-12-19T14:00:40Z</time>
      </trkpt>
      <trkpt lat="43.75968" lon="7.17588">
        <ele>324</ele>
        <time>2010-12-19T14:00:44Z</time>
      </trkpt>
      <trkpt lat="43.75958" lon="7.17584">
        <ele>323</ele>
        <time>2010-12-19T14:00:47Z</time>
      </trkpt>
      <trkpt lat="43.75947" lon="7.17587">
        <ele>321</ele>
        <time>2010-12-19T14:01:01Z</time>
      </trkpt>
    </trkseg>
  </trk>
</gpx>